[[{"header":{"parameterUnit":"m.s-1","parameterCategory":1,"la1":30.6,"la2":29.2853,"lo1":-89.7004,"lo2":-87.6739,"dy":0.0162,"dx":0.0183,"nx":112,"ny":82,"refTime":"2023-10-04T06:00:00:Z","depth":0,"parameterNumber":2,"parameterNumberName":"U-component_of_WINDS"},"data":[0.0,0.0,0.0,0.0,0.0,0.0,0.0,0.0,0.0,0.0,0.0,0.0,0.0,0.0,0.0,0.0,0.0,0.0,0.0,0.0,0.0,0.0,0.0,0.0,0.0,0.0,0.0,0.0,0.0,0.0,0.0,0.0,0.0,0.0,0.0,0.0,0.0,0.0,0.0,0.0,0.0,0.0,0.0,0.0,0.0,0.0,0.0,0.0,0.0,0.0,0.0,0.0,0.0,0.0,0.0,0.0,0.0,0.0,0.0,0.0,0.0,0.0,0.0,0.0,0.0,0.0,0.0,0.0,0.0,0.0,0.0,0.0,0.0,0.0,0.0,0.0,0.0,0.0,0.0,0.0,0.0,0.0,0.0,0.0,0.0,0.0,0.0,0.0,0.0,0.0,0.0,7.1992,7.1992,7.1992,7.1992,7.1845,7.1393,7.0655,0.0,0.0,0.0,0.0,0.0,0.0,0.0,0.0,0.0,0.0,0.0,0.0,0.0,0.0,0.0,0.0,0.0,0.0,0.0,0.0,0.0,0.0,0.0,0.0,0.0,0.0,0.0,0.0,0.0,0.0,0.0,0.0,0.0,0.0,0.0,0.0,0.0,0.0,0.0,0.0,0.0,0.0,0.0,0.0,0.0,0.0,0.0,0.0,0.0,0.0,0.0,0.0,0.0,0.0,0.0,0.0,0.0,0.0,0.0,0.0,0.0,0.0,0.0,0.0,0.0,0.0,0.0,0.0,0.0,0.0,0.0,0.0,0.0,0.0,0.0,0.0,0.0,0.0,0.0,0.0,0.0,0.0,0.0,0.0,0.0,0.0,0.0,0.0,0.0,0.0,0.0,0.0,0.0,0.0,0.0,0.0,0.0,0.0,0.0,0.0,0.0,0.0,0.0,0.0,7.1992,7.1992,7.1992,7.1992,7.1992,7.1884,7.1704,7.1528,0.0,0.0,0.0,0.0,0.0,0.0,0.0,0.0,0.0,0.0,0.0,0.0,0.0,0.0,0.0,0.0,0.0,0.0,0.0,0.0,0.0,0.0,0.0,0.0,0.0,0.0,0.0,0.0,0.0,0.0,0.0,0.0,0.0,0.0,0.0,0.0,0.0,0.0,0.0,0.0,0.0,0.0,0.0,0.0,0.0,0.0,0.0,0.0,0.0,0.0,0.0,0.0,0.0,0.0,0.0,0.0,0.0,0.0,0.0,0.0,0.0,0.0,0.0,0.0,0.0,0.0,0.0,0.0,0.0,0.0,0.0,0.0,0.0,0.0,0.0,0.0,0.0,0.0,0.0,0.0,0.0,0.0,0.0,0.0,0.0,0.0,0.0,0.0,0.0,0.0,0.0,0.0,0.0,0.0,0.0,0.0,0.0,0.0,0.0,0.0,0.0,0.0,0.0,7.2265,7.1992,7.1992,7.1992,7.1992,7.1992,7.1861,7.1776,7.1684,7.1126,0.0,0.0,0.0,0.0,0.0,0.0,0.0,0.0,0.0,0.0,0.0,0.0,0.0,0.0,0.0,0.0,0.0,0.0,0.0,0.0,0.0,0.0,0.0,0.0,0.0,0.0,0.0,0.0,0.0,0.0,0.0,0.0,0.0,0.0,0.0,0.0,0.0,0.0,0.0,0.0,0.0,0.0,0.0,0.0,0.0,0.0,0.0,0.0,0.0,0.0,0.0,0.0,0.0,0.0,0.0,0.0,0.0,0.0,0.0,0.0,0.0,0.0,0.0,0.0,0.0,0.0,0.0,0.0,0.0,0.0,0.0,0.0,0.0,0.0,0.0,0.0,0.0,0.0,0.0,0.0,0.0,0.0,0.0,0.0,0.0,0.0,0.0,0.0,0.0,0.0,0.0,0.0,0.0,0.0,0.0,0.0,0.0,0.0,0.0,0.0,0.0,0.0,7.1992,7.1992,7.1992,7.1992,7.1992,7.1992,7.1914,7.1822,7.1711,7.1607,0.0,0.0,0.0,0.0,0.0,0.0,0.0,0.0,0.0,0.0,0.0,0.0,0.0,0.0,0.0,0.0,0.0,0.0,0.0,0.0,0.0,0.0,0.0,0.0,0.0,0.0,0.0,0.0,0.0,0.0,0.0,0.0,0.0,0.0,0.0,0.0,0.0,0.0,0.0,0.0,0.0,0.0,0.0,0.0,0.0,0.0,0.0,0.0,0.0,0.0,0.0,0.0,0.0,0.0,0.0,0.0,0.0,0.0,0.0,0.0,0.0,0.0,0.0,0.0,0.0,0.0,0.0,0.0,0.0,0.0,0.0,0.0,0.0,0.0,0.0,0.0,0.0,0.0,0.0,0.0,0.0,0.0,0.0,0.0,0.0,0.0,0.0,0.0,0.0,0.0,0.0,0.0,0.0,0.0,0.0,0.0,0.0,0.0,0.0,0.0,0.0,0.0,7.1992,7.1992,7.1992,7.1992,7.1992,7.1992,7.1992,7.19,7.1711,7.1684,0.0,0.0,0.0,0.0,0.0,0.0,0.0,0.0,0.0,0.0,0.0,0.0,0.0,0.0,0.0,0.0,0.0,0.0,0.0,0.0,0.0,0.0,0.0,0.0,0.0,0.0,0.0,0.0,0.0,0.0,0.0,0.0,0.0,0.0,0.0,0.0,0.0,0.0,0.0,0.0,0.0,0.0,0.0,0.0,0.0,0.0,0.0,0.0,0.0,0.0,0.0,0.0,0.0,0.0,0.0,0.0,0.0,0.0,0.0,0.0,0.0,0.0,0.0,0.0,0.0,0.0,0.0,0.0,0.0,0.0,0.0,0.0,0.0,0.0,0.0,0.0,0.0,0.0,0.0,0.0,0.0,0.0,0.0,0.0,0.0,0.0,0.0,0.0,0.0,0.0,0.0,0.0,0.0,0.0,0.0,0.0,0.0,0.0,0.0,0.0,0.0,0.0,7.1992,7.1992,0.0,7.1992,7.1992,7.1992,7.1992,7.19,7.1711,0.0,0.0,0.0,0.0,0.0,0.0,0.0,0.0,0.0,0.0,0.0,0.0,0.0,0.0,0.0,0.0,0.0,0.0,0.0,0.0,0.0,0.0,0.0,0.0,0.0,0.0,0.0,0.0,0.0,0.0,0.0,0.0,0.0,0.0,0.0,0.0,0.0,0.0,0.0,0.0,0.0,0.0,0.0,0.0,0.0,0.0,0.0,0.0,0.0,0.0,0.0,0.0,0.0,0.0,0.0,0.0,0.0,0.0,0.0,0.0,0.0,0.0,0.0,0.0,0.0,0.0,0.0,0.0,0.0,0.0,0.0,0.0,0.0,0.0,0.0,0.0,0.0,0.0,0.0,0.0,0.0,0.0,0.0,0.0,0.0,0.0,0.0,0.0,0.0,0.0,0.0,0.0,0.0,0.0,0.0,0.0,0.0,0.0,0.0,0.0,0.0,0.0,7.1992,7.1992,7.1992,0.0,7.1992,7.1992,7.1992,7.1992,7.19,7.1711,0.0,0.0,0.0,0.0,0.0,0.0,0.0,0.0,0.0,0.0,0.0,0.0,0.0,0.0,0.0,0.0,0.0,0.0,0.0,0.0,0.0,0.0,0.0,0.0,0.0,0.0,0.0,0.0,0.0,0.0,0.0,0.0,0.0,0.0,0.0,0.0,0.0,0.0,0.0,0.0,0.0,0.0,0.0,0.0,0.0,0.0,0.0,0.0,0.0,0.0,0.0,0.0,0.0,0.0,0.0,0.0,0.0,0.0,0.0,0.0,0.0,0.0,0.0,0.0,0.0,0.0,0.0,0.0,0.0,0.0,0.0,0.0,0.0,0.0,0.0,0.0,0.0,0.0,0.0,0.0,0.0,0.0,0.0,0.0,0.0,0.0,0.0,0.0,0.0,0.0,0.0,0.0,0.0,0.0,0.0,0.0,0.0,0.0,0.0,0.0,0.0,0.0,7.1991,7.1992,7.1992,7.1992,7.1992,7.1992,7.1992,7.1992,7.19,0.0,0.0,0.0,0.0,0.0,0.0,0.0,0.0,0.0,0.0,0.0,0.0,0.0,0.0,0.0,0.0,0.0,0.0,0.0,0.0,0.0,0.0,0.0,0.0,0.0,0.0,0.0,0.0,0.0,0.0,0.0,0.0,0.0,0.0,0.0,0.0,0.0,0.0,0.0,0.0,0.0,0.0,0.0,0.0,0.0,0.0,0.0,0.0,0.0,0.0,0.0,0.0,0.0,0.0,0.0,0.0,0.0,0.0,0.0,0.0,0.0,0.0,0.0,0.0,0.0,0.0,0.0,0.0,0.0,0.0,0.0,0.0,0.0,0.0,0.0,0.0,0.0,0.0,0.0,0.0,0.0,0.0,0.0,0.0,0.0,0.0,0.0,0.0,0.0,0.0,0.0,0.0,0.0,0.0,0.0,0.0,0.0,0.0,0.0,0.0,0.0,0.0,0.0,7.283,7.2372,7.1986,7.1986,7.1991,7.1992,7.1992,7.1992,7.19,7.1711,0.0,0.0,0.0,0.0,0.0,0.0,0.0,0.0,0.0,0.0,0.0,0.0,0.0,0.0,0.0,0.0,0.0,0.0,0.0,0.0,0.0,0.0,0.0,0.0,0.0,0.0,0.0,0.0,0.0,0.0,0.0,0.0,0.0,0.0,0.0,0.0,0.0,0.0,0.0,0.0,0.0,0.0,0.0,0.0,0.0,0.0,0.0,0.0,0.0,0.0,0.0,0.0,0.0,0.0,0.0,0.0,0.0,0.0,0.0,0.0,0.0,0.0,0.0,0.0,0.0,0.0,0.0,0.0,0.0,0.0,0.0,0.0,0.0,0.0,0.0,0.0,0.0,0.0,0.0,0.0,0.0,0.0,0.0,0.0,0.0,0.0,0.0,0.0,0.0,0.0,0.0,0.0,0.0,0.0,0.0,0.0,0.0,0.0,0.0,0.0,0.0,0.0,7.3749,7.3369,7.3026,7.3026,7.3033,7.2882,7.2533,7.2538,7.2294,7.178,0.0,0.0,0.0,0.0,0.0,0.0,0.0,0.0,0.0,0.0,0.0,0.0,0.0,0.0,0.0,0.0,0.0,0.0,0.0,0.0,0.0,0.0,0.0,0.0,0.0,0.0,0.0,0.0,0.0,0.0,0.0,0.0,0.0,0.0,0.0,0.0,0.0,0.0,0.0,0.0,0.0,0.0,0.0,0.0,0.0,0.0,0.0,0.0,0.0,0.0,0.0,0.0,0.0,0.0,0.0,0.0,0.0,0.0,0.0,0.0,0.0,0.0,0.0,0.0,0.0,0.0,0.0,0.0,0.0,0.0,0.0,0.0,0.0,0.0,0.0,0.0,0.0,0.0,0.0,0.0,0.0,0.0,0.0,0.0,0.0,0.0,0.0,0.0,0.0,0.0,0.0,0.0,0.0,0.0,0.0,0.0,0.0,0.0,0.0,0.0,0.0,0.0,7.4686,7.4647,7.4608,7.4608,7.4603,7.429,7.3471,7.3351,7.2925,7.1995,0.0,0.0,0.0,0.0,0.0,0.0,0.0,0.0,0.0,0.0,0.0,0.0,0.0,0.0,0.0,0.0,0.0,0.0,0.0,0.0,0.0,0.0,0.0,0.0,0.0,0.0,0.0,0.0,0.0,0.0,0.0,0.0,0.0,0.0,0.0,0.0,0.0,0.0,0.0,0.0,0.0,0.0,0.0,0.0,0.0,0.0,0.0,0.0,0.0,0.0,0.0,0.0,0.0,0.0,0.0,0.0,0.0,0.0,0.0,0.0,7.1987,0.0,0.0,0.0,0.0,0.0,0.0,0.0,0.0,0.0,0.0,0.0,0.0,0.0,0.0,0.0,0.0,0.0,0.0,0.0,0.0,0.0,0.0,0.0,0.0,0.0,0.0,0.0,0.0,0.0,0.0,0.0,0.0,0.0,0.0,0.0,0.0,0.0,0.0,0.0,0.0,0.0,7.5462,7.4993,7.4603,7.4603,7.4603,7.4525,7.4335,7.3676,7.3155,7.2849,7.2182,0.0,0.0,0.0,0.0,0.0,0.0,0.0,0.0,0.0,0.0,0.0,0.0,0.0,0.0,0.0,0.0,0.0,0.0,0.0,0.0,0.0,0.0,0.0,0.0,0.0,0.0,0.0,0.0,0.0,0.0,0.0,0.0,0.0,0.0,0.0,0.0,0.0,0.0,0.0,0.0,0.0,0.0,0.0,0.0,0.0,0.0,0.0,0.0,0.0,0.0,0.0,0.0,0.0,0.0,0.0,0.0,0.0,0.0,0.0,0.0,7.1987,0.0,0.0,0.0,0.0,0.0,0.0,0.0,0.0,0.0,0.0,0.0,0.0,0.0,0.0,0.0,0.0,0.0,0.0,0.0,0.0,0.0,0.0,0.0,0.0,0.0,0.0,0.0,0.0,0.0,0.0,0.0,0.0,0.0,0.0,0.0,0.0,0.0,0.0,0.0,0.0,7.636,7.6047,7.5819,7.5794,7.5785,7.5657,7.5266,7.4798,7.4145,7.3231,7.2769,0.0,0.0,0.0,0.0,0.0,0.0,0.0,0.0,0.0,0.0,0.0,0.0,0.0,0.0,0.0,0.0,0.0,0.0,0.0,0.0,0.0,0.0,0.0,0.0,0.0,0.0,0.0,0.0,0.0,0.0,0.0,0.0,0.0,0.0,0.0,0.0,0.0,0.0,0.0,0.0,0.0,0.0,0.0,0.0,0.0,0.0,0.0,0.0,0.0,0.0,0.0,0.0,0.0,7.1987,7.1987,7.1987,7.1987,7.1987,7.1987,7.1987,7.1987,7.1987,0.0,0.0,0.0,0.0,0.0,0.0,0.0,0.0,0.0,0.0,0.0,0.0,0.0,0.0,0.0,0.0,0.0,0.0,0.0,0.0,0.0,0.0,0.0,0.0,0.0,7.3002,7.3315,0.0,0.0,0.0,0.0,0.0,0.0,0.0,0.0,0.0,0.0,0.0,0.0,7.7101,7.7101,7.7112,7.7091,7.7117,7.6834,7.618,7.5975,7.5272,7.3837,7.347,7.2929,0.0,0.0,0.0,0.0,0.0,0.0,0.0,0.0,0.0,0.0,0.0,0.0,0.0,0.0,0.0,0.0,0.0,0.0,0.0,0.0,0.0,0.0,0.0,0.0,0.0,0.0,0.0,0.0,0.0,0.0,0.0,0.0,6.9098,6.9215,0.0,0.0,0.0,0.0,0.0,0.0,0.0,0.0,0.0,0.0,0.0,0.0,0.0,7.1987,7.1987,7.1987,7.1987,7.1987,7.1987,7.1987,7.1987,7.1987,7.1987,7.1987,7.1987,0.0,7.1987,7.1987,0.0,0.0,0.0,0.0,0.0,0.0,0.0,0.0,0.0,0.0,0.0,0.0,0.0,0.0,0.0,0.0,0.0,0.0,0.0,0.0,0.0,0.0,7.3315,7.4017,7.4251,7.429,0.0,7.4251,7.433,7.433,0.0,0.0,0.0,0.0,0.0,0.0,0.0,0.0,7.7101,7.7101,7.7101,7.7107,7.7101,7.7083,7.7029,7.6349,7.5794,7.5584,7.4126,7.3228,7.3125,7.2261,0.0,0.0,0.0,0.0,0.0,0.0,0.0,0.0,0.0,0.0,0.0,0.0,0.0,0.0,0.0,0.0,0.0,0.0,0.0,0.0,0.0,0.0,0.0,0.0,0.0,0.0,0.0,0.0,0.0,6.8678,6.8944,6.9991,6.9965,7.027,0.0,0.0,0.0,0.0,0.0,0.0,0.0,0.0,0.0,7.1987,7.1987,7.1987,7.1987,7.1987,7.1987,7.1987,7.1987,7.1987,7.1987,7.1987,7.1987,7.1987,7.1987,7.1987,7.2026,7.2534,7.3002,7.3393,0.0,0.0,0.0,0.0,7.3393,7.3354,7.2885,7.2729,0.0,0.0,0.0,0.0,0.0,0.0,0.0,0.0,0.0,0.0,0.0,0.0,0.0,7.4408,7.4876,7.5227,7.5227,7.5618,7.5813,0.0,7.593,7.6516,7.6516,0.0,0.0,0.0,0.0,7.7101,7.7101,7.7101,7.7101,7.7101,7.7101,7.7112,7.7133,7.6778,7.6394,7.5937,7.5192,7.4331,7.3359,7.289,7.2369,0.0,0.0,0.0,0.0,0.0,0.0,0.0,0.0,0.0,0.0,0.0,0.0,0.0,0.0,0.0,0.0,0.0,0.0,0.0,0.0,0.0,0.0,0.0,0.0,0.0,0.0,0.0,0.0,6.9092,6.9233,7.085,7.0185,7.0216,0.0,0.0,0.0,0.0,0.0,0.0,7.1987,7.1987,7.1987,7.1987,7.1987,7.1987,7.1987,7.1987,7.1987,7.1987,7.1987,7.1987,7.1987,7.1987,7.1987,7.1987,7.1987,7.2143,7.2378,7.2807,7.3432,7.4173,7.4173,7.433,7.4486,7.4486,7.4486,7.4408,7.3822,7.3627,7.351,7.2846,0.0,7.2768,7.3393,0.0,0.0,0.0,0.0,7.4564,7.4759,7.4837,7.4876,7.511,7.5657,7.6125,7.6125,7.6633,7.6906,0.0,7.6672,7.7101,7.7101,0.0,0.0,0.0,0.0,7.7101,7.7101,7.7101,7.7101,7.7101,7.7101,7.7101,7.7101,7.7083,7.6863,7.6286,7.6015,7.5312,7.4023,7.3555,7.2969,7.2187,0.0,0.0,0.0,0.0,0.0,0.0,0.0,0.0,0.0,0.0,0.0,0.0,0.0,0.0,0.0,0.0,0.0,0.0,0.0,0.0,0.0,0.0,0.0,0.0,0.0,0.0,0.0,0.0,0.0,7.1831,7.1162,0.0,0.0,0.0,0.0,7.1987,7.1987,7.1987,7.1987,7.1987,7.1987,7.1987,7.1987,7.1987,7.1987,7.1987,7.1987,7.1987,7.1987,7.1987,7.1987,7.1987,7.1987,7.1987,7.1987,7.2456,7.3158,7.2378,7.2573,7.3354,7.3354,7.3822,7.4486,7.4486,7.4486,7.4486,7.4447,7.4447,7.4447,7.4408,7.4369,7.4369,7.4447,7.4486,0.0,0.0,7.4486,7.4681,7.5501,7.5735,7.593,7.6789,7.6984,7.7023,7.7023,7.7062,7.7101,0.0,7.7062,7.7101,7.7101,0.0,7.7101,7.7101,7.7101,7.7101,7.7101,7.7101,7.7101,7.7101,7.7101,7.7101,7.7101,7.7101,7.7101,7.7146,7.636,7.5859,7.5781,7.418,7.3281,7.3242,7.2304,0.0,0.0,0.0,0.0,0.0,0.0,0.0,0.0,0.0,0.0,0.0,0.0,0.0,0.0,0.0,0.0,0.0,0.0,0.0,0.0,0.0,0.0,0.0,0.0,0.0,0.0,0.0,0.0,7.1117,7.0778,0.0,7.172,7.1798,7.177,7.1692,7.1692,7.1728,7.1789,7.1798,7.1862,7.1987,7.1987,7.1987,7.1987,7.1987,7.1987,7.1987,7.1987,7.1987,7.1987,7.1987,7.1987,7.1987,7.1987,7.2182,7.2456,7.2143,7.2807,7.4056,7.4056,7.4251,7.4564,7.511,7.5345,7.5345,7.5345,7.5345,7.5227,7.4681,7.4876,7.5345,7.5345,7.5735,7.6164,7.6164,7.6164,7.6242,7.6555,7.6633,7.6711,7.7023,7.6672,7.6242,7.6242,7.6242,7.6086,7.554,7.632,7.7101,7.7101,7.7101,7.7101,7.7101,7.7101,7.7101,7.7101,7.7101,7.7101,7.7101,7.7101,7.7101,7.7101,7.7101,7.7101,7.714,7.6857,7.6441,7.5937,7.5306,7.4435,7.3303,7.2967,7.2422,0.0,0.0,0.0,0.0,0.0,0.0,0.0,0.0,0.0,0.0,0.0,0.0,0.0,0.0,0.0,0.0,0.0,0.0,0.0,0.0,0.0,0.0,0.0,0.0,0.0,0.0,7.0447,7.0922,7.0598,7.0667,7.1563,7.1641,7.1601,7.1497,7.1481,7.1529,7.1628,7.1641,7.1677,7.1828,7.1862,7.1916,7.1916,7.1976,7.1987,7.1987,7.1987,7.1987,7.1987,7.1987,7.1987,7.1987,7.1987,7.1987,7.1987,7.1987,7.2651,7.3705,7.3978,7.4251,7.4564,7.5149,7.5345,7.5384,7.5696,7.5969,7.6125,7.5579,7.5774,7.6242,7.6242,7.6438,7.6672,7.6672,7.6438,7.6203,7.6203,7.6203,7.6203,7.6203,7.5774,7.5345,7.5345,7.5345,7.5266,7.4993,7.6125,7.7023,7.6711,7.6906,7.7101,7.7101,7.7101,7.7101,7.7101,7.7101,7.7101,7.7101,7.7101,7.7101,7.7101,7.7101,7.7101,7.7101,7.7112,7.6857,7.6321,7.6054,7.5195,7.3711,7.3075,7.2448,7.1708,0.0,0.0,0.0,0.0,0.0,0.0,0.0,0.0,0.0,0.0,0.0,0.0,0.0,0.0,0.0,0.0,0.0,0.0,0.0,0.0,0.0,0.0,0.0,7.1626,7.0948,7.0667,7.1381,7.0743,7.0571,7.1403,7.1481,7.1465,7.1465,7.1465,7.1465,7.1481,7.1481,7.152,7.1497,7.1641,7.17,7.1711,7.1916,7.1987,7.1987,7.1987,7.1987,7.1987,7.1987,7.1987,7.1987,7.1987,7.1987,7.1987,7.1987,7.1987,7.2065,7.2924,7.3744,7.4447,7.4447,7.4486,7.4603,7.5462,7.632,7.7023,7.7023,7.7023,7.7023,7.7023,7.6438,7.5774,7.5774,7.5149,7.4486,7.4486,7.4486,7.4486,7.4486,7.4486,7.4447,7.4447,7.4486,7.4759,7.554,7.6477,7.6828,7.5969,7.6555,7.7101,7.7101,7.7101,0.0,7.714,7.714,7.714,7.7179,7.7179,7.7179,7.7179,7.7179,7.7179,7.7179,7.7179,7.714,7.714,7.6375,7.5463,7.4466,7.2729,7.1816,7.1739,0.0,0.0,0.0,0.0,0.0,0.0,0.0,0.0,0.0,0.0,0.0,0.0,0.0,0.0,0.0,0.0,0.0,0.0,0.0,0.0,0.0,0.0,7.1253,7.0673,7.0809,7.0872,7.061,7.0898,7.1197,7.128,7.126,7.1197,7.1053,7.1053,7.1124,7.126,7.126,7.1413,7.1641,7.1689,7.178,7.1924,7.1982,7.1987,7.1987,7.1987,7.1987,7.1987,7.1987,7.1987,7.1987,7.1987,7.1987,7.1987,7.1987,7.1987,7.2026,7.226,7.2495,7.2768,7.3393,7.4017,7.4525,7.4759,7.4993,7.5227,7.5227,7.5227,7.5227,7.5227,7.5032,7.4876,7.4876,7.4681,7.4486,7.4486,7.4486,7.4486,7.4486,7.4056,7.3627,7.3627,7.4095,7.4408,7.4056,7.5657,7.7023,7.6789,7.6945,7.7101,7.7101,7.7101,0.0,7.796,7.8038,7.8272,7.8936,7.8975,7.8975,7.8975,7.8975,7.8975,7.8975,7.839,7.8038,7.8038,7.7215,7.637,7.5507,7.368,7.2695,0.0,0.0,0.0,0.0,0.0,0.0,0.0,0.0,0.0,0.0,0.0,0.0,0.0,0.0,0.0,0.0,0.0,0.0,0.0,0.0,0.0,0.0,7.1552,7.1063,7.056,7.0887,7.1042,7.056,7.0947,7.1214,7.1077,7.1053,7.1042,7.0898,7.0898,7.094,7.1053,7.1053,7.1197,7.1474,7.1587,7.1689,7.1862,7.1976,7.1987,7.1987,7.1987,7.1987,7.1987,7.1987,7.1987,0.0,7.1987,7.1987,7.1987,7.1987,7.1987,0.0,0.0,0.0,0.0,0.0,7.3275,7.4017,7.4017,7.4212,7.4486,7.4486,7.4486,7.4486,7.4486,7.4251,7.4017,7.4017,7.3744,7.3432,7.3432,7.3432,7.3432,7.3432,7.3354,7.3315,7.3315,7.3939,7.4486,7.4369,0.0,0.0,7.757,7.7648,7.7648,7.7648,7.796,7.835,7.8897,7.8936,7.9131,7.9639,7.9717,7.9717,7.9717,7.9717,0.0,0.0,0.0,7.878,7.8429,7.7204,0.0,0.0,0.0,7.3451,7.3041,0.0,0.0,0.0,7.0542,7.0402,0.0,0.0,0.0,0.0,0.0,0.0,0.0,0.0,0.0,0.0,0.0,0.0,0.0,0.0,0.0,0.0,7.1426,7.0898,7.0898,7.1029,7.1101,7.0925,7.0898,7.0898,7.0898,7.0898,7.0898,7.0898,7.0898,7.0898,7.0898,0.0,0.0,0.0,0.0,7.1559,7.17,7.1995,7.2143,7.2143,7.2221,7.226,7.226,7.226,7.226,7.226,7.226,7.226,7.226,7.226,7.226,7.226,7.2065,7.1987,7.1987,7.1987,7.2495,7.3158,7.3158,0.0,0.0,7.4212,7.4212,7.4212,7.4212,7.3705,7.3158,7.3158,7.2612,7.2026,7.2104,7.2143,7.2182,7.226,7.2885,7.3432,7.3432,7.4134,7.5032,7.5813,7.6711,7.7648,7.839,7.8546,7.8546,7.8546,7.9209,7.9756,7.9834,7.9834,7.9873,7.999,0.0,0.0,7.999,7.999,7.999,7.999,7.9912,7.9405,7.8429,7.687,7.6015,7.6015,7.5059,7.4172,7.3381,7.343,7.2918,7.1899,7.0998,7.1029,0.0,0.0,0.0,0.0,0.0,0.0,0.0,0.0,0.0,0.0,0.0,0.0,0.0,0.0,0.0,7.1472,7.1133,7.0898,7.0898,7.0952,7.0914,7.0898,7.0898,7.0898,7.0898,7.0898,7.0898,7.0898,7.0898,7.0898,7.0898,7.0898,7.0992,7.1214,7.1377,7.1559,7.17,7.2619,7.3041,7.308,0.0,0.0,7.4017,7.4017,7.4017,7.4017,7.4017,7.4017,7.4017,7.4017,7.4017,7.3861,7.2534,7.1987,7.1987,7.1987,7.2104,7.226,7.226,7.2339,7.2495,7.2495,7.2495,7.2495,7.2495,7.2378,0.0,7.226,7.2143,7.2143,7.2885,7.3041,7.3197,7.3861,7.4134,7.4251,7.4251,7.5501,7.6633,7.6828,7.8116,7.9248,7.9405,7.9444,7.9444,7.9444,7.96,7.9951,8.0654,8.0732,8.1005,8.1708,8.1786,8.1786,8.1786,8.1786,8.1786,8.1786,8.1122,8.0029,7.8468,7.8049,7.7551,7.6883,7.5933,7.5384,7.5202,7.4535,7.4056,7.3835,7.2372,7.1744,0.0,0.0,0.0,0.0,0.0,0.0,0.0,0.0,0.0,0.0,0.0,7.2948,7.2442,0.0,7.1568,7.1659,7.1274,7.0898,7.0898,7.0898,7.0898,7.0898,7.0898,7.0898,7.0898,7.0898,7.0898,7.0898,7.1283,7.136,7.0937,7.1321,7.1647,7.1833,7.1939,7.2284,7.2832,7.3367,7.3709,7.3796,7.4195,7.4453,7.4486,7.4486,7.4486,7.4486,7.4486,7.4486,7.4486,7.4486,7.4486,7.4408,7.3588,7.3236,7.3197,7.2807,7.2651,7.2573,7.2143,7.1987,7.1987,7.1987,7.1987,7.2065,7.2534,7.2651,7.2729,7.3158,7.3236,7.3354,7.3783,7.39,7.4017,7.4408,7.5188,7.5813,7.5813,7.6828,7.7882,7.8311,7.9092,7.9834,8.0263,8.0693,8.0849,8.042,8.0732,8.1161,8.1591,8.1669,8.1825,8.2254,8.2293,8.2293,8.2293,8.2293,8.2293,8.2293,8.1474,8.0615,7.9756,7.8858,7.8194,7.7765,7.6866,7.6171,7.5759,7.535,7.492,7.4432,7.366,7.3029,0.0,0.0,0.0,0.0,0.0,0.0,0.0,7.4056,7.376,7.2726,7.2481,7.2442,7.2234,7.1629,7.1321,7.186,7.136,7.0898,7.0898,7.0898,7.0898,7.0898,7.0898,7.0898,7.0898,7.1052,7.1091,7.0898,7.1706,7.1898,7.1206,7.1822,7.2353,7.2669,7.2739,7.3119,7.3936,7.4321,7.4561,7.473,7.508,7.5307,7.5443,7.5443,7.5371,7.5266,7.5071,7.4993,7.4993,7.4993,7.4993,7.4993,7.4993,7.4993,7.4876,7.39,7.3549,7.3432,7.2729,7.2495,7.2495,7.2495,7.2495,7.2612,7.3315,7.3549,7.3666,7.433,7.4486,7.4525,7.472,7.4759,7.4798,7.4954,7.6086,7.7101,7.7101,7.7765,7.8663,7.9522,7.9834,8.0263,8.1317,8.2059,8.2293,8.1591,8.2098,8.2606,8.2762,8.2801,8.2801,8.2801,8.2801,8.2723,8.2567,8.2371,8.2293,8.2293,8.163,8.1161,8.1005,7.9483,7.8585,7.839,7.7508,7.6743,7.6052,7.6093,7.5703,7.4997,7.4896,7.4369,7.4134,7.4369,7.4408,7.4486,7.4486,7.4467,0.0,7.426,7.4145,7.364,7.3551,7.3287,7.2377,7.2129,7.1822,7.1168,7.0975,7.0898,7.0898,7.0898,7.0898,7.0898,7.0898,7.0898,7.0898,7.1591,7.1745,7.0975,7.1706,7.2168,7.2052,7.2129,7.258,7.335,7.3471,7.3612,7.3751,7.5372,7.6221,7.6277,7.7831,7.8668,7.8843,7.8843,7.8516,7.7921,7.714,7.6828,7.6828,7.6828,7.6828,7.6828,7.6828,7.6828,7.6594,7.4954,7.4369,7.4369,7.4251,7.4212,7.4212,7.4212,7.4212,7.4251,7.433,7.4369,7.4369,7.4486,7.4486,7.4681,7.5462,7.5657,7.5852,7.6633,7.6945,7.7101,7.7101,7.7765,7.8663,7.9522,8.0341,8.1356,8.2957,8.3308,8.3347,8.323,8.3308,8.366,8.4401,8.4519,8.4519,8.4519,8.4519,8.4206,8.3426,8.2723,8.2293,8.2293,8.2215,8.1825,8.1044,8.0068,7.917,7.8429,7.7419,7.6912,7.6956,7.6835,7.6795,7.68,7.6014,7.5227,7.5032,7.5618,7.5885,7.5296,7.5122,7.4928,7.4117,7.3972,7.3743,7.2969,7.2817,7.2559,7.1618,7.1437,7.1321,7.0975,7.0898,7.0898,7.0898,7.1321,7.1668,7.1668,7.2091,7.2206,7.1706,7.1975,7.2052,7.1668,7.2476,7.2745,7.2206,7.3591,7.4591,7.4938,7.5512,7.6029,7.6492,7.728,7.7713,7.7849,7.8585,7.9039,7.9236,7.9338,7.9325,7.9131,7.878,7.8624,7.8624,7.8624,7.8624,7.8624,7.8624,7.8624,7.835,7.6086,7.5266,7.5188,7.4681,7.4486,7.4486,7.4486,7.4486,7.4603,7.511,7.5266,7.5345,7.5852,7.6008,7.6086,7.6477,7.6555,7.6633,7.7023,7.7492,7.7843,7.7843,7.8936,8.0185,8.1044,8.1903,8.284,8.405,8.4245,8.4441,8.4948,8.4597,8.4401,8.4753,8.4792,8.4792,8.4792,8.4792,8.4441,8.3582,8.3191,8.2801,8.2332,8.2293,8.2137,8.1786,8.0927,8.0068,7.917,7.8262,7.7559,7.7101,7.7052,7.7048,7.7101,7.6711,7.6399,7.5696,7.623,7.6435,7.5474,7.5195,7.4831,7.3643,7.3342,7.3079,7.203,7.1822,7.1629,7.1014,7.0898,7.0898,7.0898,7.1091,7.1245,7.1245,7.2014,7.2552,7.2552,7.3322,7.3668,7.3283,7.3014,7.2783,7.2591,7.3591,7.4014,7.363,7.5361,7.6476,7.6669,7.7284,7.79,7.8477,7.8477,7.871,7.9095,7.9095,7.9323,7.9737,7.9703,7.9778,7.9955,7.9721,7.9658,7.9717,7.9717,7.9717,7.9717,7.9717,7.9717,7.9483,7.757,7.6711,7.6399,7.5501,7.5227,7.5227,7.5227,7.5227,7.5345,7.5969,7.6164,7.6281,7.6906,7.7101,7.7101,7.7101,7.7296,7.7453,7.7453,7.8311,7.9131,7.9131,8.0302,8.1591,8.2489,8.3113,8.3855,8.4987,8.5143,8.5456,8.6314,8.5924,8.5534,8.5534,8.5534,8.5534,8.5534,8.5299,8.4909,8.4284,8.3777,8.323,8.2684,8.2411,8.2293,8.2293,8.1474,8.0576,7.9717,7.8858,7.796,7.7101,7.7101,7.7101,7.7101,7.7101,7.7101,7.6008,7.5725,7.5452,7.4556,7.4184,7.3795,7.2749,7.2551,7.2229,7.1145,7.0937,7.0937,7.0898,7.0898,7.0898,7.0898,7.1591,7.2168,7.2168,7.2899,7.3476,7.3476,7.4168,7.4976,0.0,7.513,7.4322,7.3514,7.4976,7.6284,7.7092,7.7207,7.763,7.84,7.8438,7.8477,7.8477,7.8477,7.8938,7.9746,7.9746,8.0309,8.1296,8.0668,8.0481,8.0623,7.9766,7.952,7.9717,7.9717,7.9717,7.9717,7.9717,7.9717,7.9678,7.96,7.9053,7.8194,7.7335,7.7023,7.7023,7.7023,7.7023,7.7023,7.7062,7.7062,7.7062,7.7101,7.7101,7.7101,7.7101,7.7726,7.835,7.835,7.9678,8.0927,8.0927,8.163,8.2489,8.3308,8.3465,8.405,8.5768,8.6041,8.6353,8.7212,8.7329,8.7329,8.7329,8.7329,8.7329,8.7329,8.6549,8.6041,8.6002,8.448,8.3504,8.3465,8.2723,8.2293,8.2293,8.1474,8.0576,7.9717,7.8858,7.796,7.7101,7.7101,7.7101,7.7101,7.7101,7.7101,7.5755,7.5211,7.447,7.3368,7.3064,7.2711,7.1684,7.1441,7.1339,7.0964,7.136,7.1745,7.1745,7.1745,7.1937,7.2552,7.2399,7.2399,7.2976,7.3783,7.4514,7.5091,7.5899,7.6553,0.0,0.0,0.0,7.6015,7.6553,7.6976,7.7284,7.8361,7.9092,7.9361,7.9939,8.0208,8.0208,8.0208,8.0362,8.0669,8.0669,8.0926,8.1387,8.1174,8.1173,8.1376,8.1208,8.1154,8.1236,8.1375,8.1435,8.1435,8.1435,8.1435,8.1356,8.0771,8.0381,7.999,7.9131,7.8819,7.8819,7.8819,7.8819,7.8819,7.8819,7.8819,7.8819,7.8819,7.8819,7.8819,7.8819,7.9483,8.0146,8.0146,8.1005,8.1864,8.1864,8.2957,8.405,8.4323,8.5299,8.6275,8.6861,8.6978,8.7056,8.7368,8.7407,8.7407,8.7407,8.7407,8.7407,8.7407,8.7134,8.6744,8.6158,8.5573,8.4714,8.3582,8.323,8.2879,8.2332,8.202,8.1435,8.0576,7.9717,7.8819,7.796,7.7375,7.7101,7.7101,7.7101,7.7101,7.4899,7.4209,7.3455,7.2326,7.1982,7.1748,7.1068,7.0898,7.0898,7.0898,7.1591,7.2206,7.2206,7.2437,7.286,7.3399,7.3283,7.3283,7.386,7.4899,7.5822,7.6399,7.7207,7.7861,7.8169,0.0,0.0,7.7707,7.8015,7.8323,7.8631,7.94,7.9823,7.9823,8.0323,8.0631,8.0631,8.0631,8.0631,8.0631,8.0939,8.1176,8.1269,8.1269,8.1387,8.16,8.1735,8.1851,8.1999,8.2143,8.2226,8.2293,8.2293,8.2293,8.2215,8.1669,8.1474,8.1317,8.0107,7.9717,7.9756,8.0068,8.0146,8.0224,8.0537,8.0615,8.0615,8.0615,8.0615,8.0615,8.0615,8.1278,8.1903,8.1903,8.2801,8.366,8.366,8.4753,8.5729,8.5729,8.6627,8.7407,8.7407,8.7407,8.7407,8.7407,8.7407,8.7407,8.7407,8.7407,8.7407,8.7407,8.7407,8.7173,8.6627,8.6275,8.5495,8.405,8.366,8.3152,8.2332,8.2293,8.1903,8.1005,8.0146,7.9287,7.839,7.7531,7.7101,7.7101,7.7101,7.7101,7.3464,7.2794,7.2401,7.1412,7.1067,7.0898,7.0898,7.0898,7.0898,7.0975,7.1668,7.2283,7.2322,7.3014,7.3591,7.363,7.4207,7.4668,7.4822,7.6207,7.7284,7.74,7.8092,7.89,7.9785,7.9862,0.0,7.8631,0.0,8.0246,8.1054,8.0323,7.99,7.9939,7.9939,7.9939,7.9977,7.9977,7.9977,8.0015,8.0823,8.1246,8.1246,8.1246,8.135,8.1517,8.1504,8.1737,8.2091,8.2052,8.2162,8.2319,8.228,8.228,8.228,8.228,8.2287,8.2053,8.0374,7.9828,7.9951,8.081,8.1083,8.1278,8.2098,8.2371,8.245,8.2404,8.2404,8.2404,8.2397,8.2983,8.3607,8.3607,8.4895,8.6144,8.6144,8.6776,8.7362,8.7362,8.7401,8.7407,8.7407,8.7407,8.7407,8.7407,8.7407,8.7407,8.7407,8.7407,8.7407,8.7407,8.7407,8.7407,8.7407,8.6627,8.5807,8.4909,8.405,8.3191,8.2371,8.2332,8.1903,8.1083,8.0224,7.9326,7.8468,7.7609,7.714,7.7101,7.7101,7.7101,7.2947,7.2114,7.1489,7.1081,7.0952,7.0898,7.0898,7.0898,7.1091,7.1745,7.2552,7.336,7.3937,7.4245,7.463,7.5245,7.4476,7.4476,7.6361,7.6476,7.7053,7.8938,7.9323,7.9823,8.0669,8.0785,0.0,0.0,8.0285,8.0862,8.1093,8.09,8.1054,8.1631,8.167,8.1977,8.2631,8.2631,8.2631,8.2631,8.2862,8.2939,8.2939,8.2939,8.3002,8.3055,8.3178,8.3319,8.3358,8.2864,8.2682,8.2692,8.2108,8.1836,8.1836,8.1836,8.1948,8.1995,8.1566,8.1499,8.1669,8.1903,8.2371,8.2918,8.3113,8.366,8.4115,8.3966,8.3944,8.3921,8.3758,8.4349,8.4988,8.4988,8.5844,8.6622,8.6622,8.6909,8.7181,8.7181,8.7282,8.7407,8.7407,8.7407,8.7407,8.7407,8.7407,8.7407,8.7407,8.7407,8.7407,8.7407,8.7407,8.7407,8.7407,8.7212,8.6705,8.5807,8.4948,8.4089,8.323,8.2606,8.2215,8.1981,8.1122,8.0224,7.9366,7.8507,7.7726,7.7101,7.7101,7.7101,7.2207,7.1562,7.1147,7.094,7.0898,7.1014,7.136,7.1475,7.1706,7.2591,7.3437,7.4168,7.463,7.5014,7.5438,7.5938,7.5515,7.5668,7.7092,7.7515,7.8207,7.9631,8.0131,8.0554,8.1054,8.14,8.1439,0.0,8.1362,8.1477,8.1131,8.1439,8.1823,8.2285,8.2285,8.2708,8.3593,8.3593,8.3593,8.3593,8.3593,8.3593,8.3593,8.3593,8.3593,8.3625,0.0,8.3807,8.3863,8.3506,8.3385,8.3427,8.298,8.2825,8.2747,8.2359,8.2314,8.2357,8.2007,8.1948,8.2179,8.3001,8.3839,8.4571,8.4869,8.5286,8.565,8.5525,8.551,8.5477,8.5369,8.57,8.6088,8.6088,8.6438,8.6787,8.6787,8.6933,8.7144,8.7203,8.7338,8.7407,8.7407,8.7407,8.7407,8.7407,8.7407,8.7407,8.7407,8.7407,8.7407,8.7407,8.7407,8.7407,8.7407,8.7407,8.7017,8.6158,8.5299,8.4401,8.3543,8.2723,8.2293,8.2293,8.1435,8.0576,7.9717,7.8819,7.796,7.7101,7.7101,7.7101,7.1429,7.117,7.1124,7.0914,7.0898,7.1129,7.2014,7.2206,7.2476,7.3476,7.4207,7.4745,7.4861,7.5476,7.5976,7.5861,7.6553,7.7169,7.7284,7.8631,7.9708,7.9939,8.0631,8.1131,8.1246,8.19,8.2285,8.2285,8.2516,8.2285,8.1477,8.2093,8.2516,8.2631,8.2747,8.317,8.3901,8.3939,8.3939,8.3939,8.3939,8.3939,8.3939,8.3939,8.3939,8.3939,0.0,0.0,8.4171,8.4055,8.4132,8.4277,8.4161,8.4122,8.4005,8.331,8.3038,8.2941,8.2262,8.2126,8.2416,8.3711,8.4727,8.5517,8.6107,8.636,8.6438,8.6397,8.6436,8.6397,8.6355,8.6394,8.6394,8.6394,8.6472,8.6549,8.6549,8.6804,8.7144,8.7347,8.7407,8.7407,8.7407,8.7407,8.7407,8.7407,8.7407,8.7407,8.7407,8.7407,8.7407,8.7407,8.7407,8.7407,8.7407,8.7407,8.7095,8.6314,8.5456,8.4597,8.3699,8.2879,8.2411,8.2293,8.1552,8.0732,7.9873,7.9014,7.8116,7.7257,7.714,7.7101,7.121,7.094,7.0914,7.0898,7.0898,7.1129,7.2014,7.2206,7.2629,7.4168,7.4591,7.4938,7.563,7.5899,7.5745,7.5053,7.5668,7.6476,7.7207,7.813,7.9246,8.0708,8.1016,8.1362,8.2016,8.2208,8.2285,0.0,8.3632,8.4055,8.3208,8.3285,8.3708,8.4439,8.5093,8.5517,8.567,8.567,8.567,8.567,8.567,8.567,8.567,8.567,8.567,8.567,8.567,0.0,8.569,8.4997,8.4759,8.4712,8.398,8.3702,8.3731,8.3708,8.3745,8.3706,8.3775,8.4262,8.4534,8.2745,8.2725,8.3424,8.3543,8.4087,8.4631,8.4436,8.4403,8.4353,8.4185,8.4164,8.4164,8.4164,8.4704,8.5213,8.5213,8.6079,8.695,8.7338,8.7407,8.7407,8.7407,8.7407,8.7407,8.7407,8.7407,8.7407,8.7407,8.7407,8.7407,8.7407,8.7407,8.7407,8.7407,8.7407,8.7329,8.7173,8.6353,8.5495,8.4597,8.3738,8.2996,8.2293,8.2137,8.1669,8.0771,7.9912,7.9014,7.8155,7.7453,7.7101,7.1014,7.0898,7.0898,7.0843,7.1189,7.1727,7.2573,7.3111,7.3803,7.513,7.5399,7.5515,7.5938,7.6015,7.6015,7.6053,7.6746,7.7592,7.8477,7.9323,8.0169,8.1016,8.1477,8.1862,8.2247,8.3131,8.367,8.367,8.4824,8.4978,8.367,8.4439,8.5093,8.5517,8.5901,8.6094,8.6094,8.6094,8.6094,8.6094,8.6094,8.6094,8.6094,8.6094,8.6094,8.6094,8.6094,0.0,8.6055,8.567,8.5517,8.5478,8.5055,8.4901,8.4856,8.455,8.4416,8.4378,8.4016,8.4147,8.4301,8.3102,8.359,8.4692,8.4585,8.4843,8.5164,8.5063,8.5034,8.5043,8.4933,8.4901,8.4901,8.4901,8.5209,8.5549,8.566,8.6145,8.6708,8.7169,8.7263,8.7273,8.7401,8.7407,8.7407,8.7407,8.7407,8.7407,8.7407,8.7407,8.7407,8.7407,8.7407,8.7407,8.7407,8.7407,8.7407,8.7407,8.6588,8.5729,8.4831,8.3972,8.3113,8.2332,8.2293,8.1864,8.1005,8.0146,7.9248,7.839,7.7492,7.7101,7.0871,7.0871,7.0871,7.0787,7.141,7.2293,7.3129,7.3974,7.4888,7.5793,7.6015,7.6015,7.6015,7.6015,7.6207,7.6899,7.7861,7.8746,7.9438,8.0439,8.117,8.1323,8.19,8.2439,8.2824,8.4093,8.4978,8.5132,8.5747,8.5517,8.4209,8.5363,8.6094,8.6094,8.6094,8.6094,8.6094,8.6094,8.6094,8.6094,8.6094,8.6094,8.6094,8.6094,8.6094,8.6094,8.6094,0.0,0.0,8.6094,8.6094,8.6094,8.6094,8.6094,8.6017,8.5427,8.5197,8.5055,8.4419,8.4157,8.4132,8.4132,8.4897,8.5776,8.5613,8.5555,8.5555,8.5555,8.5555,8.5555,8.5555,8.5555,8.5593,8.5786,8.5863,8.596,8.6296,8.6416,8.6505,8.695,8.7064,8.7169,8.7291,8.7354,8.7407,8.7407,8.7407,8.7407,8.7407,8.7407,8.7407,8.7407,8.7407,8.7407,8.7407,8.7407,8.7407,8.7407,8.6744,8.5885,8.4831,8.4128,8.3308,8.2332,8.2293,8.1942,8.1278,8.0381,7.9522,7.8663,7.7765,7.7296,7.0815,7.0815,7.0787,7.0737,7.1321,7.2157,7.3061,7.3974,7.4888,7.5793,7.6015,7.6015,7.6015,7.6015,7.6015,7.6092,7.7438,7.8515,7.8592,8.0054,8.1362,8.2093,8.2247,8.2901,8.4516,8.4824,8.5209,8.594,8.6055,8.6017,8.5901,8.6017,8.6094,8.6094,8.6094,8.6094,8.6094,8.6094,8.6094,8.6094,8.6094,8.6094,8.6094,8.6094,8.6094,8.6094,8.6094,0.0,0.0,8.6094,8.6094,8.6094,8.6094,8.6094,8.6126,8.624,8.6152,8.5973,8.6124,8.6037,8.5863,8.5863,8.4972,8.3849,8.3824,8.3824,8.3824,8.3824,8.3824,8.3824,8.3824,8.3824,8.4016,8.4824,8.5016,8.5267,8.618,8.6416,8.6455,8.6767,8.6989,8.7092,8.7105,8.7273,8.7407,8.7407,8.7407,8.7407,8.7407,8.7407,8.7407,8.7407,8.7407,8.7407,8.7407,8.7407,8.7407,8.7407,8.7329,8.6549,8.487,8.4714,8.3933,8.2332,8.2293,8.2254,8.2176,8.1317,8.042,7.9561,7.8702,7.7843,7.0969,7.0787,7.0758,7.0678,7.1674,7.2778,7.3154,7.4367,7.5503,7.5908,7.6015,7.6015,7.6015,7.6438,7.6938,7.7438,7.8515,7.9477,7.9977,8.1093,8.1939,8.2247,8.3247,8.4132,8.4824,8.5363,8.5747,8.6094,8.6094,8.6094,8.6094,8.6094,8.6094,8.6094,8.6094,8.6094,8.6094,8.6094,8.6094,8.6094,8.6094,8.6094,8.6094,8.6094,8.6094,8.6094,8.6094,0.0,0.0,8.6094,8.6094,8.6094,8.6094,8.6094,8.6094,8.6215,8.6184,8.6094,8.6215,8.6153,8.6094,8.6094,8.5632,8.5093,8.5093,8.5093,8.5093,8.5093,8.5093,8.5093,8.5093,8.5093,8.5209,8.5555,8.5632,8.5742,8.6138,8.6208,8.6298,8.6519,8.6622,8.6728,8.6882,8.7078,8.7203,8.7203,8.7338,8.7407,8.7407,8.7407,8.7407,8.7407,8.7407,8.7407,8.7407,8.7407,8.7407,8.7407,8.7407,8.6861,8.5612,8.5065,8.4245,8.3035,8.2567,8.2293,8.2293,8.1435,8.081,8.0459,7.96,7.8702,7.1334,7.0959,7.0737,7.0585,7.188,7.3169,7.32,7.4605,7.5925,7.5985,7.6015,7.6015,7.6015,7.6707,7.7553,7.8361,7.9246,8.0092,8.0977,8.1785,8.2401,8.2631,8.3945,8.4945,8.5247,8.5786,8.6094,8.6094,8.6094,8.6094,8.6094,8.6094,8.6094,8.6094,8.6094,8.6094,8.6094,8.6094,8.6094,8.6094,8.6094,8.6094,8.6094,8.6094,8.6094,8.6094,8.6094,0.0,0.0,8.6094,8.6094,8.6094,8.6094,8.6094,8.6094,8.6094,8.6094,8.6094,8.6094,8.6094,8.6094,8.6094,8.6094,8.6094,8.6094,8.6094,8.6094,8.6094,8.6094,8.6094,8.6094,8.6094,8.6094,8.6094,8.6094,8.6094,8.6094,8.6094,8.612,8.6288,8.6362,8.6468,8.6661,8.6864,8.7035,8.7078,8.7203,8.7338,8.7401,8.7407,8.7407,8.7407,8.7407,8.7407,8.7407,8.7407,8.7407,8.7407,8.7407,8.7017,8.6158,8.526,8.4401,8.3504,8.2723,8.2293,8.2293,8.1669,8.1239,8.0966,8.0107,7.9092,7.1973,7.1298,7.0554,7.0451,7.1746,7.3105,7.32,7.4605,7.5925,7.5985,7.6015,7.6015,7.6015,7.6707,7.7553,7.8361,7.9246,8.0092,8.0977,8.1785,8.2631,8.3478,8.4258,8.507,8.6017,8.6094,8.6094,8.6094,8.6094,0.0,8.6094,8.6094,8.6094,8.6094,8.6094,8.6094,8.6094,8.6094,8.6094,8.6094,8.6094,8.6094,8.6094,8.6094,8.6094,0.0,0.0,0.0,0.0,8.6094,8.6094,8.6094,8.6094,8.6094,8.6094,8.6094,8.6094,8.6094,8.6094,8.6094,8.6094,8.6094,8.6094,8.6094,8.6094,8.6094,8.6094,8.6094,8.6094,8.6094,8.6094,8.6094,8.6094,8.6094,8.6094,8.6094,8.6094,8.6094,8.6094,8.6094,8.6259,8.6416,8.6416,8.6638,8.6864,8.7064,8.7092,8.7181,8.7354,8.7407,8.7407,8.7407,8.7407,8.7407,8.7407,8.7407,8.7407,8.7407,8.7407,8.7017,8.6158,8.526,8.4401,8.3504,8.2723,8.2293,8.2293,8.2293,8.1825,8.0966,8.0107,7.878,7.2908,7.2264,7.1735,7.2154,7.3176,7.4113,7.4082,7.5027,7.5925,7.5985,7.5955,7.6148,7.6784,7.7553,7.84,7.9246,8.0131,8.0977,8.1785,8.2567,8.3413,8.4362,8.5142,8.5689,8.5992,8.5958,8.5887,8.5887,8.5887,8.5887,8.5887,8.5887,8.5958,8.6094,8.6094,8.6094,8.6094,8.6094,8.6094,8.6094,8.6094,8.6094,8.6094,8.6094,8.6094,0.0,0.0,0.0,0.0,8.6094,8.6094,8.6094,8.6094,8.6094,8.6094,8.6094,8.6094,8.6094,8.6094,8.6094,8.6094,8.6094,8.6094,8.6094,8.6094,8.6094,8.6094,8.6094,8.6094,8.6094,8.6094,8.6094,8.6094,8.6094,8.6094,8.6094,8.6094,8.6094,8.6094,8.6094,8.6153,8.6177,8.6177,8.6401,8.6638,8.6845,8.702,8.7181,8.7354,8.7407,8.7407,8.7407,8.7407,8.7407,8.7407,8.7407,8.7407,8.7407,8.7407,8.729,8.7017,8.6158,8.5299,8.4401,8.3543,8.284,8.2293,8.2293,8.2176,8.1864,8.0381,7.9717,7.3812,7.3176,7.2609,7.299,7.3852,7.4528,7.4472,7.5187,7.5895,7.5887,7.5895,7.6164,7.707,7.7908,7.8754,7.9669,8.0484,8.1298,8.2144,8.2885,8.385,8.504,8.5616,8.5887,8.589,8.5815,8.5815,8.5815,8.5815,8.5815,8.5815,8.5815,8.5852,8.5992,8.6026,8.606,8.606,8.606,8.6094,8.6094,8.6094,8.6094,8.6094,8.6094,8.6094,0.0,0.0,0.0,0.0,8.6094,8.6094,8.6094,8.6094,8.6094,8.6094,8.6094,8.6094,8.6094,8.6094,8.6094,8.6094,8.6094,8.6094,8.6094,8.6094,8.6094,8.6094,8.6094,8.6094,8.6094,8.6094,8.6094,8.6094,8.6094,8.6094,8.6094,8.6094,8.6094,8.6094,8.6094,8.6094,8.6094,8.6094,8.6177,8.6373,8.6615,8.6787,8.695,8.7263,8.7282,8.733,8.7401,8.7407,8.7407,8.7407,8.7407,8.7407,8.7407,8.7407,8.7407,8.7407,8.6549,8.569,8.4831,8.3933,8.3113,8.2293,8.2293,8.2137,8.1786,8.1044,8.0615,0.0,7.3991,7.3315,7.3297,7.3942,7.4549,7.4522,7.5232,0.0,7.5724,7.5833,7.6209,7.7047,7.7892,7.8807,7.9715,8.0498,8.131,8.216,8.2975,8.4016,8.5514,8.5742,8.5779,8.5705,8.5742,8.5779,8.5779,8.5779,8.5779,8.5779,8.5779,8.5779,8.5779,8.5887,8.5996,8.5996,8.6026,8.6094,8.6094,8.6094,8.6094,8.6094,8.6094,8.6094,0.0,0.0,0.0,0.0,8.6094,8.6094,8.6094,8.6094,8.6094,8.6094,8.6094,8.6094,8.6094,8.6094,8.6094,8.6094,8.6094,8.6094,8.6094,8.6094,8.6094,8.6094,8.6094,8.6094,8.6094,8.6094,8.6094,8.6094,8.6094,8.6094,8.6094,8.6094,8.6094,8.6094,8.6094,8.6094,8.6094,8.6094,8.6094,8.6153,8.6362,8.6416,8.6576,8.705,8.7092,8.7181,8.7401,8.7407,8.7407,8.7407,8.7407,8.7407,8.7407,8.7407,8.7407,8.7407,8.6627,8.5768,8.4909,8.3972,8.3113,8.2293,8.2293,8.1864,8.1122,8.1864,8.1356,7.5588,0.0,7.4405,7.4964,7.5271,7.5392,0.0,7.5518,7.5666,7.5692,7.6235,7.6963,7.7899,7.8711,7.9555,8.0465,8.1244,8.2054,8.2936,8.4282,8.5319,8.5666,8.5704,8.5743,8.5705,8.5628,8.559,8.559,8.559,8.559,8.559,8.559,8.559,8.559,8.5704,8.5854,8.5996,8.6031,8.6065,8.6094,8.6094,8.6094,8.6094,8.6094,8.6094,0.0,0.0,0.0,8.6094,8.6094,8.6094,8.6094,8.6094,8.6094,8.6094,8.6094,8.6094,8.6094,8.6094,8.6094,8.6094,8.6094,8.6094,8.6094,8.6094,8.6094,8.6094,8.6094,8.6094,8.6094,8.6094,8.6094,8.6094,8.6094,8.6094,8.6094,8.6094,8.6094,8.6094,8.6094,8.6094,8.6094,8.6094,8.6094,8.6153,8.6362,8.6416,8.6576,8.705,8.7092,8.7181,8.7401,8.7407,8.7407,8.7407,8.7407,8.7407,8.7407,8.7407,8.7407,8.7407,8.7212,8.6666,8.5807,8.4284,8.3113,8.2293,8.2293,8.2176,8.1981,8.1513,8.1435,7.5794,7.5518,7.525,7.5584,7.5628,7.5633,7.5566,7.5566,7.5714,7.6059,7.6556,7.7318,7.8607,7.9186,7.9876,8.1205,8.1713,8.2373,8.3561,8.4863,8.5667,8.559,8.559,8.559,0.0,8.5551,8.5511,8.5511,8.5511,8.5511,8.5511,8.5511,8.5511,8.5511,8.5551,8.5667,8.5854,8.5887,8.5923,8.5958,8.6026,8.6026,8.6065,8.606,8.6094,0.0,0.0,0.0,8.6094,8.6094,8.6094,8.6094,8.6094,8.6094,8.6094,8.6094,8.6094,8.6094,8.6094,8.6094,8.6094,8.6094,8.6094,8.6094,8.6094,8.6094,8.6094,8.6094,8.6094,8.6094,8.6094,8.6094,8.6094,8.6094,8.6094,8.6094,8.6094,8.6094,8.6094,8.6094,8.6094,8.6094,8.6094,8.6094,8.6159,8.6268,8.623,8.6362,8.6728,8.6899,8.705,8.7253,8.7347,8.7407,8.7407,8.7407,8.7407,8.7407,8.7407,8.7407,8.7407,8.7407,8.6783,8.5534,8.4167,8.3113,8.2293,8.2293,8.2293,8.2293,8.1825,8.1864,7.5507,7.5686,7.5801,7.5633,7.5599,7.5566,7.5535,7.5532,7.5795,7.6532,7.6908,7.7552,7.9121,7.9504,8.0078,8.1716,8.2143,8.276,8.425,8.5053,8.5511,8.5511,8.5511,8.5511,8.5511,8.5511,8.5511,8.5511,8.5511,8.5511,8.5511,8.5511,8.5511,8.5511,8.5511,8.5551,8.5667,8.5742,8.5815,8.5815,8.5887,8.5996,8.5996,8.6026,8.606,0.0,0.0,0.0,8.6094,8.6094,8.6094,8.6094,8.6094,8.6094,8.6094,8.6094,8.6094,8.6094,8.6094,8.6094,8.6094,8.6094,8.6094,8.6094,8.6094,8.6094,8.6094,8.6094,8.6094,8.6094,8.6094,8.6094,8.6094,8.6094,8.6094,8.6094,8.6094,8.6094,8.6094,8.6094,8.6094,8.6094,8.6094,8.6094,8.6094,8.6094,8.6209,8.6338,8.6362,8.6731,8.6982,8.7078,8.7263,8.7354,8.7407,8.7407,8.7407,8.7407,8.7407,8.7407,8.7407,8.7407,8.6627,8.5026,8.4128,8.3308,8.2489,8.2371,8.2293,8.2293,8.2293,8.2293,7.479,7.5097,7.5633,7.5599,7.5532,7.5535,7.5501,7.5535,7.5765,7.6532,7.7296,7.8135,7.9198,7.9891,8.0695,8.1724,8.3027,8.425,8.5206,8.5435,8.5511,8.5511,8.5511,8.5511,8.5511,8.5511,8.5511,8.5511,8.5511,8.5511,8.5511,8.5511,8.5511,8.5511,8.5511,8.5511,8.5551,8.5628,8.5742,8.5815,8.5815,8.5852,8.5852,8.5961,8.6031,0.0,0.0,8.6094,8.6094,8.6094,8.6094,8.6094,8.6094,8.6094,8.6094,8.6094,8.6094,8.6094,8.6094,8.6094,8.6094,8.6094,8.6094,8.6094,8.6094,8.6094,8.6094,8.6094,8.6094,8.6094,8.6094,8.6094,8.6094,8.6094,8.6094,8.6094,8.6094,8.6094,8.6094,8.6094,8.6094,8.6094,8.6094,8.6094,8.6094,8.6094,8.6748,8.7032,8.6478,8.7062,8.7436,8.7142,8.7144,8.7203,8.7401,8.7407,8.7407,8.7407,8.7407,8.7407,8.7407,8.7407,8.6939,8.5924,8.5026,8.4167,8.3308,8.2645,8.2293,8.2293,8.2293,8.2293,7.514,7.5298,7.557,7.557,7.5497,7.5501,7.5501,7.5844,7.6379,7.722,7.8099,7.8976,7.9853,8.0658,8.1614,8.2989,8.3831,8.4594,8.5397,8.5511,8.5511,0.0,0.0,8.5511,8.5511,8.5511,8.5511,8.5511,0.0,0.0,8.5511,8.5511,8.5511,8.5511,8.5511,8.5511,8.5511,8.5551,8.559,8.5667,8.5704,8.5742,8.5742,8.5852,8.5923,8.5996,0.0,8.6099,8.6094,8.6094,8.6094,8.6094,8.6094,8.6094,8.6094,8.6094,8.6094,8.6094,8.6094,8.6094,8.6094,8.6094,8.6094,8.6094,8.6094,8.6094,8.6094,8.6094,8.6094,8.6094,8.6094,8.6094,8.6094,8.6094,8.6094,8.6094,8.6094,8.6094,8.6094,8.6094,8.6094,8.6094,8.6094,8.6478,8.6786,8.6786,8.7555,8.8007,8.7704,8.7659,8.7617,8.7425,8.7222,8.7157,8.7214,8.7338,8.7407,8.7407,8.7407,8.7407,8.7407,8.7407,8.6978,8.6119,8.5729,8.4831,8.3504,8.3113,8.2723,8.2293,8.2293,8.2293,7.5302,7.5379,7.5424,7.5233,7.5501,7.573,7.5539,7.6112,7.6953,7.7831,7.8519,7.936,8.0582,8.1652,8.2798,8.4098,8.4441,8.4785,8.5397,8.5511,8.5511,8.5511,8.5511,8.5511,8.5511,8.5511,8.5511,8.5511,0.0,0.0,8.5511,8.5511,8.5511,8.5511,8.5511,8.5511,8.5511,8.5511,8.5511,8.5511,8.5667,8.5705,8.5705,8.5779,8.5852,8.5923,8.5996,8.6031,8.606,8.6094,8.6094,8.6094,8.6094,8.6094,8.6094,8.6094,8.6094,8.6094,8.6094,8.6094,8.6094,8.6094,8.6094,8.6094,8.6094,8.6094,8.6094,8.6094,8.6094,8.6094,8.6094,8.6094,8.6094,8.6094,8.6094,8.6094,8.6094,8.6094,8.617,8.6363,8.6401,8.6478,8.6671,8.7248,8.7709,8.7709,8.844,8.8902,8.8709,8.8244,8.7881,8.7704,8.7312,8.7064,8.7169,8.7291,8.7407,8.7407,8.7407,8.7407,8.7407,8.7407,8.7095,8.6431,8.6197,8.5456,8.4128,8.3699,8.3191,8.2567,8.2371,8.2293,7.4507,7.4889,7.531,7.4507,7.5462,7.6418,7.5653,7.6112,7.6953,7.7831,7.8061,7.8825,8.127,8.3028,8.4174,8.4289,8.4938,8.5435,8.5511,0.0,8.5511,8.5511,8.5511,8.5511,8.5511,8.5511,8.5511,0.0,0.0,0.0,8.5511,8.5511,8.5511,8.5511,8.5511,8.5511,8.5511,8.5511,8.5511,8.5511,8.5667,8.5705,8.5705,8.5779,8.5815,8.5815,8.5961,8.5996,8.6031,8.606,8.6094,8.6094,8.6094,8.6094,8.6094,8.6094,8.6094,8.6094,8.6094,8.6094,8.6094,8.6094,8.6094,8.6094,8.6094,8.6094,8.6094,8.6094,8.6094,8.6094,8.6094,8.6094,8.6094,8.6094,8.6094,8.6094,8.6094,8.6094,8.6324,8.7132,8.7325,8.7555,8.8363,8.8556,8.8594,8.8594,8.9286,8.9556,8.8786,8.8666,8.8374,8.7782,8.7165,8.695,8.7347,8.7401,8.7407,8.7407,8.7407,8.7407,8.7407,8.7407,8.7368,8.7329,8.651,8.6041,8.5924,8.4284,8.3465,8.3386,8.2645,8.2293,7.508,7.5233,7.5539,7.5692,7.6647,7.7144,7.5806,7.6693,7.7908,7.8172,7.9125,8.0576,8.2913,8.2846,8.3006,8.4782,8.4542,8.4496,8.5395,8.5511,8.5511,8.5511,8.5511,8.5511,8.5511,8.5511,8.5511,0.0,0.0,0.0,8.5511,8.5511,8.5511,8.5511,8.5511,8.5511,8.5511,8.5511,8.5511,8.5511,8.5551,8.5551,8.559,8.559,8.5667,8.5742,8.5817,8.589,8.5996,8.6031,8.606,8.6094,8.6094,8.6094,8.6094,8.6094,8.6094,8.6094,8.6094,8.6094,8.6094,8.6094,8.6478,8.6901,8.6901,8.7286,8.7709,8.7709,8.7709,8.7594,8.7055,8.6901,8.7055,8.7594,8.7709,8.7709,8.7709,8.7709,8.7825,8.8132,8.8209,8.8286,8.8632,8.9094,8.944,8.944,9.0171,9.0402,8.9556,8.9017,8.843,8.7596,8.711,8.6899,8.7192,8.7338,8.7407,8.7407,8.7407,8.7407,8.7407,8.7407,8.7407,8.7407,8.7095,8.6627,8.608,8.4909,8.4011,8.3465,8.2684,8.2293,7.5501,7.5692,7.5997,7.657,7.7416,7.7875,7.6693,7.7645,7.866,7.8239,7.9751,8.1627,8.3112,8.2868,8.2982,8.4957,8.461,8.442,8.5357,8.5511,8.5511,8.5511,8.5511,8.5511,8.5511,8.5511,8.5511,0.0,0.0,0.0,0.0,8.5511,8.5511,8.5511,8.5511,8.5511,8.5511,8.5511,8.5511,8.5511,8.5511,8.5511,8.5551,8.5858,8.6011,8.6088,8.6394,8.6622,8.6732,8.6729,8.6799,8.6868,8.6901,8.6868,8.6868,8.694,8.6901,8.6901,8.6901,8.6901,8.6901,8.6901,8.7325,8.7825,8.7825,8.8209,8.8709,8.8709,8.8709,8.8632,8.8286,8.8017,8.794,8.8556,8.8709,8.8709,8.8709,8.8709,8.8786,8.9017,8.9094,8.9171,8.944,8.994,9.0325,9.0325,9.0825,9.0902,9.0017,8.921,8.8282,8.7218,8.6855,8.6807,8.7078,8.7253,8.7338,8.7407,8.7407,8.7407,8.7407,8.7407,8.7407,8.7407,8.7407,8.7095,8.651,8.5651,8.4753,8.3894,8.3074,8.2528,7.5501,7.6074,7.6685,7.6685,7.7607,7.8452,7.8414,7.8861,7.9018,7.7956,7.9717,8.1407,8.1407,8.3208,8.4711,8.4711,8.5148,8.5471,8.5511,8.5511,8.5511,8.5511,8.5511,8.5511,8.5511,8.5511,8.5511,0.0,0.0,0.0,0.0,8.5511,8.5511,8.5511,8.5511,8.5511,8.5511,8.5511,8.5511,8.5511,8.5511,8.5551,8.5743,8.666,8.7044,8.6968,8.7964,8.8309,8.8231,8.842,8.8493,8.8493,8.8637,8.8602,8.8493,8.8637,8.8709,8.8709,8.8709,8.8709,8.8709,8.8709,8.8709,8.8709,8.8709,8.8709,8.8709,8.8709,8.8709,8.8902,8.971,8.9325,8.8709,8.8709,8.8709,8.8709,8.8709,8.8709,8.894,8.9748,8.9902,9.021,9.1056,9.121,9.121,9.121,9.121,9.0902,9.0017,8.9171,8.8072,8.6556,8.6416,8.6576,8.7064,8.7092,8.7181,8.7362,8.7407,8.7407,8.7407,8.7407,8.7407,8.7407,8.7407,8.7407,8.7407,8.6549,8.5651,8.4792,8.3894,8.3074,7.5501,7.5817,7.6156,7.6196,7.7489,7.8538,7.7591,7.8391,7.9552,8.043,8.0893,8.154,8.2901,8.3004,0.0,8.4041,8.39,8.4003,8.4848,8.4937,8.5105,8.5471,8.5511,8.5511,8.5511,8.5511,8.5511,0.0,0.0,0.0,0.0,8.5511,8.5511,8.5511,8.5511,8.5511,8.5511,8.5511,8.5511,8.5511,8.6123,8.6428,8.6468,8.6775,8.7196,8.7768,8.8037,8.8192,8.8193,8.8385,8.8422,8.8422,8.8531,8.8567,8.8493,8.8637,8.8709,8.8709,8.8709,8.8709,8.8709,8.8709,8.9094,8.9556,8.9556,8.9979,9.0441,9.0441,9.0441,9.0517,9.0748,9.0633,9.0441,9.0441,9.0441,9.0441,9.0441,9.0441,9.0517,9.0787,9.0825,9.0902,9.1171,9.121,9.121,9.121,9.121,9.0671,8.9248,8.7786,8.6704,8.6223,8.6317,8.6468,8.6599,8.6917,8.7144,8.7181,8.7338,8.7407,8.7407,8.7407,8.7407,8.7407,8.7407,8.7407,8.7407,8.6549,8.5651,8.4792,8.3894,8.3074,7.5626,7.6004,7.6516,7.7024,7.7888,7.8379,7.7718,7.8027,7.8957,8.0485,8.0701,8.0971,8.2458,8.2608,0.0,8.3452,8.3452,8.3618,8.4292,8.4533,8.4803,8.5148,8.5352,8.5511,8.5511,8.5511,8.5511,0.0,0.0,0.0,0.0,8.5511,8.5511,8.5511,8.5511,8.5511,8.5511,8.5855,8.6008,8.6046,8.6887,8.7498,8.7804,8.7844,8.815,8.8606,8.895,8.9106,8.9188,8.9305,8.9305,8.9343,8.9419,8.9418,8.9381,8.9566,8.9601,8.9636,8.9671,8.9671,8.9671,8.9671,9.0017,9.0441,9.0441,9.0787,9.121,9.121,9.121,9.121,9.121,9.121,9.121,9.121,9.121,9.121,9.121,9.121,9.121,9.121,9.121,9.121,9.121,9.121,9.121,9.121,9.0633,8.9825,8.8825,8.7171,8.6094,8.6094,8.6208,8.6317,8.6389,8.6666,8.6882,8.695,8.7181,8.7273,8.7273,8.7354,8.7407,8.7407,8.7407,8.7407,8.7407,8.6861,8.6002,8.4792,8.4245,8.3386,7.581,7.6478,7.7326,7.844,7.8379,7.8125,7.8492,7.8002,7.7855,7.9163,7.9718,8.0167,8.0975,8.2105,8.2913,8.2913,8.3396,8.3779,8.3832,8.4292,8.4665,8.4673,8.5148,8.5511,8.5511,8.5511,8.5511,0.0,0.0,0.0,0.0,8.5511,8.5511,8.5511,8.5511,8.555,8.5626,8.639,8.6849,8.6925,8.7804,8.8606,8.9294,8.9414,8.9452,8.9447,9.0249,9.0635,9.0679,9.0679,9.0679,9.0719,9.0799,9.0799,9.0719,9.0953,9.0991,9.1028,9.1136,9.121,9.121,9.121,9.121,9.121,9.121,9.121,9.121,9.121,9.121,9.121,9.121,9.121,9.121,9.121,9.121,9.121,9.121,9.121,9.121,9.121,9.121,9.121,9.121,9.121,9.1171,9.1095,8.971,8.8671,8.8594,8.7132,8.6094,8.6094,8.6094,8.6184,8.6335,8.6389,8.6519,8.6747,8.695,8.7078,8.7078,8.7282,8.7407,8.7407,8.7407,8.7407,8.7407,8.7407,8.6549,8.4909,8.4831,8.3933,7.5728,7.5952,7.6252,7.7101,7.7402,7.7707,7.8405,7.8442,7.8798,8.032,8.0735,8.0975,8.1782,8.2169,8.2343,8.2343,8.2434,8.2708,8.3111,8.3726,8.4242,8.4627,8.5148,8.5511,8.5511,8.5511,8.5511,0.0,0.0,0.0,8.5511,8.5511,8.5511,8.5511,8.5511,8.5855,8.6505,8.6734,8.7154,0.0,8.8644,8.9141,8.9294,8.9335,8.9676,9.0326,9.0517,9.0593,9.0635,9.0635,9.0635,9.0635,9.0719,9.0719,9.0719,9.0838,9.0915,9.0915,9.1028,9.1064,9.1064,9.1175,9.121,9.121,9.121,9.121,9.121,9.121,9.121,9.121,9.121,9.121,9.121,9.121,9.121,9.121,9.121,9.121,9.121,9.121,9.121,9.121,9.121,9.121,9.0979,9.0287,8.9325,8.844,8.7786,8.6748,8.6094,8.6094,8.6094,8.6126,8.6153,8.6317,8.6442,8.6494,8.6726,8.6864,8.6864,8.7203,8.7407,8.7407,8.7407,8.7407,8.7407,8.7407,8.6861,8.5807,8.5104,8.4245,7.5998,7.6169,7.6495,7.7472,7.8136,7.8626,7.9066,7.9176,7.9507,8.0755,8.1012,8.1269,8.2039,8.2186,8.2186,8.2186,8.2186,8.2316,8.2622,8.334,8.3989,8.4292,8.5018,8.5511,8.5511,8.5511,8.5511,8.5511,0.0,8.5511,8.5511,8.5511,8.5511,8.5511,8.5511,8.5932,8.681,8.7231,8.7842,8.8683,8.9523,8.9944,8.9944,8.9944,9.0173,9.0593,9.0593,9.0593,9.0593,9.0593,9.0593,9.0593,9.0635,9.0638,9.0638,9.0759,9.0799,9.0799,9.0915,9.0991,9.0989,9.11,9.1175,9.121,9.121,9.121,9.121,9.121,9.121,9.121,9.121,9.121,9.121,9.121,9.121,9.121,9.121,9.121,9.121,9.121,9.121,9.121,9.121,9.121,9.0902,9.0056,8.921,8.8402,8.7517,8.6632,8.6094,8.6094,8.6094,8.6094,8.6094,8.6215,8.6268,8.6268,8.6468,8.6615,8.6615,8.6933,8.7169,8.7263,8.7347,8.7407,8.7407,8.7407,8.6939,8.608,8.5221,8.4323,7.6365,7.7005,7.7809,7.8603,7.9286,7.98,7.98,7.98,8.0021,8.0828,8.1122,8.1415,8.2076,8.2186,8.2186,8.2186,8.2186,8.2186,8.2186,8.309,8.3779,8.3885,8.4757,8.5393,8.5511,8.5511,8.5511,8.5511,0.0,8.5511,8.5511,8.5511,8.5588,8.5741,8.5741,8.6199,8.7231,8.7957,8.8721,8.9523,9.0249,9.0593,9.0593,9.0593,9.0593,9.0593,9.0593,9.0593,9.0593,9.0593,9.0593,9.0593,9.0593,9.0593,9.0593,9.0638,9.0679,9.0679,9.0799,9.0915,9.0952,9.0991,9.1064,9.1175,9.1175,9.121,9.121,9.121,9.121,9.121,9.121,9.121,9.121,9.121,9.121,9.121,9.121,9.121,9.121,9.121,9.121,9.121,9.121,9.1095,9.0671,8.9825,8.9017,8.8171,8.7286,8.6555,8.6094,8.6094,8.6094,8.6094,8.6094,8.6094,8.6094,8.6094,8.6268,8.6335,8.6335,8.6592,8.6807,8.6966,8.7214,8.7347,8.7347,8.7362,8.7017,8.6314,8.5299,8.4401,7.6452,7.8639,8.0331,7.9764,7.969,7.98,7.98,7.98,8.0021,8.0828,8.1562,8.2076,8.2186,8.2186,8.2186,8.2186,8.2186,8.2186,8.2186,8.2708,8.334,8.3832,8.4438,8.498,8.5433,8.5511,8.5511,8.5511,8.5511,8.5511,8.5511,8.5511,8.5855,8.6619,8.6658,8.7384,8.895,8.9065,8.9561,9.044,9.0555,9.0593,9.0593,9.0593,9.0593,9.0593,9.0593,9.0593,9.0593,9.0593,9.0593,9.0593,9.0593,9.0593,9.0593,9.0593,9.0593,9.0635,9.0679,9.0759,9.0759,9.0877,9.0953,9.1028,9.1028,9.11,9.121,9.121,9.121,9.121,9.121,9.121,9.121,9.121,9.121,9.121,9.121,9.121,9.121,9.121,9.121,9.121,9.121,9.0556,8.9787,8.8979,8.8132,8.7248,8.6401,8.617,8.6094,8.6094,8.6094,8.6094,8.6094,8.6094,8.6094,8.6094,8.6126,8.612,8.612,8.6346,8.6494,8.648,8.6933,8.7157,8.7157,8.733,8.7329,8.7173,8.5573,8.4753,7.6749,7.8664,8.0241,7.9874,7.98,8.0021,8.0938,8.0424,8.0131,8.1415,8.1929,8.2186,8.2186,8.2186,8.2186,8.2186,8.2186,8.2186,8.2186,8.2647,8.3111,8.334,8.4193,8.4803,8.5062,8.5311,8.5511,8.5511,8.5511,8.5511,8.5511,8.597,8.639,8.681,8.7269,8.811,8.9294,8.9294,8.9752,9.0593,9.0593,9.0593,9.0593,9.0593,9.0593,9.0593,9.0593,9.0593,9.0593,9.0593,9.0593,9.0593,9.0593,9.0593,9.0593,9.0593,9.0593,9.0593,9.0635,9.0679,9.0719,9.0759,9.0838,9.0953,9.0953,9.1028,9.11,9.11,9.1136,9.121,9.121,9.121,9.121,9.121,9.121,9.121,9.121,9.121,9.121,9.121,9.121,9.1056,9.0556,9.0171,8.9479,8.8171,8.7632,8.7094,8.6209,8.6094,8.6094,8.6094,8.6094,8.6094,8.6094,8.6094,8.6094,8.6094,8.6094,8.6094,8.6094,8.6184,8.6238,8.6238,8.6704,8.7005,8.7092,8.7192,8.7282,8.7368,8.5612,8.4792,7.7353,7.8993,8.0351,8.0131,8.0094,8.0461,8.1856,8.1085,8.0498,8.1893,8.2186,8.2186,8.2186,8.2186,8.2186,8.2186,8.2186,8.226,8.248,8.267,8.2927,8.3292,8.3854,8.439,8.4673,8.5062,8.5352,8.5511,8.5511,8.5588,8.5817,8.6467,8.7001,8.7422,8.8071,8.8797,8.9638,8.9638,8.9982,9.0593,9.0593,9.0593,9.0593,9.0593,9.0593,9.0593,9.0593,9.0593,9.0593,9.0593,9.0593,9.0593,9.0593,9.0593,9.0593,9.0593,9.0593,9.0593,9.0593,9.0635,9.0679,9.0679,9.0759,9.0877,9.0915,9.0953,9.1028,9.1064,9.11,9.121,9.121,9.121,9.121,9.121,9.121,9.121,9.121,9.121,9.121,9.121,9.121,9.0941,9.0056,8.9748,8.9094,8.7632,8.7209,8.6824,8.617,8.6094,8.6094,8.6094,8.6094,8.6094,8.6094,8.6094,8.6094,8.6094,8.6094,8.6094,8.6094,8.6094,8.6094,8.6094,8.6455,8.6726,8.6933,8.6981,8.7092,8.7224,8.5468,8.4649,7.8295,8.0277,8.1893,8.1122,8.0938,8.1158,8.2003,8.1562,8.1195,8.2039,8.2186,8.2186,8.2186,8.2186,8.2186,8.2186,8.2186,8.248,8.3251,8.2663,8.2729,8.4012,8.3536,8.3525,8.458,8.4757,8.4937,8.5471,8.5511,8.5855,8.6696,8.6772,8.7536,8.9141,8.9218,8.9638,9.0517,9.0555,9.0555,9.0593,9.0593,9.0593,9.0593,9.0593,9.0593,9.0593,9.0593,9.0593,9.0593,9.0593,9.0593,9.0593,9.0593,9.0593,9.0593,9.0593,9.0593,9.0593,9.0593,9.0593,9.0593,9.0593,9.0676,9.0719,9.0838,9.0953,9.1028,9.1136,9.121,9.121,9.121,9.121,9.121,9.121,9.121,9.121,9.121,9.121,9.121,9.121,9.121,9.0941,9.0056,8.9286,8.844,8.7555,8.6709,8.617,8.6094,8.6094,8.6094,8.6094,8.6094,8.6094,8.6094,8.6094,8.6094,8.6094,8.6094,8.6094,8.6094,8.6094,8.6094,8.6094,8.6126,8.6238,8.6442,8.6704,8.6807,8.6787,8.5039,8.4204,7.8846,8.0388,8.1379,8.1085,8.1012,8.1232,8.2003,8.1562,8.1232,8.2039,8.2186,8.2186,8.2186,8.2186,8.2186,8.2186,8.2186,8.248,8.3287,8.27,8.2702,8.4049,8.3825,8.3847,8.4627,8.498,8.554,8.6273,8.6352,8.6734,8.7575,8.811,8.8683,8.9294,8.9829,9.0287,9.0593,9.0593,9.0593,9.0593,9.0593,9.0593,9.0593,9.0593,9.0593,9.0593,9.0593,9.0593,9.0593,9.0593,9.0593,9.0593,9.0593,9.0593,9.0593,9.0593,9.0593,9.0593,9.0593,9.0593,9.0593,9.0593,9.0593,9.0635,9.0676,9.0837,9.0953,9.0992,9.1103,9.121,9.121,9.121,9.121,9.121,9.121,9.121,9.121,9.121,9.121,9.121,9.0748,9.0094,8.9286,8.844,8.7555,8.6709,8.6286,8.6094,8.6094,8.6094,8.6094,8.6094,8.6094,8.6094,8.6094,8.6094,8.6094,8.6094,8.6094,8.6094,8.6094,8.6094,8.6094,8.6094,8.6094,8.6215,8.6416,8.6519,8.6328,8.5933,8.4767,8.3913,7.9323,8.0571,8.1342,8.1085,8.1195,8.1525,8.2076,8.1782,8.1562,8.2076,8.2186,8.2186,8.2186,8.2186,8.2186,8.2186,8.2443,8.281,8.3324,8.2957,8.2969,8.3855,8.3711,8.3907,8.4767,8.531,8.6112,8.7192,8.7231,0.0,8.8453,8.9027,8.9447,8.9752,9.0326,9.0593,9.0593,9.0593,9.0593,9.0593,9.0593,9.0593,9.0593,9.0593,9.0593,9.0593,9.0593,9.0593,9.0593,9.0593,9.0593,9.0593,9.0593,9.0593,9.0593,9.0593,9.0593,9.0593,9.0593,9.0593,9.0593,9.0593,9.0593,9.0593,9.0635,9.0758,9.0915,9.0915,9.1028,9.121,9.121,9.121,9.121,9.121,9.121,9.121,9.121,9.121,9.121,9.121,9.0748,9.0056,8.9248,8.8402,8.7555,8.6671,8.6286,8.6094,8.6094,8.6094,8.6094,8.6094,8.6094,8.6094,8.6094,8.6094,8.6094,8.6094,8.6094,8.6094,8.6094,8.6094,8.6094,8.6094,8.6094,8.6153,8.6288,8.6288,8.5937,8.5265,8.4413,8.3413,0.0,0.0,0.0,8.1232,8.1636,8.2186,8.2186,8.2186,8.2186,8.2186,8.2186,8.2186,8.2186,8.2186,8.2186,8.2223,8.2884,8.3434,8.3434,8.3434,8.3434,8.3434,8.3226,8.3619,8.5049,8.5723,8.6647,8.803,8.8148,8.8492,8.9294,8.9332,8.9752,9.0593,9.0593,9.0593,9.0593,9.0593,9.0593,9.0593,9.0593,9.0593,9.0593,9.0593,9.0593,9.0593,9.0593,9.0593,9.0593,9.0593,9.0593,9.0593,9.0593,9.0593,9.0593,9.0593,9.0593,9.0593,9.0593,9.0593,9.0593,9.0593,9.0593,9.0593,9.0679,9.0799,9.0877,9.0991,9.11,9.121,9.121,9.121,9.121,9.121,9.121,9.121,9.121,9.121,9.121,9.121,9.1171,9.0902,9.0056,8.9248,8.8402,8.7517,8.6671,8.6132,8.6094,8.6094,8.6094,8.6094,8.6094,8.6094,8.6094,8.6094,8.6094,8.6094,8.6094,8.6094,8.6094,8.6094,8.6094,8.6094,8.6094,8.6094,8.6094,8.6094,8.567,8.4863,8.3939,8.2776,8.1195,0.0,0.0,0.0,0.0,0.0,8.2186,8.2186,8.2186,8.2186,8.2186,8.2186,8.2186,8.2186,8.237,8.2994,8.3251,8.3618,8.4205,8.3765,8.3778,8.4706,8.4663,8.5049,8.6517,8.7141,8.7909,0.0,8.8988,8.9332,9.0211,9.0249,9.0364,9.0593,9.0593,9.0593,9.0593,9.0593,9.0593,9.0593,9.0593,9.0593,9.0593,9.0593,9.0593,9.0593,9.0593,9.0593,9.0593,9.0593,9.0593,9.0593,9.0593,9.0593,9.0593,9.0593,9.0593,9.0593,9.0593,9.0593,9.0593,9.0593,9.0593,9.0593,9.0635,9.0758,9.0915,9.0915,9.1066,9.121,9.121,9.121,9.121,9.121,9.121,9.121,9.121,9.121,9.121,9.121,9.071,9.0171,8.994,8.9248,8.8402,8.7517,8.7171,8.6824,8.617,8.6094,8.6094,8.6094,8.6094,8.6094,8.6094,8.6094,8.6094,8.6094,8.6094,8.6094,8.6094,8.6094,8.6094,8.6094,8.6094,8.6094,8.6094,8.5517,8.4786,8.3901,8.2477,8.1578,0.0,0.0,8.2186,8.2186,0.0,0.0,8.2186,8.2186,8.2186,8.2186,8.2186,8.2186,8.2186,8.2186,8.2443,8.3287,8.3691,8.4058,8.4535,8.4499,8.4559,8.4986,8.5412,8.6072,8.7248,8.8105,8.895,8.9791,8.9829,9.0058,9.0593,9.0593,9.0593,9.0593,9.0593,9.0593,9.0593,9.0593,9.0593,9.0593,9.0593,9.0593,9.0593,9.0593,9.0593,9.0593,9.0593,9.0593,9.0593,9.0593,9.0593,9.0593,9.0593,9.0593,9.0593,9.0593,9.0593,9.0593,9.0593,9.0593,9.0593,9.0593,9.0593,9.0593,9.0593,9.0758,9.0915,9.0915,9.1066,9.121,9.121,9.121,9.121,9.121,9.121,9.121,9.121,9.121,9.121,9.121,9.0787,9.0441,9.0441,8.9748,8.8902,8.8055,8.7632,8.7094,8.6209,8.6094,8.6094,8.6094,8.6094,8.6094,8.6094,8.6094,8.6094,8.6094,8.6094,8.6094,8.6094,8.6094,8.6094,8.6094,8.6094,8.5747,8.5055,8.4939,8.4286,8.3016,8.1708,8.1093,0.0,0.0,0.0,0.0,0.0,0.0,8.2186,8.2186,8.2186,8.2186,8.2186,8.2186,8.2186,8.2186,8.2443,8.3287,8.4095,8.4609,8.4609,8.527,8.5527,8.4829,8.5775,8.6776,8.764,8.8805,8.9791,9.0555,9.0593,9.0593,9.0593,9.0593,9.0593,9.0593,9.0593,9.0593,9.0593,9.0593,9.0593,9.0593,9.0593,9.0593,9.0593,9.0593,9.0593,9.0593,9.0593,9.0593,9.0593,9.0593,9.0593,9.0593,9.0593,9.0593,9.0593,9.0593,9.0593,9.0593,9.0593,9.0593,9.0593,9.0593,9.0593,9.0593,9.0593,9.0758,9.0915,9.0954,9.1066,9.121,9.121,9.121,9.121,9.121,9.121,9.121,9.121,9.121,9.121,9.121,9.121,9.121,9.121,9.0556,8.9787,8.894,8.8094,8.7209,8.6363,8.617,8.6094,8.6094,8.6094,8.6094,8.6094,8.6094,8.6094,8.6094,8.6094,8.6094,8.6094,8.6094,8.6094,8.6094,8.6017,8.5209,8.3593,8.4362,8.3862,8.2131,8.1439,8.1093,0.0,0.0,0.0,0.0,0.0,0.0,8.2186,8.2186,8.2186,8.2186,8.2186,8.2186,8.2186,8.2186,8.2443,8.3287,8.4095,8.4609,8.4609,8.527,8.5747,8.5563,8.6594,8.764,8.8503,8.9631,9.044,9.0593,9.0593,9.0593,9.0593,9.0593,9.0593,9.0593,9.0593,9.0593,9.0593,9.0593,9.0593,9.0593,9.0593,9.0593,9.0593,9.0593,9.0593,9.0593,9.0593,9.0593,9.0593,9.0593,9.0593,9.0593,9.0593,9.0593,9.0593,9.0593,9.0593,9.0593,9.0593,9.0593,9.0593,9.0593,9.0593,9.0593,9.0593,9.0758,9.0954,9.1103,9.1175,9.121,9.121,9.121,9.121,9.121,9.121,9.121,9.121,9.121,9.121,9.121,9.121,9.121,9.121,9.1056,9.0671,8.9787,8.8979,8.8132,8.7248,8.6517,8.6094,8.6094,8.6094,8.6094,8.6094,8.6094,8.6094,8.6094,8.6094,8.6094,8.6094,8.6094,8.6094,8.6094,8.5478,8.4632,8.3593,8.3747,8.2978,8.1323,8.117,8.1093,0.0,0.0,0.0,8.2113,0.0,0.0,0.0,8.2186,8.2186,8.2186,8.2186,8.2186,8.2186,8.2186,8.2333,8.2737,8.3471,8.4022,8.4022,8.538,8.6407,8.6407,8.7179,8.8014,8.8711,8.9616,9.0295,9.0551,9.0593,9.0593,9.0593,9.0593,9.0593,9.0593,9.0593,9.0593,9.0593,9.0593,9.0593,9.0593,9.0593,9.0593,9.0593,9.0593,9.0593,9.0593,9.0593,9.0593,9.0593,9.0593,9.0593,9.0593,9.0593,9.0593,9.0593,9.0593,9.0593,9.0593,9.0593,9.0593,9.0593,9.0593,9.0593,9.0593,9.0593,9.0758,9.0954,9.1064,9.1175,9.121,9.121,9.121,9.121,9.121,9.121,9.121,9.121,9.121,9.121,9.121,9.121,9.121,9.121,9.121,9.0902,9.0056,8.921,8.8402,8.7517,8.6632,8.6094,8.6094,8.6094,8.6094,8.6094,8.6094,8.6094,8.6094,8.6094,8.6094,8.6094,8.6094,8.6094,8.6094,8.5324,8.4478,8.3593,8.317,8.2324,8.1093,8.1093,8.1093,0.0,0.0,0.0,0.0,0.0,8.2186,0.0,0.0,0.0,8.2186,8.2186,8.2186,8.2186,8.2186,8.2076,8.1782,8.2663,8.3287,8.2994,8.5049,8.6628,8.6775,8.7415,8.8144,8.8748,8.9376,8.9944,9.0551,9.0508,9.0508,9.0593,9.0593,9.0593,9.0593,9.0593,9.0593,9.0593,9.0593,9.0593,9.0593,9.0593,9.0593,9.0593,9.0593,9.0593,9.0593,9.0593,9.0593,9.0593,9.0593,9.0593,9.0593,9.0593,9.0593,9.0593,9.0593,9.0593,9.0593,9.0593,9.0593,9.0593,9.0593,9.0593,9.0593,9.0593,9.0758,9.0877,9.0991,9.11,9.121,9.121,9.121,9.121,9.121,9.121,9.121,9.121,9.121,9.121,9.121,9.121,9.121,9.121,9.121,9.0979,9.0248,8.944,8.8632,8.7748,8.6901,8.6286,8.6132,8.6094,8.6094,8.6094,8.6094,8.6094,8.6094,8.6094,8.6094,8.6094,8.6094,8.6017,8.5863,8.5055,8.4209,8.3362,8.2477,8.1747,8.1093,8.1093,8.1093,0.0,0.0,0.0,0.0,8.2186,0.0,0.0,0.0,8.2186,8.2186,0.0,8.2186,8.2186,0.0,0.0,8.0277,8.1929,8.292,8.1489,8.3361,8.5123,8.5857,8.7082,8.8144,8.8748,8.9376,8.9944,9.0551,9.0083,9.0037,9.0551,9.0593,9.0593,9.0593,9.0593,9.0593,9.0593,9.0593,9.0593,9.0593,9.0593,9.0593,9.0593,9.0593,9.0593,9.0593,9.0593,9.0593,9.0593,9.0593,9.0593,9.0593,9.0593,9.0593,9.0593,9.0593,9.0593,9.0593,9.0593,9.0593,9.0593,9.0593,9.0593,9.0593,9.0679,9.0759,9.0877,9.0991,9.11,9.121,9.121,9.121,9.121,9.121,9.121,9.121,9.121,9.121,9.121,9.121,9.121,9.121,9.121,9.121,9.1171,9.1056,9.0325,8.9479,8.8671,8.7786,8.6978,8.617,8.6094,8.6094,8.6094,8.6094,8.6094,8.6094,8.6094,8.6094,8.6094,8.6094,8.5747,8.5055,8.417,8.3324,8.2439,8.1631,8.1208,8.1093,8.1093,8.1093,0.0,0.0,0.0,0.0,0.0,0.0,0.0,0.0,8.2186,0.0,0.0,0.0,0.0,0.0,0.0,0.0,8.2039,8.248,8.1782,8.2957,8.4205,8.5013,8.6053,0.0,8.819,8.8804,8.9461,9.0209,8.993,9.0039,9.0722,9.065,9.0593,9.0593,9.0593,9.0593,9.0593,9.0593,9.0593,9.0593,9.0593,9.0593,9.0593,9.0593,9.0593,9.0593,9.0593,9.0593,9.0593,9.0593,9.0593,9.0593,9.0593,9.0593,9.0593,9.0593,9.0593,9.0593,9.0593,9.0593,9.0593,9.0593,9.0593,9.0593,9.0635,9.0758,9.0915,9.0915,9.1064,9.121,9.121,9.121,9.121,9.121,9.121,9.121,9.121,9.121,9.121,9.121,9.121,9.121,9.121,9.121,9.121,9.121,9.0479,8.9633,8.8786,8.794,8.7055,8.6209,8.6094,8.6094,8.6094,8.6094,8.6094,8.6094,8.6094,8.6094,8.6094,8.6094,8.5709,8.4939,8.4055,8.317,8.2285,8.1477,8.1093,8.1093,8.1093,8.1093,8.2186,0.0,0.0,0.0,0.0,0.0,0.0,0.0,0.0,0.0,0.0,0.0,0.0,0.0,0.0,8.1599,0.0,8.2039,8.1599,8.2406,8.3361,8.4168,8.514,8.6241,0.0,8.7951,8.8748,8.9874,8.97,8.9952,9.0939,9.0656,9.051,9.0683,9.0454,9.0427,9.0593,9.0593,9.0593,9.0593,9.0593,9.0593,9.0593,9.0593,9.0593,9.0593,9.0593,9.0593,9.0593,9.0593,9.0593,9.0593,9.0593,9.0593,9.0593,9.0593,9.0593,9.0593,9.0593,9.0593,9.0593,9.0593,9.0593,9.0669,9.0902,9.0949,9.0954,9.1222,9.122,9.121,9.121,9.1364,9.1556,9.1556,9.171,9.1825,9.1595,9.1556,9.1479,9.1248,9.121,9.121,9.121,9.121,9.121,9.121,9.0671,8.9902,8.8825,8.8132,8.7325,8.6209,8.6094,8.6094,8.6094,8.6094,8.6094,8.6094,8.6094,8.6094,8.6094,8.5901,8.5401,8.4555,8.367,8.2824,8.1977,8.1362,8.1093,8.1093,8.1093,8.1093,0.0,0.0,0.0,8.2186,0.0,0.0,0.0,0.0,8.2186,0.0,0.0,0.0,0.0,0.0,0.0,0.0,8.1158,0.0,0.0,8.1232,8.2553,8.3361,8.4643,8.5818,0.0,8.6771,8.7683,0.0,8.9421,0.0,9.1112,9.0418,9.0282,9.0889,9.0131,8.9991,9.0593,9.0593,9.0593,9.0593,9.0593,9.0593,9.0593,9.0593,9.0593,9.0593,9.0593,9.0593,9.0593,9.0593,9.0593,9.0593,9.0593,9.0593,9.0593,9.0593,9.0593,9.0593,9.0593,9.0593,9.0593,9.0593,9.0593,9.0746,9.1674,9.145,9.1069,9.1989,9.1754,9.121,9.121,9.1825,9.2441,9.2441,9.3056,9.3403,9.2633,9.2441,9.221,9.1364,9.121,9.121,9.121,9.121,9.121,9.121,9.1171,9.0556,8.8902,8.8671,8.7979,8.6286,8.6094,8.6094,8.6094,8.6094,8.6094,8.6094,8.6094,8.6094,8.6094,8.5363,8.4516,8.367,8.2785,8.1939,8.1131,8.1093,8.1093,8.1093,8.1093,8.1093,0.0,0.0,8.2994,8.2994,0.0,0.0,0.0,0.0,0.0,0.0,0.0,0.0,0.0,0.0,8.2003,8.1489,8.1819,8.2003,0.0,8.2333,8.292,8.2627,8.3484,8.4387,8.5263,0.0,0.0,0.0,8.8997,0.0,0.0,9.0991,9.0829,9.0915,9.0612,9.0789,9.1395,9.1395,9.1701,9.2236,9.1663,9.1395,9.1395,9.0861,9.0593,9.0593,9.0593,9.0593,9.0593,9.0593,9.0593,9.0593,9.0593,9.0593,9.0593,9.0593,9.0593,9.0593,9.0593,9.0593,9.0708,9.1204,9.1395,9.1548,9.247,9.2633,9.2603,9.2948,9.2947,9.2864,9.2864,9.3056,9.3287,9.3287,9.348,9.348,9.2672,9.2479,9.2249,9.1364,9.121,9.121,9.121,9.121,9.121,9.121,9.121,9.0594,8.8902,8.8709,8.8017,8.6286,8.6094,8.6094,8.6094,8.6094,8.6094,8.6094,8.6094,8.5863,8.5324,8.5055,8.4209,8.2747,8.2439,8.19,8.1093,8.1093,8.1093,8.1093,8.1093,8.1093,8.303,8.3434,0.0,8.3838,8.4242,0.0,8.4609,0.0,0.0,0.0,0.0,0.0,0.0,0.0,0.0,8.259,8.237,8.2296,0.0,8.2847,8.2884,8.2663,8.3104,8.3618,8.4132,8.4903,8.604,8.7655,8.8656,8.9773,0.0,0.0,9.1021,9.1075,9.1084,9.1332,9.1933,9.215,9.2542,9.3077,9.2236,9.1816,9.1778,9.0975,9.0593,9.0593,9.0593,9.0593,9.0593,9.0593,9.0593,9.0593,9.0593,9.0593,9.0593,9.0593,9.0593,9.0631,9.0937,9.1052,9.1166,9.2007,9.2274,9.2427,9.3311,9.3475,9.3408,9.3447,9.36,9.3633,9.3364,9.371,9.4172,9.4172,9.4403,9.4326,9.3172,9.2941,9.2595,9.1441,9.121,9.121,9.121,9.121,9.121,9.121,9.121,9.0594,8.8902,8.8709,8.8017,8.6286,8.6094,8.6094,8.6094,8.6094,8.6094,8.6094,8.6094,8.5747,8.4939,8.4593,8.3747,8.2324,8.2016,8.1631,8.1093,8.1093,8.1093,8.1093,8.1093,8.1093]},{"header":{"parameterUnit":"m.s-1","parameterCategory":1,"la1":30.6,"la2":29.2853,"lo1":-89.7004,"lo2":-87.6739,"dy":0.0162,"dx":0.0183,"nx":112,"ny":82,"refTime":"2023-10-04T06:00:00:Z","depth":0,"parameterNumber":3,"parameterNumberName":"V-component_of_WINDS"},"data":[0.0,0.0,0.0,0.0,0.0,0.0,0.0,0.0,0.0,0.0,0.0,0.0,0.0,0.0,0.0,0.0,0.0,0.0,0.0,0.0,0.0,0.0,0.0,0.0,0.0,0.0,0.0,0.0,0.0,0.0,0.0,0.0,0.0,0.0,0.0,0.0,0.0,0.0,0.0,0.0,0.0,0.0,0.0,0.0,0.0,0.0,0.0,0.0,0.0,0.0,0.0,0.0,0.0,0.0,0.0,0.0,0.0,0.0,0.0,0.0,0.0,0.0,0.0,0.0,0.0,0.0,0.0,0.0,0.0,0.0,0.0,0.0,0.0,0.0,0.0,0.0,0.0,0.0,0.0,0.0,0.0,0.0,0.0,0.0,0.0,0.0,0.0,0.0,0.0,0.0,0.0,0.0,0.0,0.0,0.0,-0.3137,-0.6403,-0.9773,0.0,0.0,0.0,0.0,0.0,0.0,0.0,0.0,0.0,0.0,0.0,0.0,0.0,0.0,0.0,0.0,0.0,0.0,0.0,0.0,0.0,0.0,0.0,0.0,0.0,0.0,0.0,0.0,0.0,0.0,0.0,0.0,0.0,0.0,0.0,0.0,0.0,0.0,0.0,0.0,0.0,0.0,0.0,0.0,0.0,0.0,0.0,0.0,0.0,0.0,0.0,0.0,0.0,0.0,0.0,0.0,0.0,0.0,0.0,0.0,0.0,0.0,0.0,0.0,0.0,0.0,0.0,0.0,0.0,0.0,0.0,0.0,0.0,0.0,0.0,0.0,0.0,0.0,0.0,0.0,0.0,0.0,0.0,0.0,0.0,0.0,0.0,0.0,0.0,0.0,0.0,0.0,0.0,0.0,0.0,0.0,0.0,0.0,0.0,0.0,0.0,0.0,0.0,0.0,0.0,0.0,0.0,0.0,0.0,-0.3139,-0.6431,-0.9735,0.0,0.0,0.0,0.0,0.0,0.0,0.0,0.0,0.0,0.0,0.0,0.0,0.0,0.0,0.0,0.0,0.0,0.0,0.0,0.0,0.0,0.0,0.0,0.0,0.0,0.0,0.0,0.0,0.0,0.0,0.0,0.0,0.0,0.0,0.0,0.0,0.0,0.0,0.0,0.0,0.0,0.0,0.0,0.0,0.0,0.0,0.0,0.0,0.0,0.0,0.0,0.0,0.0,0.0,0.0,0.0,0.0,0.0,0.0,0.0,0.0,0.0,0.0,0.0,0.0,0.0,0.0,0.0,0.0,0.0,0.0,0.0,0.0,0.0,0.0,0.0,0.0,0.0,0.0,0.0,0.0,0.0,0.0,0.0,0.0,0.0,0.0,0.0,0.0,0.0,0.0,0.0,0.0,0.0,0.0,0.0,0.0,0.0,0.0,0.0,0.0,0.0,0.0,0.0,0.0,0.0,0.0,0.0,0.0,-0.1411,-0.3762,-0.706,-0.8891,0.0,0.0,0.0,0.0,0.0,0.0,0.0,0.0,0.0,0.0,0.0,0.0,0.0,0.0,0.0,0.0,0.0,0.0,0.0,0.0,0.0,0.0,0.0,0.0,0.0,0.0,0.0,0.0,0.0,0.0,0.0,0.0,0.0,0.0,0.0,0.0,0.0,0.0,0.0,0.0,0.0,0.0,0.0,0.0,0.0,0.0,0.0,0.0,0.0,0.0,0.0,0.0,0.0,0.0,0.0,0.0,0.0,0.0,0.0,0.0,0.0,0.0,0.0,0.0,0.0,0.0,0.0,0.0,0.0,0.0,0.0,0.0,0.0,0.0,0.0,0.0,0.0,0.0,0.0,0.0,0.0,0.0,0.0,0.0,0.0,0.0,0.0,0.0,0.0,0.0,0.0,0.0,0.0,0.0,0.0,0.0,0.0,0.0,0.0,0.0,0.0,0.0,0.0,0.0,0.0,0.0,0.0,0.0,0.0,-0.141,-0.4857,-0.8159,0.0,0.0,0.0,0.0,0.0,0.0,0.0,0.0,0.0,0.0,0.0,0.0,0.0,0.0,0.0,0.0,0.0,0.0,0.0,0.0,0.0,0.0,0.0,0.0,0.0,0.0,0.0,0.0,0.0,0.0,0.0,0.0,0.0,0.0,0.0,0.0,0.0,0.0,0.0,0.0,0.0,0.0,0.0,0.0,0.0,0.0,0.0,0.0,0.0,0.0,0.0,0.0,0.0,0.0,0.0,0.0,0.0,0.0,0.0,0.0,0.0,0.0,0.0,0.0,0.0,0.0,0.0,0.0,0.0,0.0,0.0,0.0,0.0,0.0,0.0,0.0,0.0,0.0,0.0,0.0,0.0,0.0,0.0,0.0,0.0,0.0,0.0,0.0,0.0,0.0,0.0,0.0,0.0,0.0,0.0,0.0,0.0,0.0,0.0,0.0,0.0,0.0,0.0,0.0,0.0,0.0,0.0,0.0,0.0,-0.1412,-0.4857,-0.8167,0.0,0.0,0.0,0.0,0.0,0.0,0.0,0.0,0.0,0.0,0.0,0.0,0.0,0.0,0.0,0.0,0.0,0.0,0.0,0.0,0.0,0.0,0.0,0.0,0.0,0.0,0.0,0.0,0.0,0.0,0.0,0.0,0.0,0.0,0.0,0.0,0.0,0.0,0.0,0.0,0.0,0.0,0.0,0.0,0.0,0.0,0.0,0.0,0.0,0.0,0.0,0.0,0.0,0.0,0.0,0.0,0.0,0.0,0.0,0.0,0.0,0.0,0.0,0.0,0.0,0.0,0.0,0.0,0.0,0.0,0.0,0.0,0.0,0.0,0.0,0.0,0.0,0.0,0.0,0.0,0.0,0.0,0.0,0.0,0.0,0.0,0.0,0.0,0.0,0.0,0.0,0.0,0.0,0.0,0.0,0.0,0.0,0.0,0.0,0.0,0.0,0.0,0.0,0.0,0.0,0.0,0.0,0.0,0.0,-0.1412,-0.4857,0.0,0.0,0.0,0.0,0.0,0.0,0.0,0.0,0.0,0.0,0.0,0.0,0.0,0.0,0.0,0.0,0.0,0.0,0.0,0.0,0.0,0.0,0.0,0.0,0.0,0.0,0.0,0.0,0.0,0.0,0.0,0.0,0.0,0.0,0.0,0.0,0.0,0.0,0.0,0.0,0.0,0.0,0.0,0.0,0.0,0.0,0.0,0.0,0.0,0.0,0.0,0.0,0.0,0.0,0.0,0.0,0.0,0.0,0.0,0.0,0.0,0.0,0.0,0.0,0.0,0.0,0.0,0.0,0.0,0.0,0.0,0.0,0.0,0.0,0.0,0.0,0.0,0.0,0.0,0.0,0.0,0.0,0.0,0.0,0.0,0.0,0.0,0.0,0.0,0.0,0.0,0.0,0.0,0.0,0.0,0.0,0.0,0.0,0.0,0.0,0.0,0.0,0.0,0.0,0.0,0.0,0.0,0.0,0.0,0.0,-0.1412,-0.4857,0.0,0.0,0.0,0.0,0.0,0.0,0.0,0.0,0.0,0.0,0.0,0.0,0.0,0.0,0.0,0.0,0.0,0.0,0.0,0.0,0.0,0.0,0.0,0.0,0.0,0.0,0.0,0.0,0.0,0.0,0.0,0.0,0.0,0.0,0.0,0.0,0.0,0.0,0.0,0.0,0.0,0.0,0.0,0.0,0.0,0.0,0.0,0.0,0.0,0.0,0.0,0.0,0.0,0.0,0.0,0.0,0.0,0.0,0.0,0.0,0.0,0.0,0.0,0.0,0.0,0.0,0.0,0.0,0.0,0.0,0.0,0.0,0.0,0.0,0.0,0.0,0.0,0.0,0.0,0.0,0.0,0.0,0.0,0.0,0.0,0.0,0.0,0.0,0.0,0.0,0.0,0.0,0.0,0.0,0.0,0.0,0.0,0.0,0.0,0.0,0.0,0.0,0.0314,0.0,0.0,0.0,0.0,0.0,0.0,0.0,-0.1412,0.0,0.0,0.0,0.0,0.0,0.0,0.0,0.0,0.0,0.0,0.0,0.0,0.0,0.0,0.0,0.0,0.0,0.0,0.0,0.0,0.0,0.0,0.0,0.0,0.0,0.0,0.0,0.0,0.0,0.0,0.0,0.0,0.0,0.0,0.0,0.0,0.0,0.0,0.0,0.0,0.0,0.0,0.0,0.0,0.0,0.0,0.0,0.0,0.0,0.0,0.0,0.0,0.0,0.0,0.0,0.0,0.0,0.0,0.0,0.0,0.0,0.0,0.0,0.0,0.0,0.0,0.0,0.0,0.0,0.0,0.0,0.0,0.0,0.0,0.0,0.0,0.0,0.0,0.0,0.0,0.0,0.0,0.0,0.0,0.0,0.0,0.0,0.0,0.0,0.0,0.0,0.0,0.0,0.0,0.0,0.0,0.0,0.0,0.0,0.0,0.0,0.0,0.0,0.1748,0.1263,0.0942,0.0942,0.0314,0.0,0.0,0.0,-0.1412,-0.4857,0.0,0.0,0.0,0.0,0.0,0.0,0.0,0.0,0.0,0.0,0.0,0.0,0.0,0.0,0.0,0.0,0.0,0.0,0.0,0.0,0.0,0.0,0.0,0.0,0.0,0.0,0.0,0.0,0.0,0.0,0.0,0.0,0.0,0.0,0.0,0.0,0.0,0.0,0.0,0.0,0.0,0.0,0.0,0.0,0.0,0.0,0.0,0.0,0.0,0.0,0.0,0.0,0.0,0.0,0.0,0.0,0.0,0.0,0.0,0.0,0.0,0.0,0.0,0.0,0.0,0.0,0.0,0.0,0.0,0.0,0.0,0.0,0.0,0.0,0.0,0.0,0.0,0.0,0.0,0.0,0.0,0.0,0.0,0.0,0.0,0.0,0.0,0.0,0.0,0.0,0.0,0.0,0.0,0.0,0.0,0.0,0.0,0.0,0.0,0.0,0.0,0.0,0.2414,0.2081,0.1753,0.1753,0.1434,0.1113,0.095,0.0317,-0.1262,-0.439,0.0,0.0,0.0,0.0,0.0,0.0,0.0,0.0,0.0,0.0,0.0,0.0,0.0,0.0,0.0,0.0,0.0,0.0,0.0,0.0,0.0,0.0,0.0,0.0,0.0,0.0,0.0,0.0,0.0,0.0,0.0,0.0,0.0,0.0,0.0,0.0,0.0,0.0,0.0,0.0,0.0,0.0,0.0,0.0,0.0,0.0,0.0,0.0,0.0,0.0,0.0,0.0,0.0,0.0,0.0,0.0,0.0,0.0,0.0,0.0,0.0,0.0,0.0,0.0,0.0,0.0,0.0,0.0,0.0,0.0,0.0,0.0,0.0,0.0,0.0,0.0,0.0,0.0,0.0,0.0,0.0,0.0,0.0,0.0,0.0,0.0,0.0,0.0,0.0,0.0,0.0,0.0,0.0,0.0,0.0,0.0,0.0,0.0,0.0,0.0,0.0,0.0,0.2445,0.2444,0.2442,0.2442,0.2605,0.2594,0.2566,0.112,-0.0796,-0.3301,0.0,0.0,0.0,0.0,0.0,0.0,0.0,0.0,0.0,0.0,0.0,0.0,0.0,0.0,0.0,0.0,0.0,0.0,0.0,0.0,0.0,0.0,0.0,0.0,0.0,0.0,0.0,0.0,0.0,0.0,0.0,0.0,0.0,0.0,0.0,0.0,0.0,0.0,0.0,0.0,0.0,0.0,0.0,0.0,0.0,0.0,0.0,0.0,0.0,0.0,0.0,0.0,0.0,0.0,0.0,0.0,0.0,0.0,0.0,0.0,0.2514,0.0,0.0,0.0,0.0,0.0,0.0,0.0,0.0,0.0,0.0,0.0,0.0,0.0,0.0,0.0,0.0,0.0,0.0,0.0,0.0,0.0,0.0,0.0,0.0,0.0,0.0,0.0,0.0,0.0,0.0,0.0,0.0,0.0,0.0,0.0,0.0,0.0,0.0,0.0,0.0,0.0,0.2635,0.2619,0.2605,0.2605,0.2605,0.2602,0.2433,0.2251,0.1117,-0.0636,-0.3467,0.0,0.0,0.0,0.0,0.0,0.0,0.0,0.0,0.0,0.0,0.0,0.0,0.0,0.0,0.0,0.0,0.0,0.0,0.0,0.0,0.0,0.0,0.0,0.0,0.0,0.0,0.0,0.0,0.0,0.0,0.0,0.0,0.0,0.0,0.0,0.0,0.0,0.0,0.0,0.0,0.0,0.0,0.0,0.0,0.0,0.0,0.0,0.0,0.0,0.0,0.0,0.0,0.0,0.0,0.0,0.0,0.0,0.0,0.0,0.0,0.2514,0.0,0.0,0.0,0.0,0.0,0.0,0.0,0.0,0.0,0.0,0.0,0.0,0.0,0.0,0.0,0.0,0.0,0.0,0.0,0.0,0.0,0.0,0.0,0.0,0.0,0.0,0.0,0.0,0.0,0.0,0.0,0.0,0.0,0.0,0.0,0.0,0.0,0.0,0.0,0.0,0.2667,0.2656,0.2482,0.1985,0.2315,0.2642,0.2628,0.2612,0.2265,0.1278,-0.0794,0.0,0.0,0.0,0.0,0.0,0.0,0.0,0.0,0.0,0.0,0.0,0.0,0.0,0.0,0.0,0.0,0.0,0.0,0.0,0.0,0.0,0.0,0.0,0.0,0.0,0.0,0.0,0.0,0.0,0.0,0.0,0.0,0.0,0.0,0.0,0.0,0.0,0.0,0.0,0.0,0.0,0.0,0.0,0.0,0.0,0.0,0.0,0.0,0.0,0.0,0.0,0.0,0.0,0.2514,0.2514,0.2514,0.2514,0.2514,0.2514,0.2514,0.2514,0.2514,0.0,0.0,0.0,0.0,0.0,0.0,0.0,0.0,0.0,0.0,0.0,0.0,0.0,0.0,0.0,0.0,0.0,0.0,0.0,0.0,0.0,0.0,0.0,0.0,0.0,0.2549,0.256,0.0,0.0,0.0,0.0,0.0,0.0,0.0,0.0,0.0,0.0,0.0,0.0,0.2692,0.2692,0.2356,0.1682,0.2188,0.2515,0.2161,0.2487,0.2464,0.2095,0.0962,0.0318,0.0,0.0,0.0,0.0,0.0,0.0,0.0,0.0,0.0,0.0,0.0,0.0,0.0,0.0,0.0,0.0,0.0,0.0,0.0,0.0,0.0,0.0,0.0,0.0,0.0,0.0,0.0,0.0,0.0,0.0,0.0,0.0,0.2413,0.2417,0.0,0.0,0.0,0.0,0.0,0.0,0.0,0.0,0.0,0.0,0.0,0.0,0.0,0.2514,0.2514,0.2514,0.2514,0.2514,0.2514,0.2514,0.2514,0.2514,0.2514,0.2514,0.2514,0.0,0.2514,0.2514,0.0,0.0,0.0,0.0,0.0,0.0,0.0,0.0,0.0,0.0,0.0,0.0,0.0,0.0,0.0,0.0,0.0,0.0,0.0,0.0,0.0,0.0,0.256,0.2585,0.2593,0.2594,0.0,0.2593,0.2596,0.2596,0.0,0.0,0.0,0.0,0.0,0.0,0.0,0.0,0.2692,0.2692,0.2692,0.2524,0.2692,0.2018,0.0504,0.1666,0.1985,0.0495,0.1456,0.1438,0.0,-0.0788,0.0,0.0,0.0,0.0,0.0,0.0,0.0,0.0,0.0,0.0,0.0,0.0,0.0,0.0,0.0,0.0,0.0,0.0,0.0,0.0,0.0,0.0,0.0,0.0,0.0,0.0,0.0,0.0,0.0,0.3149,0.3312,0.2597,0.3208,0.3375,0.0,0.0,0.0,0.0,0.0,0.0,0.0,0.0,0.0,0.2514,0.2514,0.2514,0.2514,0.2514,0.2514,0.2514,0.2514,0.2514,0.2514,0.2514,0.2514,0.2514,0.2514,0.2514,0.2515,0.2533,0.2549,0.2563,0.0,0.0,0.0,0.0,0.2563,0.2562,0.2545,0.254,0.0,0.0,0.0,0.0,0.0,0.0,0.0,0.0,0.0,0.0,0.0,0.0,0.0,0.2598,0.2615,0.2627,0.2627,0.2641,0.2647,0.0,0.2652,0.2672,0.2672,0.0,0.0,0.0,0.0,0.2692,0.2692,0.2692,0.2692,0.2692,0.2692,0.2356,0.1515,0.1675,0.1333,0.0,0.0656,0.0811,0.0,0.0,-0.1421,0.0,0.0,0.0,0.0,0.0,0.0,0.0,0.0,0.0,0.0,0.0,0.0,0.0,0.0,0.0,0.0,0.0,0.0,0.0,0.0,0.0,0.0,0.0,0.0,0.0,0.0,0.0,0.0,0.347,0.378,0.2629,0.3525,0.368,0.0,0.0,0.0,0.0,0.0,0.0,0.2514,0.2514,0.2514,0.2514,0.2514,0.2514,0.2514,0.2514,0.2514,0.2514,0.2514,0.2514,0.2514,0.2514,0.2514,0.2514,0.2514,0.2519,0.2527,0.2542,0.2564,0.259,0.259,0.2596,0.2601,0.2601,0.2601,0.2598,0.2578,0.2571,0.2567,0.2544,0.0,0.2541,0.2563,0.0,0.0,0.0,0.0,0.2604,0.2611,0.2613,0.2615,0.2623,0.2642,0.2658,0.2658,0.2676,0.2686,0.0,0.2677,0.2692,0.2692,0.0,0.0,0.0,0.0,0.2692,0.2692,0.2692,0.2692,0.2692,0.2692,0.2692,0.2692,0.2018,0.1342,0.0666,0.0332,0.0,0.0,0.0,0.0,0.0,0.0,0.0,0.0,0.0,0.0,0.0,0.0,0.0,0.0,0.0,0.0,0.0,0.0,0.0,0.0,0.0,0.0,0.0,0.0,0.0,0.0,0.0,0.0,0.0,0.0,0.0,0.0,0.0,0.0,0.2508,0.264,0.0,0.0,0.0,0.0,0.2514,0.2514,0.2514,0.2514,0.2514,0.2514,0.2514,0.2514,0.2514,0.2514,0.2514,0.2514,0.2514,0.2514,0.2514,0.2514,0.2514,0.2514,0.2514,0.2514,0.253,0.2555,0.2527,0.2534,0.2562,0.2562,0.2578,0.2601,0.2601,0.2601,0.2601,0.26,0.26,0.26,0.2598,0.2597,0.2597,0.26,0.2601,0.0,0.0,0.2601,0.2608,0.2637,0.2645,0.2652,0.2682,0.2688,0.269,0.269,0.2691,0.2692,0.0,0.2691,0.2692,0.2692,0.0,0.2692,0.2692,0.2692,0.2692,0.2692,0.2692,0.2692,0.2692,0.2692,0.2692,0.2692,0.2692,0.2692,0.2525,0.1,0.0,0.0,0.0,0.0,0.0,-0.0315,0.0,0.0,0.0,0.0,0.0,0.0,0.0,0.0,0.0,0.0,0.0,0.0,0.0,0.0,0.0,0.0,0.0,0.0,0.0,0.0,0.0,0.0,0.0,0.0,0.0,0.0,0.0,0.0,0.2794,0.34,0.0,0.4073,0.4077,0.4547,0.5642,0.5642,0.5173,0.4234,0.4077,0.3609,0.2514,0.2514,0.2514,0.2514,0.2514,0.2514,0.2514,0.2514,0.2514,0.2514,0.2514,0.2514,0.2514,0.2514,0.2521,0.253,0.2519,0.2542,0.2586,0.2586,0.2593,0.2604,0.2623,0.2631,0.2631,0.2631,0.2631,0.2627,0.2608,0.2615,0.2631,0.2631,0.2645,0.266,0.266,0.266,0.2662,0.2673,0.2676,0.2679,0.269,0.2677,0.2662,0.2662,0.2662,0.2657,0.2638,0.2665,0.2692,0.2692,0.2692,0.2692,0.2692,0.2692,0.2692,0.2692,0.2692,0.2692,0.2692,0.2692,0.2692,0.2692,0.2692,0.2692,0.2694,0.1677,0.0834,0.0,0.0986,0.1624,0.1599,0.0478,-0.2371,0.0,0.0,0.0,0.0,0.0,0.0,0.0,0.0,0.0,0.0,0.0,0.0,0.0,0.0,0.0,0.0,0.0,0.0,0.0,0.0,0.0,0.0,0.0,0.0,0.0,0.0,0.6008,0.4338,0.5091,0.5717,0.5789,0.5796,0.6264,0.7357,0.7513,0.7045,0.5952,0.5796,0.5327,0.4236,0.3609,0.3297,0.3297,0.2828,0.2514,0.2514,0.2514,0.2514,0.2514,0.2514,0.2514,0.2514,0.2514,0.2514,0.2514,0.2514,0.2537,0.2574,0.2583,0.2593,0.2604,0.2624,0.2631,0.2632,0.2643,0.2653,0.2658,0.2639,0.2646,0.2662,0.2662,0.2669,0.2677,0.2677,0.2669,0.2661,0.2661,0.2661,0.2661,0.2661,0.2646,0.2631,0.2631,0.2631,0.2628,0.2619,0.2658,0.269,0.2679,0.2686,0.2692,0.2692,0.2692,0.2692,0.2692,0.2692,0.2692,0.2692,0.2692,0.2692,0.2692,0.2692,0.2692,0.2692,0.2356,0.1677,0.0999,0.0332,-0.0,-0.0,-0.1276,-0.3638,-0.7221,0.0,0.0,0.0,0.0,0.0,0.0,0.0,0.0,0.0,0.0,0.0,0.0,0.0,0.0,0.0,0.0,0.0,0.0,0.0,0.0,0.0,0.0,0.0,0.548,0.5117,0.5717,0.7345,0.7435,0.7573,0.7505,0.7513,0.7669,0.7669,0.7669,0.7669,0.7513,0.7513,0.7517,0.7357,0.5796,0.5014,0.4857,0.3297,0.2514,0.2514,0.2514,0.2514,0.2514,0.2514,0.2514,0.2514,0.2514,0.2514,0.2514,0.2514,0.2514,0.2517,0.2547,0.2575,0.26,0.26,0.2601,0.2605,0.2635,0.2665,0.269,0.269,0.269,0.269,0.269,0.2669,0.2646,0.2646,0.2624,0.2601,0.2601,0.2601,0.2601,0.2601,0.2601,0.26,0.26,0.2601,0.2611,0.2638,0.2671,0.2683,0.2653,0.2673,0.2692,0.2692,0.2692,0.0,0.2694,0.2694,0.2694,0.2695,0.2695,0.2695,0.2695,0.2695,0.2695,0.2695,0.2695,0.2694,0.2694,-0.2167,-0.4946,-0.5207,-0.5405,-0.6915,-0.9923,0.0,0.0,0.0,0.0,0.0,0.0,0.0,0.0,0.0,0.0,0.0,0.0,0.0,0.0,0.0,0.0,0.0,0.0,0.0,0.0,0.0,0.0,0.7804,0.6961,0.7911,0.8388,0.7577,0.7452,0.7955,0.9226,0.9382,0.9848,1.1095,1.1095,1.063,0.9382,0.9382,0.8136,0.5796,0.517,0.439,0.314,0.2671,0.2514,0.2514,0.2514,0.2514,0.2514,0.2514,0.2514,0.2514,0.2514,0.2514,0.2514,0.2514,0.2514,0.2515,0.2523,0.2532,0.2541,0.2563,0.2585,0.2602,0.2611,0.2619,0.2627,0.2627,0.2627,0.2627,0.2627,0.262,0.2615,0.2615,0.2608,0.2601,0.2601,0.2601,0.2601,0.2601,0.2586,0.2571,0.2571,0.2587,0.2598,0.2586,0.2642,0.269,0.2682,0.2687,0.2692,0.2692,0.2692,0.0,0.2722,0.2725,0.2733,0.2757,0.2758,0.2758,0.2758,0.2758,0.2758,0.2758,0.2737,0.2725,0.2725,0.1348,-0.2333,-0.8436,-0.3217,-0.238,0.0,0.0,0.0,0.0,0.0,0.0,0.0,0.0,0.0,0.0,0.0,0.0,0.0,0.0,0.0,0.0,0.0,0.0,0.0,0.0,0.0,0.0,0.8944,0.9671,0.9603,0.9805,0.9826,0.9603,0.9656,1.0008,1.094,1.1095,1.1411,1.2501,1.2501,1.203,1.1095,1.1095,0.9848,0.7197,0.642,0.517,0.3609,0.2828,0.2514,0.2514,0.2514,0.2514,0.2514,0.2514,0.2514,0.0,0.2514,0.2514,0.2514,0.2514,0.2514,0.0,0.0,0.0,0.0,0.0,0.2559,0.2585,0.2585,0.2592,0.2601,0.2601,0.2601,0.2601,0.2601,0.2593,0.2585,0.2585,0.2575,0.2564,0.2564,0.2564,0.2564,0.2564,0.2562,0.256,0.256,0.2582,0.2601,0.2597,0.0,0.0,0.2709,0.2712,0.2712,0.2712,0.2722,0.2736,0.2755,0.2757,0.2763,0.2781,0.2784,0.2784,0.2784,0.2784,0.0,0.0,0.0,0.2751,0.2739,0.1853,0.0,0.0,0.0,-0.1923,-0.3508,0.0,0.0,0.0,-0.9444,-0.9894,0.0,0.0,0.0,0.0,0.0,0.0,0.0,0.0,0.0,0.0,0.0,0.0,0.0,0.0,0.0,0.0,1.2434,1.2501,1.2501,1.125,1.0785,1.2347,1.2501,1.2501,1.2501,1.2501,1.2501,1.2501,1.2501,1.2501,1.2501,0.0,0.0,0.0,0.0,0.6733,0.5014,0.3301,0.2519,0.2519,0.2522,0.2523,0.2523,0.2523,0.2523,0.2523,0.2523,0.2523,0.2523,0.2523,0.2523,0.2523,0.2517,0.2514,0.2514,0.2514,0.2532,0.2555,0.2555,0.0,0.0,0.2592,0.2592,0.2592,0.2592,0.2574,0.2555,0.2555,0.2536,0.2515,0.2518,0.2519,0.2521,0.2523,0.2545,0.2564,0.2564,0.2589,0.262,0.2647,0.2679,0.2712,0.2737,0.2743,0.2743,0.2743,0.2766,0.2785,0.2788,0.2788,0.2789,0.2793,0.0,0.0,0.2793,0.2793,0.2793,0.2793,0.2791,0.2773,0.2739,0.0839,0.0,0.0332,-0.2949,-0.3563,-0.1601,-0.6424,-0.7664,-0.5501,-0.7619,-0.8721,0.0,0.0,0.0,0.0,0.0,0.0,0.0,0.0,0.0,0.0,0.0,0.0,0.0,0.0,0.0,1.0682,1.1585,1.2501,1.2501,1.2192,1.2185,1.2501,1.2501,1.2501,1.2501,1.2501,1.2501,1.2501,1.2501,1.2501,1.2501,1.2501,1.1721,1.0008,0.8448,0.6733,0.5014,0.3329,0.2551,0.2552,0.0,0.0,0.2585,0.2585,0.2585,0.2585,0.2585,0.2585,0.2585,0.2585,0.2585,0.2579,0.2533,0.2514,0.2514,0.2514,0.2518,0.2523,0.2523,0.2526,0.2532,0.2532,0.2532,0.2532,0.2532,0.2527,0.0,0.2523,0.2519,0.2519,0.2545,0.2551,0.2556,0.2579,0.2589,0.2593,0.2593,0.2637,0.2676,0.2683,0.2728,0.2767,0.2773,0.2774,0.2774,0.2774,0.278,0.2792,0.2816,0.2819,0.2829,0.2853,0.2856,0.2856,0.2856,0.2856,0.2856,0.2856,0.2833,0.2795,0.274,0.2385,0.2031,0.2181,-0.0828,-0.2632,-0.3283,-0.2277,-0.2586,-0.4031,-0.1263,-0.1409,0.0,0.0,0.0,0.0,0.0,0.0,0.0,0.0,0.0,0.0,0.0,1.0577,1.1312,0.0,1.2298,1.151,1.1927,1.2501,1.2501,1.2501,1.2501,1.2501,1.2501,1.2501,1.2501,1.2501,1.2501,1.2501,1.2569,1.2583,1.2508,1.2576,1.1829,1.0095,0.9311,0.8076,0.6532,0.5774,0.4831,0.4029,0.3888,0.3413,0.2601,0.2601,0.2601,0.2601,0.2601,0.2601,0.2601,0.2601,0.2601,0.2598,0.257,0.2557,0.2556,0.2542,0.2537,0.2534,0.2519,0.2514,0.2514,0.2514,0.2514,0.2517,0.2533,0.2537,0.254,0.2555,0.2557,0.2562,0.2577,0.2581,0.2585,0.2598,0.2626,0.2647,0.2647,0.2683,0.272,0.2735,0.2762,0.2788,0.2803,0.2818,0.2823,0.2808,0.2819,0.2834,0.2849,0.2852,0.2857,0.2872,0.2874,0.2874,0.2874,0.2874,0.2874,0.2874,0.2845,0.2815,0.2785,0.2754,0.2731,0.2716,0.1174,-0.0332,-0.1818,-0.0493,-0.049,-0.1787,0.1286,0.1594,0.0,0.0,0.0,0.0,0.0,0.0,0.0,0.7294,0.8241,1.1519,1.2292,1.2285,1.2574,1.263,1.2576,1.2671,1.2583,1.2501,1.2501,1.2501,1.2501,1.2501,1.2501,1.2501,1.2501,1.2528,1.2535,1.2501,1.2644,1.2678,1.2556,1.2664,1.2108,1.0861,1.0385,0.9626,0.8424,0.8139,0.7344,0.5881,0.5909,0.4936,0.3129,0.3129,0.2961,0.2628,0.2622,0.2619,0.2619,0.2619,0.2619,0.2619,0.2619,0.2619,0.2615,0.2581,0.2568,0.2564,0.254,0.2532,0.2532,0.2532,0.2532,0.2536,0.256,0.2568,0.2572,0.2596,0.2601,0.2602,0.2609,0.2611,0.2612,0.2617,0.2657,0.2692,0.2692,0.2716,0.2747,0.2777,0.2788,0.2803,0.284,0.2866,0.2874,0.2849,0.2867,0.2885,0.289,0.2891,0.2891,0.2891,0.2891,0.2889,0.2883,0.2876,0.2874,0.2874,0.2851,0.2834,0.2829,0.2776,0.2744,0.2737,0.2199,0.1507,0.0664,0.0166,0.0165,0.0654,0.1961,0.2597,0.2589,0.2597,0.2598,0.2601,0.2601,0.3089,0.0,0.5356,0.6324,0.9858,1.0501,1.0953,1.2437,1.2718,1.2664,1.2549,1.2515,1.2501,1.2501,1.2501,1.2501,1.2501,1.2501,1.2501,1.2501,1.2623,1.2651,1.2515,1.2644,1.2725,1.2705,1.2718,1.2635,1.2769,1.1308,1.0346,1.0201,0.8921,0.8011,0.7849,0.8009,0.7056,0.534,0.534,0.4287,0.2721,0.2694,0.2683,0.2683,0.2683,0.2683,0.2683,0.2683,0.2683,0.2675,0.2617,0.2597,0.2597,0.2593,0.2592,0.2592,0.2592,0.2592,0.2593,0.2596,0.2597,0.2597,0.2601,0.2601,0.2608,0.2635,0.2642,0.2649,0.2676,0.2687,0.2692,0.2692,0.2716,0.2747,0.2777,0.2806,0.2841,0.2897,0.2909,0.2911,0.2906,0.2909,0.2921,0.2947,0.2951,0.2951,0.2951,0.2951,0.2941,0.2913,0.2889,0.2874,0.2874,0.2871,0.2857,0.283,0.2796,0.2765,0.2739,0.0676,0.0503,0.2351,0.0335,0.0503,0.2346,0.2488,0.2627,0.262,0.2641,0.2816,0.3781,0.4101,0.4747,0.7463,0.8101,0.8728,1.1231,1.1696,1.1817,1.2467,1.2596,1.2576,1.2515,1.2501,1.2501,1.2501,1.2576,1.2637,1.2637,1.2712,1.2732,1.2644,1.2691,1.2705,1.2637,1.2779,1.2827,1.2732,1.2976,1.3152,1.3214,1.2636,1.2382,1.2458,1.1722,1.0922,0.9904,0.9997,0.918,0.7281,0.607,0.4504,0.2763,0.2751,0.2746,0.2746,0.2746,0.2746,0.2746,0.2746,0.2746,0.2736,0.2657,0.2628,0.2626,0.2608,0.2601,0.2601,0.2601,0.2601,0.2605,0.2623,0.2628,0.2631,0.2649,0.2654,0.2657,0.2671,0.2673,0.2676,0.269,0.2706,0.2718,0.2718,0.2757,0.28,0.283,0.286,0.2893,0.2935,0.2942,0.2949,0.2966,0.2954,0.2947,0.296,0.2961,0.2961,0.2961,0.2961,0.2949,0.2919,0.2905,0.2891,0.2875,0.2874,0.2868,0.2856,0.2826,0.2796,0.2765,0.1708,0.1692,0.2692,0.1681,0.1849,0.2692,0.2679,0.2668,0.2643,0.2995,0.3671,0.4781,0.5423,0.6547,0.9532,1.0307,1.0759,1.2377,1.2664,1.263,1.2522,1.2501,1.2501,1.2501,1.2535,1.2562,1.2562,1.2698,1.2793,1.2793,1.2929,1.299,1.2922,1.2874,1.2834,1.28,1.2976,1.3051,1.2983,1.3288,1.3485,1.3519,1.3627,1.3736,1.3838,1.3838,1.3172,1.1997,1.1997,1.0972,0.9261,0.7324,0.5404,0.3666,0.3655,0.3304,0.2784,0.2784,0.2784,0.2784,0.2784,0.2784,0.2776,0.2709,0.2679,0.2668,0.2637,0.2627,0.2627,0.2627,0.2627,0.2631,0.2653,0.266,0.2664,0.2686,0.2692,0.2692,0.2692,0.2699,0.2705,0.2705,0.2735,0.2763,0.2763,0.2804,0.2849,0.2881,0.2902,0.2928,0.2968,0.2973,0.2984,0.3014,0.3001,0.2987,0.2987,0.2987,0.2987,0.2987,0.2979,0.2965,0.2943,0.2926,0.2906,0.2887,0.2878,0.2874,0.2874,0.2845,0.2814,0.2784,0.2754,0.2722,0.2692,0.2692,0.2692,0.2692,0.2692,0.2692,0.2654,0.3803,0.5111,0.505,0.6327,0.7919,0.9739,1.0035,1.0634,1.2225,1.2508,1.2508,1.2501,1.2501,1.2501,1.2501,1.2623,1.2725,1.2725,1.2854,1.2956,1.2956,1.3078,1.322,0.0,1.3247,1.3105,1.2963,1.322,1.3451,1.3593,1.3614,1.3688,1.3824,1.3831,1.3838,1.3838,1.3838,1.3919,1.4061,1.4061,1.3079,1.1245,0.9369,0.7395,0.5638,0.5578,0.4515,0.2784,0.2784,0.2784,0.2784,0.2784,0.2784,0.2782,0.278,0.2761,0.2731,0.2701,0.269,0.269,0.269,0.269,0.269,0.2691,0.2691,0.2691,0.2692,0.2692,0.2692,0.2692,0.2714,0.2736,0.2736,0.2782,0.2826,0.2826,0.2851,0.2881,0.2909,0.2915,0.2935,0.2995,0.3005,0.3016,0.3046,0.305,0.305,0.305,0.305,0.305,0.305,0.3022,0.3005,0.3003,0.295,0.2916,0.2915,0.2889,0.2874,0.2874,0.2845,0.2814,0.2784,0.2754,0.2722,0.2692,0.2692,0.2692,0.2692,0.2692,0.2692,0.397,0.46,0.5697,0.7873,0.8809,0.9734,1.1354,1.1635,1.1778,1.2353,1.2583,1.2651,1.2651,1.2651,1.2684,1.2793,1.2766,1.2766,1.2868,1.301,1.3139,1.3241,1.3383,1.3498,0.0,0.0,0.0,1.3403,1.3498,1.3573,1.3627,1.3817,1.3946,1.3994,1.4095,1.4143,1.4143,1.4143,1.417,1.4224,1.4224,1.318,1.1438,1.0687,0.9428,0.7477,0.6213,0.5319,0.4613,0.3375,0.2844,0.2844,0.2844,0.2844,0.2841,0.2821,0.2807,0.2793,0.2763,0.2752,0.2752,0.2752,0.2752,0.2752,0.2752,0.2752,0.2752,0.2752,0.2752,0.2752,0.2752,0.2776,0.2799,0.2799,0.2829,0.2859,0.2859,0.2897,0.2935,0.2945,0.2979,0.3013,0.3033,0.3037,0.304,0.3051,0.3052,0.3052,0.3052,0.3052,0.3052,0.3052,0.3043,0.3029,0.3009,0.2988,0.2958,0.2919,0.2906,0.2894,0.2875,0.2864,0.2844,0.2814,0.2784,0.2752,0.2722,0.2702,0.2692,0.2692,0.2692,0.2692,0.4581,0.5515,0.6588,0.9361,1.0437,1.1203,1.2212,1.2501,1.2501,1.2501,1.2623,1.2732,1.2732,1.2773,1.2847,1.2942,1.2922,1.2922,1.3024,1.3207,1.337,1.3471,1.3614,1.3729,1.3783,0.0,0.0,1.3702,1.3756,1.381,1.3865,1.4,1.4075,1.4075,1.4163,1.4217,1.4217,1.4217,1.4217,1.4217,1.4272,1.3584,1.2509,1.2509,1.1438,0.9477,0.823,0.6981,0.5554,0.4485,0.359,0.2874,0.2874,0.2874,0.2871,0.2852,0.2845,0.284,0.2797,0.2784,0.2785,0.2796,0.2799,0.2801,0.2812,0.2815,0.2815,0.2815,0.2815,0.2815,0.2815,0.2838,0.286,0.286,0.2891,0.2921,0.2921,0.296,0.2994,0.2994,0.3025,0.3052,0.3052,0.3052,0.3052,0.3052,0.3052,0.3052,0.3052,0.3052,0.3052,0.3052,0.3052,0.3044,0.3025,0.3013,0.2986,0.2935,0.2921,0.2904,0.2875,0.2874,0.286,0.2829,0.2799,0.2769,0.2737,0.2707,0.2692,0.2692,0.2692,0.2692,0.4976,0.6529,0.8089,0.9719,1.1256,1.2501,1.2501,1.2501,1.2501,1.2515,1.2637,1.2745,1.2752,1.2874,1.2976,1.2983,1.3085,1.3166,1.3193,1.3437,1.3627,1.3648,1.377,1.3912,1.4068,1.4082,0.0,1.3865,0.0,1.415,1.4292,1.4163,1.4089,1.4095,1.4095,1.4095,1.4102,1.4102,1.4102,1.4109,1.4251,1.4326,1.4326,1.4326,1.3249,1.1638,1.1455,0.9313,0.592,0.5918,0.4845,0.3234,0.3233,0.3233,0.3233,0.3233,0.3053,0.3045,0.2982,0.2962,0.2792,0.2822,0.2831,0.2838,0.2867,0.2876,0.2879,0.3058,0.3058,0.3058,0.3237,0.326,0.3285,0.3285,0.3336,0.3385,0.3385,0.322,0.3242,0.3242,0.3243,0.3052,0.3052,0.3052,0.3052,0.3052,0.3052,0.3052,0.3052,0.3052,0.3052,0.3052,0.3052,0.3052,0.3052,0.3025,0.2996,0.2965,0.2935,0.2905,0.2876,0.2875,0.286,0.2831,0.2801,0.277,0.274,0.271,0.2694,0.2692,0.2692,0.2692,0.8473,0.9174,0.9729,1.1417,1.2192,1.2501,1.2501,1.2501,1.2535,1.2651,1.2793,1.2935,1.3037,1.3091,1.3159,1.3268,1.3132,1.3132,1.3464,1.3485,1.3587,1.3919,1.3987,1.4075,1.4224,1.4245,0.0,0.0,1.4156,1.4258,1.4299,1.4265,1.4292,1.4394,1.4401,1.4455,1.457,1.457,1.457,1.457,1.4611,1.4624,1.4624,1.4624,1.4262,1.3712,1.2431,1.1154,1.0235,0.8709,0.7779,0.7235,0.7184,0.716,0.716,0.716,0.627,0.5015,0.4989,0.4093,0.2852,0.286,0.2876,0.2896,0.2902,0.2921,0.3305,0.4768,0.5134,0.55,0.7144,0.7565,0.7435,0.7435,0.751,0.7578,0.7578,0.6458,0.5332,0.5332,0.4192,0.3052,0.3052,0.3052,0.3052,0.3052,0.3052,0.3052,0.3052,0.3052,0.3052,0.3052,0.3052,0.3052,0.3052,0.3046,0.3028,0.2996,0.2966,0.2936,0.2906,0.2885,0.2871,0.2863,0.2833,0.2801,0.2772,0.2742,0.2714,0.2692,0.2692,0.2692,0.9667,1.0057,1.0474,1.203,1.2501,1.2522,1.2583,1.2603,1.2644,1.28,1.2949,1.3078,1.3159,1.3227,1.3302,1.339,1.3315,1.3342,1.3593,1.3668,1.379,1.4041,1.4129,1.4204,1.4292,1.4353,1.436,0.0,1.4346,1.4367,1.4306,1.436,1.4428,1.4509,1.4509,1.4584,1.474,1.474,1.474,1.474,1.474,1.474,1.474,1.474,1.474,1.4557,0.0,1.2712,1.1786,1.0623,0.9685,0.8953,0.8722,0.8705,0.8697,0.8656,0.7926,0.7024,0.6994,0.627,0.5206,0.4532,0.421,0.4432,0.5377,0.559,0.5989,0.7107,0.7293,0.7666,0.8784,0.9007,0.9048,0.9048,0.9085,0.9122,0.9122,0.7606,0.5903,0.4952,0.3813,0.3052,0.3052,0.3052,0.3052,0.3052,0.3052,0.3052,0.3052,0.3052,0.3052,0.3052,0.3052,0.3052,0.3052,0.3052,0.3039,0.3009,0.2979,0.2947,0.2917,0.2889,0.2874,0.2874,0.2844,0.2814,0.2784,0.2752,0.2722,0.2692,0.2692,0.2692,0.988,1.0319,1.063,1.2185,1.2501,1.2542,1.2698,1.2732,1.2779,1.2956,1.3085,1.318,1.32,1.3308,1.3397,1.3376,1.3498,1.3607,1.3627,1.3865,1.4055,1.4095,1.4217,1.4306,1.4326,1.4441,1.4509,1.4509,1.455,1.4509,1.4367,1.4475,1.455,1.457,1.459,1.4665,1.4794,1.4801,1.4801,1.4801,1.4801,1.4801,1.4801,1.4801,1.4801,1.4801,0.0,0.0,1.2392,1.2375,1.1263,0.9788,0.9775,0.977,0.9757,0.9308,0.9277,0.9084,0.8828,0.8632,0.8481,0.6772,0.6296,0.673,0.8481,0.9077,0.9085,0.9462,0.9466,0.9462,0.9839,0.9843,0.9843,0.9843,0.9852,0.9861,0.9861,0.8167,0.5903,0.3623,0.3052,0.3052,0.3052,0.3052,0.3052,0.3052,0.3052,0.3052,0.3052,0.3052,0.3052,0.3052,0.3052,0.3052,0.3052,0.3052,0.3041,0.3014,0.2984,0.2954,0.2923,0.2894,0.2878,0.2874,0.2848,0.2819,0.2789,0.2759,0.2728,0.2698,0.2694,0.2692,1.2076,1.203,1.2185,1.2501,1.2501,1.2542,1.2698,1.2732,1.2807,1.3078,1.3152,1.3214,1.3336,1.3383,1.3356,1.3234,1.3342,1.3485,1.3614,1.3777,1.3973,1.4231,1.4285,1.4346,1.4462,1.4496,1.4509,0.0,1.4746,1.4821,1.4672,1.4685,1.476,1.4889,1.5004,1.5079,1.5106,1.5106,1.5106,1.5106,1.5106,1.5106,1.5106,1.5106,1.5106,1.5106,1.5106,0.0,1.4532,1.4414,1.4184,1.3986,1.3865,1.3632,1.3449,1.1764,1.1211,1.1206,0.936,0.8856,0.8885,0.8332,0.8148,0.8217,0.8596,0.8652,0.9082,1.0742,1.1299,1.1667,1.3334,1.3707,1.3707,1.3707,1.3795,1.4069,1.4069,1.1141,0.7416,0.3813,0.3052,0.3052,0.3052,0.3052,0.3052,0.3052,0.3052,0.3052,0.3052,0.3052,0.3052,0.3052,0.3052,0.3052,0.3052,0.3052,0.305,0.3044,0.3016,0.2986,0.2954,0.2924,0.2898,0.2874,0.2868,0.2852,0.2821,0.2791,0.2759,0.2729,0.2705,0.2692,1.2522,1.2501,1.2501,1.2811,1.2873,1.297,1.3123,1.3221,1.3346,1.3247,1.3295,1.3315,1.339,1.3403,1.3403,1.341,1.3532,1.3682,1.3838,1.3987,1.4136,1.4285,1.4367,1.4434,1.4502,1.4658,1.4753,1.4753,1.4957,1.4984,1.4753,1.4889,1.5004,1.5079,1.5147,1.5181,1.5181,1.5181,1.5181,1.5181,1.5181,1.5181,1.5181,1.5181,1.5181,1.5181,1.5181,0.0,1.5174,1.5106,1.5079,1.5072,1.4997,1.497,1.4772,1.377,1.337,1.3364,1.2369,1.2013,1.2035,1.1864,1.119,1.0587,1.17,1.2113,1.2348,1.3282,1.3468,1.366,1.4785,1.497,1.497,1.497,1.5025,1.4892,1.3759,1.2107,0.9496,0.5522,0.4573,0.4383,0.3243,0.3052,0.3052,0.3052,0.3052,0.3052,0.3052,0.3052,0.3052,0.3052,0.3052,0.3052,0.3052,0.3052,0.3052,0.3052,0.3024,0.2994,0.2962,0.2932,0.2902,0.2875,0.2874,0.2859,0.2829,0.2799,0.2767,0.2737,0.2706,0.2692,1.2656,1.2656,1.2656,1.312,1.3396,1.3562,1.3554,1.371,1.3711,1.3535,1.3403,1.3403,1.3403,1.3403,1.3437,1.3559,1.3729,1.3885,1.4007,1.4183,1.4312,1.434,1.4441,1.4536,1.4604,1.4828,1.4984,1.5011,1.512,1.5079,1.4848,1.5052,1.5181,1.5181,1.5181,1.5181,1.5181,1.5181,1.5181,1.5181,1.5181,1.5181,1.5181,1.5181,1.5181,1.5181,1.5181,0.0,0.0,1.5181,1.5181,1.5181,1.5181,1.5181,1.5167,1.4679,1.4639,1.4997,1.4316,1.4461,1.4835,1.4835,1.3826,1.3011,1.4519,1.5086,1.5086,1.5086,1.5086,1.5086,1.5086,1.5086,1.5092,1.5126,1.514,1.4578,1.2705,1.2145,1.1197,0.7416,0.647,0.5522,0.4002,0.3432,0.3052,0.3052,0.3052,0.3052,0.3052,0.3052,0.3052,0.3052,0.3052,0.3052,0.3052,0.3052,0.3052,0.3052,0.3029,0.2999,0.2962,0.2938,0.2909,0.2875,0.2874,0.2861,0.2838,0.2807,0.2777,0.2747,0.2716,0.2699,1.2965,1.2965,1.312,1.359,1.3863,1.3863,1.3706,1.371,1.3711,1.3535,1.3403,1.3403,1.3403,1.3403,1.3403,1.3417,1.3654,1.3844,1.3858,1.4116,1.4346,1.4475,1.4502,1.4618,1.4903,1.4957,1.5025,1.5153,1.5174,1.5167,1.5147,1.5167,1.5181,1.5181,1.5181,1.5181,1.5181,1.5181,1.5181,1.5181,1.5181,1.5181,1.5181,1.5181,1.5181,1.5181,1.5181,0.0,0.0,1.5181,1.5181,1.5181,1.5181,1.5181,1.4993,1.3081,1.3645,1.4966,1.3063,1.3627,1.514,1.514,1.4792,1.4408,1.478,1.478,1.478,1.478,1.478,1.478,1.478,1.478,1.4814,1.4957,1.4991,1.446,1.2688,1.2145,1.1574,0.9311,0.7419,0.609,0.59,0.4383,0.3052,0.3052,0.3052,0.3052,0.3052,0.3052,0.3052,0.3052,0.3052,0.3052,0.3052,0.3052,0.3052,0.3052,0.305,0.3022,0.2964,0.2958,0.2931,0.2875,0.2874,0.2872,0.287,0.284,0.2808,0.2778,0.2748,0.2718,1.2993,1.312,1.3274,1.3898,1.4094,1.4147,1.4054,1.3951,1.3823,1.3556,1.3403,1.3403,1.3403,1.3478,1.3566,1.3654,1.3844,1.4014,1.4102,1.4299,1.4448,1.4502,1.4679,1.4835,1.4957,1.5052,1.512,1.5181,1.5181,1.5181,1.5181,1.5181,1.5181,1.5181,1.5181,1.5181,1.5181,1.5181,1.5181,1.5181,1.5181,1.5181,1.5181,1.5181,1.5181,1.5181,1.5181,0.0,0.0,1.5181,1.5181,1.5181,1.5181,1.5181,1.5181,1.4234,1.4422,1.5181,1.4234,1.461,1.5181,1.5181,1.5099,1.5004,1.5004,1.5004,1.5004,1.5004,1.5004,1.5004,1.5004,1.5004,1.5025,1.5086,1.5099,1.4926,1.4222,1.404,1.3475,1.139,1.0252,0.9307,0.8174,0.628,0.4952,0.4952,0.3813,0.3052,0.3052,0.3052,0.3052,0.3052,0.3052,0.3052,0.3052,0.3052,0.3052,0.3052,0.3052,0.3033,0.299,0.2971,0.2942,0.29,0.2883,0.2874,0.2874,0.2844,0.2822,0.281,0.278,0.2748,1.3382,1.3472,1.359,1.4361,1.4461,1.4388,1.4229,1.4164,1.3901,1.3569,1.3403,1.3403,1.3403,1.3526,1.3675,1.3817,1.3973,1.4122,1.4278,1.4421,1.4529,1.457,1.4991,1.5169,1.5031,1.5126,1.5181,1.5181,1.5181,1.5181,1.5181,1.5181,1.5181,1.5181,1.5181,1.5181,1.5181,1.5181,1.5181,1.5181,1.5181,1.5181,1.5181,1.5181,1.5181,1.5181,1.5181,0.0,0.0,1.5181,1.5181,1.5181,1.5181,1.5181,1.5181,1.5181,1.5181,1.5181,1.5181,1.5181,1.5181,1.5181,1.5181,1.5181,1.5181,1.5181,1.5181,1.5181,1.5181,1.5181,1.5181,1.5181,1.5181,1.5181,1.5181,1.5181,1.5181,1.5181,1.4798,1.3281,1.2522,1.1768,1.0257,0.8364,0.685,0.628,0.4952,0.3813,0.3243,0.3052,0.3052,0.3052,0.3052,0.3052,0.3052,0.3052,0.3052,0.3052,0.3052,0.3039,0.3009,0.2977,0.2947,0.2916,0.2889,0.2874,0.2874,0.2852,0.2837,0.2827,0.2797,0.2762,1.399,1.4182,1.4515,1.4814,1.4923,1.4707,1.4229,1.4164,1.3901,1.3569,1.3403,1.3403,1.3403,1.3526,1.3675,1.3817,1.3973,1.4122,1.4278,1.4421,1.457,1.4719,1.5236,1.5575,1.5167,1.5181,1.5181,1.5181,1.5181,0.0,1.5181,1.5181,1.5181,1.5181,1.5181,1.5181,1.5181,1.5181,1.5181,1.5181,1.5181,1.5181,1.5181,1.5181,1.5181,0.0,0.0,0.0,0.0,1.5181,1.5181,1.5181,1.5181,1.5181,1.5181,1.5181,1.5181,1.5181,1.5181,1.5181,1.5181,1.5181,1.5181,1.5181,1.5181,1.5181,1.5181,1.5181,1.5181,1.5181,1.5181,1.5181,1.5181,1.5181,1.5181,1.5181,1.5181,1.5181,1.5181,1.5181,1.3469,1.2145,1.2145,1.0446,0.8364,0.647,0.609,0.5332,0.3432,0.3052,0.3052,0.3052,0.3052,0.3052,0.3052,0.3052,0.3052,0.3052,0.3052,0.3039,0.3009,0.2977,0.2947,0.2916,0.2889,0.2874,0.2874,0.2874,0.2857,0.2827,0.2797,0.2751,1.3677,1.372,1.3781,1.468,1.4556,1.4238,1.44,1.4244,1.3901,1.3569,1.3735,1.377,1.3539,1.3675,1.3824,1.3973,1.4129,1.4278,1.4421,1.4931,1.5083,1.4875,1.5396,1.5882,1.5744,1.5931,1.6306,1.6306,1.6306,1.6306,1.6306,1.6306,1.5931,1.5181,1.5181,1.5181,1.5181,1.5181,1.5181,1.5181,1.5181,1.5181,1.5181,1.5181,1.5181,0.0,0.0,0.0,0.0,1.5181,1.5181,1.5181,1.5181,1.5181,1.5181,1.5181,1.5181,1.5181,1.5181,1.5181,1.5181,1.5181,1.5181,1.5181,1.5181,1.5181,1.5181,1.5181,1.5181,1.5181,1.5181,1.5181,1.5181,1.5181,1.5181,1.5181,1.5181,1.5181,1.5181,1.5181,1.461,1.4228,1.4228,1.2528,1.0446,0.8554,0.704,0.5332,0.3432,0.3052,0.3052,0.3052,0.3052,0.3052,0.3052,0.3052,0.3052,0.3052,0.3052,0.3048,0.3039,0.3009,0.2979,0.2947,0.2917,0.2893,0.2874,0.2874,0.287,0.2859,0.2807,0.2784,1.3514,1.3728,1.3785,1.4684,1.4355,1.415,1.4645,1.4445,1.4066,1.3894,1.4066,1.4116,1.3937,1.3913,1.4064,1.4048,1.4373,1.4701,1.4854,1.5362,1.573,1.5953,1.6061,1.6306,1.6501,1.6681,1.6681,1.6681,1.6681,1.6681,1.6681,1.6681,1.6494,1.5744,1.5556,1.5368,1.5368,1.5368,1.5181,1.5181,1.5181,1.5181,1.5181,1.5181,1.5181,0.0,0.0,0.0,0.0,1.5181,1.5181,1.5181,1.5181,1.5181,1.5181,1.5181,1.5181,1.5181,1.5181,1.5181,1.5181,1.5181,1.5181,1.5181,1.5181,1.5181,1.5181,1.5181,1.5181,1.5181,1.5181,1.5181,1.5181,1.5181,1.5181,1.5181,1.5181,1.5181,1.5181,1.5181,1.5181,1.5181,1.5181,1.4228,1.2716,1.0635,0.9122,0.7416,0.4573,0.4192,0.4004,0.3243,0.3052,0.3052,0.3052,0.3052,0.3052,0.3052,0.3052,0.3052,0.3052,0.3022,0.2992,0.2962,0.2931,0.2902,0.2874,0.2874,0.2868,0.2856,0.283,0.2815,0.0,1.4048,1.4251,1.4746,1.4708,1.466,1.4992,1.4624,0.0,1.4548,1.4397,1.4297,1.428,1.4436,1.4428,1.4235,1.4738,1.507,1.5413,1.5941,1.6521,1.7398,1.7055,1.6868,1.7437,1.7055,1.6868,1.6868,1.6868,1.6868,1.6868,1.6868,1.6868,1.6868,1.6306,1.5938,1.5938,1.5556,1.5181,1.5181,1.5181,1.5181,1.5181,1.5181,1.5181,0.0,0.0,0.0,0.0,1.5181,1.5181,1.5181,1.5181,1.5181,1.5181,1.5181,1.5181,1.5181,1.5181,1.5181,1.5181,1.5181,1.5181,1.5181,1.5181,1.5181,1.5181,1.5181,1.5181,1.5181,1.5181,1.5181,1.5181,1.5181,1.5181,1.5181,1.5181,1.5181,1.5181,1.5181,1.5181,1.5181,1.5181,1.5181,1.461,1.2522,1.2145,1.063,0.666,0.609,0.5332,0.3243,0.3052,0.3052,0.3052,0.3052,0.3052,0.3052,0.3052,0.3052,0.3052,0.3025,0.2995,0.2965,0.2932,0.2902,0.2874,0.2874,0.2859,0.2833,0.2859,0.2841,1.4009,0.0,1.3958,1.4572,1.4631,1.4825,0.0,1.5193,1.5051,1.4713,1.4991,1.5134,1.4614,1.4944,1.5104,1.4913,1.5425,1.5764,1.5933,1.6383,1.6778,1.7234,1.7242,1.725,1.7437,1.7616,1.7803,1.7803,1.7803,1.7803,1.7803,1.7803,1.7803,1.7803,1.7242,1.6688,1.5938,1.5751,1.5563,1.5181,1.5181,1.5181,1.5181,1.5181,1.5181,0.0,0.0,0.0,1.5181,1.5181,1.5181,1.5181,1.5181,1.5181,1.5181,1.5181,1.5181,1.5181,1.5181,1.5181,1.5181,1.5181,1.5181,1.5181,1.5181,1.5181,1.5181,1.5181,1.5181,1.5181,1.5181,1.5181,1.5181,1.5181,1.5181,1.5181,1.5181,1.5181,1.5181,1.5181,1.5181,1.5181,1.5181,1.5181,1.461,1.2522,1.2145,1.063,0.666,0.609,0.5332,0.3243,0.3052,0.3052,0.3052,0.3052,0.3052,0.3052,0.3052,0.3052,0.3052,0.3046,0.3026,0.2996,0.2943,0.2902,0.2874,0.2874,0.287,0.2863,0.2846,0.2844,1.439,1.4167,1.4117,1.4863,1.5043,1.5216,1.5546,1.5546,1.5404,1.5474,1.5576,1.5555,1.528,1.5572,1.5707,1.5417,1.5883,1.6572,1.7001,1.7266,1.7429,1.7803,1.7803,1.7803,0.0,1.7989,1.8176,1.8176,1.8176,1.8176,1.8176,1.8176,1.8176,1.8176,1.7989,1.7429,1.6688,1.6306,1.6119,1.5931,1.5556,1.5556,1.5563,1.5368,1.5181,0.0,0.0,0.0,1.5181,1.5181,1.5181,1.5181,1.5181,1.5181,1.5181,1.5181,1.5181,1.5181,1.5181,1.5181,1.5181,1.5181,1.5181,1.5181,1.5181,1.5181,1.5181,1.5181,1.5181,1.5181,1.5181,1.5181,1.5181,1.5181,1.5181,1.5181,1.5181,1.5181,1.5181,1.5181,1.5181,1.5181,1.5181,1.5181,1.4805,1.3664,1.3657,1.2522,0.9307,0.7985,0.666,0.4764,0.3623,0.3052,0.3052,0.3052,0.3052,0.3052,0.3052,0.3052,0.3052,0.3052,0.3031,0.2987,0.2939,0.2902,0.2874,0.2874,0.2874,0.2874,0.2857,0.2859,1.4848,1.4541,1.4563,1.5216,1.5381,1.5546,1.5883,1.5711,1.5593,1.6267,1.5997,1.5778,1.6097,1.6175,1.6292,1.6069,1.6526,1.7214,1.7908,1.8079,1.8176,1.8176,1.8176,1.8176,1.8176,1.8176,1.8176,1.8176,1.8176,1.8176,1.8176,1.8176,1.8176,1.8176,1.8176,1.7989,1.7624,1.7055,1.6681,1.6681,1.6306,1.5938,1.5938,1.5556,1.5368,0.0,0.0,0.0,1.5181,1.5181,1.5181,1.5181,1.5181,1.5181,1.5181,1.5181,1.5181,1.5181,1.5181,1.5181,1.5181,1.5181,1.5181,1.5181,1.5181,1.5181,1.5181,1.5181,1.5181,1.5181,1.5181,1.5181,1.5181,1.5181,1.5181,1.5181,1.5181,1.5181,1.5181,1.5181,1.5181,1.5181,1.5181,1.5181,1.5181,1.5181,1.5201,1.4448,1.2522,1.0649,0.8759,0.628,0.4573,0.3432,0.3052,0.3052,0.3052,0.3052,0.3052,0.3052,0.3052,0.3052,0.3025,0.2969,0.2938,0.2909,0.2881,0.2876,0.2874,0.2874,0.2874,0.2874,1.5046,1.5108,1.5216,1.5381,1.5711,1.5883,1.6048,1.5883,1.5932,1.6267,1.643,1.643,1.6113,1.6617,1.6784,1.6627,1.727,1.7908,1.8111,1.816,1.8176,1.8176,1.8176,1.8176,1.8176,1.8176,1.8176,1.8176,1.8176,1.8176,1.8176,1.8176,1.8176,1.8176,1.8176,1.8176,1.7989,1.7616,1.7055,1.6681,1.6681,1.6494,1.6494,1.6126,1.5751,0.0,0.0,1.5181,1.5181,1.5181,1.5181,1.5181,1.5181,1.5181,1.5181,1.5181,1.5181,1.5181,1.5181,1.5181,1.5181,1.5181,1.5181,1.5181,1.5181,1.5181,1.5181,1.5181,1.5181,1.5181,1.5181,1.5181,1.5181,1.5181,1.5181,1.5181,1.5181,1.5181,1.5181,1.5181,1.5181,1.5181,1.5181,1.5181,1.5181,1.5181,1.5296,1.4564,1.2539,1.2042,1.0349,0.6476,0.5903,0.4952,0.3243,0.3052,0.3052,0.3052,0.3052,0.3052,0.3052,0.3052,0.3036,0.3001,0.2969,0.2939,0.2909,0.2886,0.2874,0.2874,0.2874,0.2874,1.5287,1.5491,1.5719,1.5719,1.5875,1.6048,1.6048,1.6121,1.6235,1.6414,1.66,1.6607,1.6609,1.6961,1.7348,1.7262,1.7628,1.7981,1.8152,1.8176,1.8176,0.0,0.0,1.8176,1.8176,1.8176,1.8176,1.8176,0.0,0.0,1.8176,1.8176,1.8176,1.8176,1.8176,1.8176,1.8176,1.7989,1.7803,1.7429,1.7242,1.7055,1.7055,1.6494,1.6119,1.5938,0.0,1.5375,1.5181,1.5181,1.5181,1.5181,1.5181,1.5181,1.5181,1.5181,1.5181,1.5181,1.5181,1.5181,1.5181,1.5181,1.5181,1.5181,1.5181,1.5181,1.5181,1.5181,1.5181,1.5181,1.5181,1.5181,1.5181,1.5181,1.5181,1.5181,1.5181,1.5181,1.5181,1.5181,1.5181,1.5181,1.5181,1.5248,1.5303,1.5303,1.5438,1.5122,1.4087,1.3101,1.1729,0.9768,0.7439,0.5713,0.4761,0.3813,0.3052,0.3052,0.3052,0.3052,0.3052,0.3052,0.3037,0.3007,0.2994,0.2962,0.2916,0.2902,0.2889,0.2874,0.2874,0.2874,1.5663,1.5679,1.6032,1.5991,1.6048,1.6097,1.6056,1.6178,1.6357,1.6544,1.669,1.6868,1.7128,1.7356,1.7599,1.7875,1.7949,1.8022,1.8152,1.8176,1.8176,1.8176,1.8176,1.8176,1.8176,1.8176,1.8176,1.8176,0.0,0.0,1.8176,1.8176,1.8176,1.8176,1.8176,1.8176,1.8176,1.8176,1.8176,1.8176,1.7624,1.7437,1.7437,1.6868,1.6494,1.6119,1.5938,1.5751,1.5368,1.5181,1.5181,1.5181,1.5181,1.5181,1.5181,1.5181,1.5181,1.5181,1.5181,1.5181,1.5181,1.5181,1.5181,1.5181,1.5181,1.5181,1.5181,1.5181,1.5181,1.5181,1.5181,1.5181,1.5181,1.5181,1.5181,1.5181,1.5181,1.5181,1.5194,1.5228,1.5235,1.5248,1.5282,1.5384,1.5466,1.5466,1.5594,1.5676,1.5642,1.4174,1.2938,1.2521,0.8984,0.647,0.5522,0.4002,0.3052,0.3052,0.3052,0.3052,0.3052,0.3052,0.3041,0.3018,0.301,0.2984,0.2938,0.2923,0.2905,0.2883,0.2876,0.2874,1.5837,1.5918,1.6008,1.5837,1.604,1.6243,1.6081,1.6178,1.6357,1.6544,1.6592,1.6755,1.7274,1.7648,1.7892,1.7916,1.8054,1.816,1.8176,0.0,1.8176,1.8176,1.8176,1.8176,1.8176,1.8176,1.8176,0.0,0.0,0.0,1.8176,1.8176,1.8176,1.8176,1.8176,1.8176,1.8176,1.8176,1.8176,1.8176,1.7624,1.7437,1.7437,1.6868,1.6681,1.6681,1.6126,1.5938,1.5751,1.5368,1.5181,1.5181,1.5181,1.5181,1.5181,1.5181,1.5181,1.5181,1.5181,1.5181,1.5181,1.5181,1.5181,1.5181,1.5181,1.5181,1.5181,1.5181,1.5181,1.5181,1.5181,1.5181,1.5181,1.5181,1.5181,1.5181,1.5181,1.5181,1.5221,1.5364,1.5398,1.5438,1.5581,1.5615,1.5622,1.5622,1.5744,1.5791,1.5655,1.5435,1.4591,1.2532,1.0317,0.7416,0.3623,0.3243,0.3052,0.3052,0.3052,0.3052,0.3052,0.3052,0.3051,0.305,0.3021,0.3005,0.3001,0.2943,0.2915,0.2912,0.2886,0.2874,1.5959,1.5991,1.6056,1.6089,1.6292,1.6397,1.6113,1.7178,1.8345,1.8587,1.8631,1.8602,1.7813,1.9699,2.0696,1.8408,1.913,1.9507,1.8346,1.8176,1.8176,1.8176,1.8176,1.8176,1.8176,1.8176,1.8176,0.0,0.0,0.0,1.8176,1.8176,1.8176,1.8176,1.8176,1.8176,1.8176,1.8176,1.8176,1.8176,1.7989,1.7989,1.7803,1.7803,1.7429,1.7055,1.6876,1.6501,1.5938,1.5751,1.5368,1.5181,1.5181,1.5181,1.5181,1.5181,1.5181,1.5181,1.5181,1.5181,1.5181,1.5181,1.5248,1.5323,1.5323,1.5391,1.5466,1.5466,1.5466,1.5445,1.535,1.5323,1.535,1.5445,1.5466,1.5466,1.5466,1.5466,1.5486,1.554,1.5554,1.5567,1.5628,1.571,1.5771,1.5771,1.59,1.594,1.5791,1.5696,1.5195,1.4266,1.1082,0.7985,0.5142,0.3813,0.3052,0.3052,0.3052,0.3052,0.3052,0.3052,0.3052,0.3052,0.3041,0.3025,0.3006,0.2965,0.2934,0.2915,0.2887,0.2874,1.6048,1.6089,1.6154,1.6276,1.6986,1.7443,1.7178,1.7926,1.9066,2.0416,2.0811,2.0731,1.9762,2.1238,2.2041,1.9419,1.9534,1.949,1.8338,1.8176,1.8176,1.8176,1.8176,1.8176,1.8176,1.8176,1.8176,0.0,0.0,0.0,0.0,1.8176,1.8176,1.8176,1.8176,1.8176,1.8176,1.8176,1.8176,1.8176,1.8176,1.8176,1.7989,1.7858,1.7695,1.7515,1.7381,1.7034,1.6467,1.627,1.5891,1.5513,1.5323,1.5513,1.5513,1.533,1.5323,1.5323,1.5323,1.5323,1.5323,1.5323,1.5398,1.5486,1.5486,1.5554,1.5642,1.5642,1.5642,1.5628,1.5567,1.552,1.5506,1.5615,1.5642,1.5642,1.5642,1.5642,1.5655,1.5696,1.571,1.5723,1.5771,1.5859,1.5927,1.5927,1.6015,1.6029,1.5872,1.573,1.5368,1.44,1.182,0.8932,0.628,0.4764,0.3813,0.3052,0.3052,0.3052,0.3052,0.3052,0.3052,0.3052,0.3052,0.3041,0.3021,0.2991,0.296,0.293,0.2901,0.2882,1.6048,1.617,1.63,1.63,1.7917,1.9742,1.9733,1.8388,1.788,2.1619,2.2858,2.3343,2.3343,2.2101,2.1121,2.1121,1.9462,1.8363,1.8176,1.8176,1.8176,1.8176,1.8176,1.8176,1.8176,1.8176,1.8176,0.0,0.0,0.0,0.0,1.8176,1.8176,1.8176,1.8176,1.8176,1.8176,1.8176,1.8176,1.8176,1.8176,1.7989,1.7445,1.7041,1.7117,1.7694,1.7298,1.7566,1.7951,1.6787,1.6401,1.6401,1.5828,1.6022,1.6401,1.5828,1.5642,1.5642,1.5642,1.5642,1.5642,1.5642,1.5642,1.5642,1.5642,1.5642,1.5642,1.5642,1.5642,1.5676,1.5818,1.575,1.5642,1.5642,1.5642,1.5642,1.5642,1.5642,1.5683,1.5825,1.5852,1.5906,1.6056,1.6083,1.6083,1.6083,1.6083,1.6029,1.5872,1.5723,1.4738,1.255,1.2145,1.063,0.647,0.609,0.5332,0.3242,0.3052,0.3052,0.3052,0.3052,0.3052,0.3052,0.3052,0.3052,0.3052,0.3022,0.2991,0.2961,0.293,0.2901,1.6048,1.7156,1.8283,1.8117,2.004,2.215,2.3168,2.322,2.3564,2.4974,2.6479,2.6888,2.436,2.5774,0.0,2.3504,2.386,2.3494,2.0566,2.0196,1.9648,1.8363,1.8176,1.8176,1.8176,1.8176,1.8176,0.0,0.0,0.0,0.0,1.8176,1.8176,1.8176,1.8176,1.8176,1.8176,1.8176,1.8176,1.8176,1.8306,1.8371,1.8182,1.8049,1.8137,1.8456,1.8312,1.8143,1.7943,1.718,1.6987,1.6987,1.6408,1.6215,1.6401,1.5828,1.5642,1.5642,1.5642,1.5642,1.5642,1.5642,1.571,1.5791,1.5791,1.5866,1.5947,1.5947,1.5947,1.5961,1.6001,1.5981,1.5947,1.5947,1.5947,1.5947,1.5947,1.5947,1.5961,1.6008,1.6015,1.6029,1.6076,1.6083,1.6083,1.6083,1.6083,1.5988,1.5737,1.5479,1.5093,1.4429,1.3093,1.1768,1.0441,0.7795,0.5903,0.5332,0.3813,0.3052,0.3052,0.3052,0.3052,0.3052,0.3052,0.3052,0.3052,0.3022,0.2991,0.2961,0.293,0.2901,1.6939,1.8247,1.9433,2.0279,2.215,2.4337,2.6004,2.6676,2.661,2.6345,2.7788,2.8673,2.6594,2.764,0.0,2.5514,2.5514,2.4967,2.2586,2.1665,2.0751,1.9462,1.8727,1.8176,1.8176,1.8176,1.8176,0.0,0.0,0.0,0.0,1.8176,1.8176,1.8176,1.8176,1.8176,1.8176,1.8249,1.8282,1.829,1.8468,1.8598,1.8663,1.8472,1.8536,1.8834,1.8907,1.8737,1.8146,1.7764,1.7764,1.7569,1.7179,1.6977,1.7172,1.6398,1.6203,1.6007,1.5811,1.5811,1.5811,1.5811,1.5872,1.5947,1.5947,1.6008,1.6083,1.6083,1.6083,1.6083,1.6083,1.6083,1.6083,1.6083,1.6083,1.6083,1.6083,1.6083,1.6083,1.6083,1.6083,1.6083,1.6083,1.6083,1.6083,1.6083,1.5981,1.5839,1.5662,1.5371,1.5181,1.5181,1.404,1.3093,1.2334,0.9874,0.8174,0.7416,0.5332,0.4383,0.4383,0.3432,0.3052,0.3052,0.3052,0.3052,0.3052,0.3033,0.3003,0.2961,0.2942,0.2912,1.8551,1.9423,2.0358,2.2492,2.4337,2.614,2.8182,2.839,2.7761,2.6487,2.7644,2.9179,2.9472,2.8271,2.7341,2.7341,2.5696,2.4419,2.4237,2.2586,2.1306,2.1111,1.9462,1.8176,1.8176,1.8176,1.8176,0.0,0.0,0.0,0.0,1.8176,1.8176,1.8176,1.8176,1.8184,1.82,1.8363,1.846,1.8476,1.8663,1.8834,1.898,1.8598,1.8606,1.9013,1.9183,1.9058,1.8655,1.8655,1.8655,1.8457,1.8061,1.8061,1.8457,1.7268,1.707,1.6871,1.6275,1.6083,1.6083,1.6083,1.6083,1.6083,1.6083,1.6083,1.6083,1.6083,1.6083,1.6083,1.6083,1.6083,1.6083,1.6083,1.6083,1.6083,1.6083,1.6083,1.6083,1.6083,1.6083,1.6083,1.6083,1.6083,1.6076,1.6062,1.5818,1.5635,1.5622,1.5364,1.5181,1.5181,1.5181,1.4422,1.271,1.2334,1.139,0.95,0.7416,0.628,0.628,0.4192,0.3052,0.3052,0.3052,0.3052,0.3052,0.3052,0.3022,0.2965,0.2962,0.2931,1.8881,2.1242,2.3677,2.4495,2.6086,2.7709,2.8537,2.8551,2.8486,2.864,2.8987,2.9472,2.9766,2.9502,2.9362,2.9362,2.8989,2.8076,2.6604,2.4602,2.277,2.1296,1.9462,1.8176,1.8176,1.8176,1.8176,0.0,0.0,0.0,1.8176,1.8176,1.8176,1.8176,1.8176,1.8249,1.8387,1.8436,1.8525,0.0,1.8842,1.8948,1.898,1.8785,1.9061,1.9199,1.924,1.9256,1.9058,1.9058,1.9058,1.9058,1.8457,1.8457,1.8457,1.7863,1.7466,1.7466,1.6871,1.6672,1.6672,1.6282,1.6083,1.6083,1.6083,1.6083,1.6083,1.6083,1.6083,1.6083,1.6083,1.6083,1.6083,1.6083,1.6083,1.6083,1.6083,1.6083,1.6083,1.6083,1.6083,1.6083,1.6083,1.6083,1.6042,1.592,1.575,1.5594,1.5479,1.5296,1.5181,1.5181,1.5181,1.4993,1.461,1.3093,1.1956,1.1579,0.969,0.8364,0.8364,0.4952,0.3052,0.3052,0.3052,0.3052,0.3052,0.3052,0.3033,0.2996,0.2972,0.2942,2.0186,2.2743,2.5224,2.6487,2.7669,2.8617,2.8778,2.8818,2.8938,2.9392,2.9486,2.9579,2.986,2.9913,2.9913,2.9913,2.9913,2.9554,2.8449,2.5878,2.3687,2.2586,2.0019,1.8176,1.8176,1.8176,1.8176,1.8176,0.0,1.8176,1.8176,1.8176,1.8176,1.8176,1.8176,1.8265,1.8452,1.8541,1.8671,1.885,1.9029,1.9118,1.9118,1.9118,1.9167,1.9256,1.9256,1.9256,1.9256,1.9256,1.9256,1.9256,1.9058,1.8853,1.8853,1.8259,1.8061,1.8061,1.7466,1.707,1.6864,1.6474,1.6282,1.6083,1.6083,1.6083,1.6083,1.6083,1.6083,1.6083,1.6083,1.6083,1.6083,1.6083,1.6083,1.6083,1.6083,1.6083,1.6083,1.6083,1.6083,1.6083,1.6083,1.6083,1.6029,1.5879,1.573,1.5588,1.5432,1.5276,1.5181,1.5181,1.5181,1.5181,1.5181,1.4234,1.3664,1.3664,1.1768,1.0635,1.0635,0.7606,0.5522,0.4573,0.3623,0.3052,0.3052,0.3052,0.3036,0.3006,0.2976,0.2945,2.2078,2.428,2.6223,2.8221,2.8858,2.9045,2.9045,2.9045,2.9125,2.9419,2.9526,2.9633,2.9873,2.9913,2.9913,2.9913,2.9913,2.9913,2.9913,2.6797,2.4419,2.4054,2.0936,1.8541,1.8176,1.8176,1.8176,1.8176,0.0,1.8176,1.8176,1.8176,1.8192,1.8225,1.8225,1.8322,1.8541,1.8696,1.8858,1.9029,1.9183,1.9256,1.9256,1.9256,1.9256,1.9256,1.9256,1.9256,1.9256,1.9256,1.9256,1.9256,1.9256,1.9256,1.9256,1.8853,1.8655,1.8655,1.8061,1.7466,1.7062,1.707,1.6672,1.6282,1.6282,1.6083,1.6083,1.6083,1.6083,1.6083,1.6083,1.6083,1.6083,1.6083,1.6083,1.6083,1.6083,1.6083,1.6083,1.6083,1.6083,1.6083,1.6083,1.6062,1.5988,1.5839,1.5696,1.5547,1.5391,1.5262,1.5181,1.5181,1.5181,1.5181,1.5181,1.5181,1.5181,1.5181,1.3664,1.271,1.271,1.0824,0.8932,0.7226,0.4761,0.3623,0.3623,0.3242,0.3039,0.3014,0.2979,0.2947,2.4472,2.6694,2.8842,2.9032,2.9005,2.9045,2.9045,2.9045,2.9125,2.9419,2.9686,2.9873,2.9913,2.9913,2.9913,2.9913,2.9913,2.9913,2.9913,2.8076,2.5878,2.4237,2.2034,2.001,1.8354,1.8176,1.8176,1.8176,1.8176,1.8176,1.8176,1.8176,1.8249,1.8412,1.842,1.8574,1.8907,1.8931,1.9037,1.9224,1.9248,1.9256,1.9256,1.9256,1.9256,1.9256,1.9256,1.9256,1.9256,1.9256,1.9256,1.9256,1.9256,1.9256,1.9256,1.9256,1.9256,1.9058,1.8655,1.8259,1.8259,1.7665,1.7268,1.6871,1.6871,1.6474,1.6083,1.6083,1.6083,1.6083,1.6083,1.6083,1.6083,1.6083,1.6083,1.6083,1.6083,1.6083,1.6083,1.6083,1.6083,1.6083,1.6083,1.5967,1.5832,1.5689,1.554,1.5384,1.5235,1.5194,1.5181,1.5181,1.5181,1.5181,1.5181,1.5181,1.5181,1.5181,1.4993,1.4798,1.4798,1.2904,1.1579,1.1385,0.7606,0.5713,0.5713,0.4004,0.305,0.3044,0.2988,0.296,2.6427,2.805,2.9205,2.9072,2.9045,2.9125,2.9459,2.9272,2.9165,2.9633,2.982,2.9913,2.9913,2.9913,2.9913,2.9913,2.9913,2.9913,2.9913,2.8256,2.6604,2.5878,2.2954,2.0751,1.9834,1.8913,1.8176,1.8176,1.8176,1.8176,1.8176,1.8273,1.8363,1.8452,1.855,1.8728,1.898,1.898,1.9077,1.9256,1.9256,1.9256,1.9256,1.9256,1.9256,1.9256,1.9256,1.9256,1.9256,1.9256,1.9256,1.9256,1.9256,1.9256,1.9256,1.9256,1.9256,1.9256,1.9058,1.8655,1.8457,1.8259,1.7863,1.7268,1.7268,1.6871,1.6474,1.6474,1.6275,1.6083,1.6083,1.6083,1.6083,1.6083,1.6083,1.6083,1.6083,1.6083,1.6083,1.6083,1.6083,1.6056,1.5967,1.59,1.5778,1.5547,1.5452,1.5357,1.5201,1.5181,1.5181,1.5181,1.5181,1.5181,1.5181,1.5181,1.5181,1.5181,1.5181,1.5181,1.5181,1.4422,1.3852,1.3852,0.9879,0.723,0.609,0.5142,0.4192,0.3051,0.299,0.2961,2.7772,2.8751,2.9245,2.9165,2.9152,2.9285,2.9793,2.9513,2.9299,2.9806,2.9913,2.9913,2.9913,2.9913,2.9913,2.9913,2.9913,2.994,3.002,2.8668,2.7546,2.7063,2.4441,2.2218,2.1111,1.9834,1.8727,1.8176,1.8176,1.8192,1.8241,1.8379,1.8493,1.8582,1.872,1.8874,1.9053,1.9053,1.9126,1.9256,1.9256,1.9256,1.9256,1.9256,1.9256,1.9256,1.9256,1.9256,1.9256,1.9256,1.9256,1.9256,1.9256,1.9256,1.9256,1.9256,1.9256,1.9256,1.9256,1.9058,1.8655,1.8655,1.8259,1.787,1.7672,1.7268,1.6871,1.6672,1.6474,1.6083,1.6083,1.6083,1.6083,1.6083,1.6083,1.6083,1.6083,1.6083,1.6083,1.6083,1.6083,1.6035,1.5879,1.5825,1.571,1.5452,1.5377,1.5309,1.5194,1.5181,1.5181,1.5181,1.5181,1.5181,1.5181,1.5181,1.5181,1.5181,1.5181,1.5181,1.5181,1.5181,1.5181,1.5181,1.215,0.969,0.7606,0.7037,0.609,0.4571,0.4479,0.4436,2.8497,2.9219,2.9806,2.9526,2.9459,2.9539,2.9847,2.9686,2.9553,2.986,2.9913,2.9913,2.9913,2.9913,2.9913,2.9913,2.9913,3.002,3.0301,3.0087,2.9093,2.75,2.6941,2.5138,2.1481,2.0936,2.0196,1.8363,1.8176,1.8249,1.8428,1.8444,1.8606,1.8948,1.8964,1.9053,1.924,1.9248,1.9248,1.9256,1.9256,1.9256,1.9256,1.9256,1.9256,1.9256,1.9256,1.9256,1.9256,1.9256,1.9256,1.9256,1.9256,1.9256,1.9256,1.9256,1.9256,1.9256,1.9256,1.9256,1.9256,1.9256,1.8861,1.8457,1.7863,1.7268,1.6871,1.6275,1.6083,1.6083,1.6083,1.6083,1.6083,1.6083,1.6083,1.6083,1.6083,1.6083,1.6083,1.6083,1.6083,1.6035,1.5879,1.5744,1.5594,1.5438,1.5289,1.5194,1.5181,1.5181,1.5181,1.5181,1.5181,1.5181,1.5181,1.5181,1.5181,1.5181,1.5181,1.5181,1.5181,1.5181,1.5181,1.5181,1.4993,1.3852,1.1956,0.9879,0.8932,0.8739,0.8563,0.8664,2.8698,2.9259,2.9619,2.9513,2.9486,2.9566,2.9847,2.9686,2.9566,2.986,2.9913,2.9913,2.9913,2.9913,2.9913,2.9913,2.9913,3.002,3.0314,3.01,2.9286,2.7512,2.6028,2.4043,2.1296,2.001,1.8964,1.8535,1.8355,1.8436,1.8615,1.8728,1.885,1.898,1.9094,1.9191,1.9256,1.9256,1.9256,1.9256,1.9256,1.9256,1.9256,1.9256,1.9256,1.9256,1.9256,1.9256,1.9256,1.9256,1.9256,1.9256,1.9256,1.9256,1.9256,1.9256,1.9256,1.9256,1.9256,1.9256,1.9256,1.9256,1.9256,1.9058,1.8861,1.8069,1.7268,1.7275,1.6679,1.6083,1.6083,1.6083,1.6083,1.6083,1.6083,1.6083,1.6083,1.6083,1.6083,1.6083,1.6001,1.5886,1.5744,1.5594,1.5438,1.5289,1.5215,1.5181,1.5181,1.5181,1.5181,1.5181,1.5181,1.5181,1.5181,1.5181,1.5181,1.5181,1.5181,1.5181,1.5181,1.5181,1.5181,1.5181,1.5181,1.4234,1.2145,1.139,1.0409,0.9032,0.8909,0.882,2.8871,2.9325,2.9606,2.9513,2.9553,2.9673,2.9873,2.9766,2.9686,2.9873,2.9913,2.9913,2.9913,2.9913,2.9913,2.9913,3.0007,3.014,3.0327,3.0194,2.9585,2.8465,2.6394,2.4258,2.2317,2.0481,1.9091,1.8533,1.8541,0.0,1.8801,1.8923,1.9013,1.9077,1.9199,1.9256,1.9256,1.9256,1.9256,1.9256,1.9256,1.9256,1.9256,1.9256,1.9256,1.9256,1.9256,1.9256,1.9256,1.9256,1.9256,1.9256,1.9256,1.9256,1.9256,1.9256,1.9256,1.9256,1.9256,1.9256,1.9256,1.9256,1.9256,1.9256,1.9058,1.8465,1.7672,1.7466,1.6871,1.6083,1.6083,1.6083,1.6083,1.6083,1.6083,1.6083,1.6083,1.6083,1.6083,1.6083,1.6001,1.5879,1.5737,1.5588,1.5438,1.5282,1.5215,1.5181,1.5181,1.5181,1.5181,1.5181,1.5181,1.5181,1.5181,1.5181,1.5181,1.5181,1.5181,1.5181,1.5181,1.5181,1.5181,1.5181,1.5181,1.461,1.3281,1.3281,1.246,1.1036,1.0926,1.0427,0.0,0.0,0.0,2.9566,2.9713,2.9913,2.9913,2.9913,2.9913,2.9913,2.9913,2.9913,2.9913,2.9913,2.9913,2.9927,3.0167,3.0368,3.0368,3.0368,3.0368,3.0368,2.8251,2.6165,2.4387,2.2369,2.0602,1.8912,1.8736,1.8809,1.898,1.8988,1.9077,1.9256,1.9256,1.9256,1.9256,1.9256,1.9256,1.9256,1.9256,1.9256,1.9256,1.9256,1.9256,1.9256,1.9256,1.9256,1.9256,1.9256,1.9256,1.9256,1.9256,1.9256,1.9256,1.9256,1.9256,1.9256,1.9256,1.9256,1.9256,1.9256,1.9256,1.9256,1.8655,1.8061,1.7665,1.707,1.6474,1.6083,1.6083,1.6083,1.6083,1.6083,1.6083,1.6083,1.6083,1.6083,1.6083,1.6083,1.6076,1.6029,1.5879,1.5737,1.5588,1.5432,1.5282,1.5187,1.5181,1.5181,1.5181,1.5181,1.5181,1.5181,1.5181,1.5181,1.5181,1.5181,1.5181,1.5181,1.5181,1.5181,1.5181,1.5181,1.5181,1.5181,1.5181,1.5181,1.5106,1.4964,1.4801,1.3481,2.9553,0.0,0.0,0.0,0.0,0.0,2.9913,2.9913,2.9913,2.9913,2.9913,2.9913,2.9913,2.9913,2.998,3.0207,3.0301,3.0434,3.0648,3.0488,2.9873,2.8754,2.6491,2.4387,2.2576,2.072,1.9288,0.0,1.8915,1.8988,1.9175,1.9183,1.9207,1.9256,1.9256,1.9256,1.9256,1.9256,1.9256,1.9256,1.9256,1.9256,1.9256,1.9256,1.9256,1.9256,1.9256,1.9256,1.9256,1.9256,1.9256,1.9256,1.9256,1.9256,1.9256,1.9256,1.9256,1.9256,1.9256,1.9256,1.9256,1.9256,1.9256,1.9256,1.9058,1.8465,1.7672,1.7466,1.6878,1.6083,1.6083,1.6083,1.6083,1.6083,1.6083,1.6083,1.6083,1.6083,1.6083,1.6083,1.5995,1.59,1.5859,1.5737,1.5588,1.5432,1.5371,1.5309,1.5194,1.5181,1.5181,1.5181,1.5181,1.5181,1.5181,1.5181,1.5181,1.5181,1.5181,1.5181,1.5181,1.5181,1.5181,1.5181,1.5181,1.5181,1.5181,1.5079,1.495,1.4794,1.4543,1.4018,0.0,0.0,2.9913,2.9913,0.0,0.0,2.9913,2.9913,2.9913,2.9913,2.9913,2.9913,2.9913,2.9913,3.0007,3.0314,3.0461,3.0595,3.0768,3.0755,3.036,2.9263,2.6317,2.4072,2.3174,2.0543,1.8907,1.9086,1.9094,1.9142,1.9256,1.9256,1.9256,1.9256,1.9256,1.9256,1.9256,1.9256,1.9256,1.9256,1.9256,1.9256,1.9256,1.9256,1.9256,1.9256,1.9256,1.9256,1.9256,1.9256,1.9256,1.9256,1.9256,1.9256,1.9256,1.9256,1.9256,1.9256,1.9256,1.9256,1.9256,1.9256,1.9256,1.9256,1.9256,1.8465,1.7672,1.7672,1.6878,1.6083,1.6083,1.6083,1.6083,1.6083,1.6083,1.6083,1.6083,1.6083,1.6083,1.6083,1.6008,1.5947,1.5947,1.5825,1.5676,1.5527,1.5452,1.5357,1.5201,1.5181,1.5181,1.5181,1.5181,1.5181,1.5181,1.5181,1.5181,1.5181,1.5181,1.5181,1.5181,1.5181,1.5181,1.5181,1.5181,1.512,1.4997,1.4977,1.4862,1.4638,1.4407,1.4299,0.0,0.0,0.0,0.0,0.0,0.0,2.9913,2.9913,2.9913,2.9913,2.9913,2.9913,2.9913,2.9913,3.0007,3.0314,3.0608,3.0795,3.0795,3.1036,3.1129,3.0875,2.7251,2.4883,2.513,2.132,1.9086,1.9248,1.9256,1.9256,1.9256,1.9256,1.9256,1.9256,1.9256,1.9256,1.9256,1.9256,1.9256,1.9256,1.9256,1.9256,1.9256,1.9256,1.9256,1.9256,1.9256,1.9256,1.9256,1.9256,1.9256,1.9256,1.9256,1.9256,1.9256,1.9256,1.9256,1.9256,1.9256,1.9256,1.9256,1.9256,1.9256,1.9256,1.9256,1.8465,1.7672,1.7474,1.6878,1.6083,1.6083,1.6083,1.6083,1.6083,1.6083,1.6083,1.6083,1.6083,1.6083,1.6083,1.6083,1.6083,1.6083,1.5967,1.5832,1.5683,1.5533,1.5377,1.5228,1.5194,1.5181,1.5181,1.5181,1.5181,1.5181,1.5181,1.5181,1.5181,1.5181,1.5181,1.5181,1.5181,1.5181,1.5181,1.5167,1.5025,1.474,1.4875,1.4787,1.4482,1.436,1.4299,0.0,0.0,0.0,0.0,0.0,0.0,2.9913,2.9913,2.9913,2.9913,2.9913,2.9913,2.9913,2.9913,3.0007,3.0314,3.0608,3.0795,3.0795,3.1036,3.1209,3.1142,2.7511,2.513,2.5378,2.1725,1.9224,1.9256,1.9256,1.9256,1.9256,1.9256,1.9256,1.9256,1.9256,1.9256,1.9256,1.9256,1.9256,1.9256,1.9256,1.9256,1.9256,1.9256,1.9256,1.9256,1.9256,1.9256,1.9256,1.9256,1.9256,1.9256,1.9256,1.9256,1.9256,1.9256,1.9256,1.9256,1.9256,1.9256,1.9256,1.9256,1.9256,1.9256,1.9256,1.8465,1.7474,1.6679,1.6282,1.6083,1.6083,1.6083,1.6083,1.6083,1.6083,1.6083,1.6083,1.6083,1.6083,1.6083,1.6083,1.6083,1.6083,1.6056,1.5988,1.5832,1.5689,1.554,1.5384,1.5255,1.5181,1.5181,1.5181,1.5181,1.5181,1.5181,1.5181,1.5181,1.5181,1.5181,1.5181,1.5181,1.5181,1.5181,1.5072,1.4923,1.474,1.4767,1.4631,1.434,1.4312,1.4299,0.0,0.0,0.0,2.9887,0.0,0.0,0.0,2.9913,2.9913,2.9913,2.9913,2.9913,2.9913,2.9913,2.9967,3.0114,3.0381,3.0581,3.0581,3.1076,3.145,3.145,2.8747,2.6489,2.5647,2.276,2.0432,1.9454,1.9256,1.9256,1.9256,1.9256,1.9256,1.9256,1.9256,1.9256,1.9256,1.9256,1.9256,1.9256,1.9256,1.9256,1.9256,1.9256,1.9256,1.9256,1.9256,1.9256,1.9256,1.9256,1.9256,1.9256,1.9256,1.9256,1.9256,1.9256,1.9256,1.9256,1.9256,1.9256,1.9256,1.9256,1.9256,1.9256,1.9256,1.8465,1.7474,1.6672,1.6282,1.6083,1.6083,1.6083,1.6083,1.6083,1.6083,1.6083,1.6083,1.6083,1.6083,1.6083,1.6083,1.6083,1.6083,1.6083,1.6029,1.5879,1.573,1.5588,1.5432,1.5276,1.5181,1.5181,1.5181,1.5181,1.5181,1.5181,1.5181,1.5181,1.5181,1.5181,1.5181,1.5181,1.5181,1.5181,1.5045,1.4896,1.474,1.4665,1.4516,1.4299,1.4299,1.4299,0.0,0.0,0.0,0.0,0.0,2.9913,0.0,0.0,0.0,2.9913,2.9913,2.9913,2.9913,2.9913,2.9873,2.9766,3.0087,3.0314,3.0207,3.0955,3.153,3.1583,2.9886,2.7792,2.5658,2.3531,2.1594,1.9454,1.9651,1.9651,1.9256,1.9256,1.9256,1.9256,1.9256,1.9256,1.9256,1.9256,1.9256,1.9256,1.9256,1.9256,1.9256,1.9256,1.9256,1.9256,1.9256,1.9256,1.9256,1.9256,1.9256,1.9256,1.9256,1.9256,1.9256,1.9256,1.9256,1.9256,1.9256,1.9256,1.9256,1.9256,1.9256,1.9256,1.9256,1.8465,1.7665,1.707,1.6474,1.6083,1.6083,1.6083,1.6083,1.6083,1.6083,1.6083,1.6083,1.6083,1.6083,1.6083,1.6083,1.6083,1.6083,1.6083,1.6042,1.5913,1.5771,1.5628,1.5472,1.5323,1.5215,1.5187,1.5181,1.5181,1.5181,1.5181,1.5181,1.5181,1.5181,1.5181,1.5181,1.5181,1.5167,1.514,1.4997,1.4848,1.4699,1.4543,1.4414,1.4299,1.4299,1.4299,0.0,0.0,0.0,0.0,2.9913,0.0,0.0,0.0,2.9913,2.9913,0.0,2.9913,2.9913,0.0,0.0,2.9219,2.982,3.0181,2.9659,3.0341,3.0982,3.1249,2.9772,2.7792,2.5658,2.3531,2.1594,1.9454,2.1005,2.1201,1.9454,1.9256,1.9256,1.9256,1.9256,1.9256,1.9256,1.9256,1.9256,1.9256,1.9256,1.9256,1.9256,1.9256,1.9256,1.9256,1.9256,1.9256,1.9256,1.9256,1.9256,1.9256,1.9256,1.9256,1.9256,1.9256,1.9256,1.9256,1.9256,1.9256,1.9256,1.9256,1.9256,1.9256,1.8655,1.8259,1.7665,1.707,1.6474,1.6083,1.6083,1.6083,1.6083,1.6083,1.6083,1.6083,1.6083,1.6083,1.6083,1.6083,1.6083,1.6083,1.6083,1.6083,1.6076,1.6056,1.5927,1.5778,1.5635,1.5479,1.5337,1.5194,1.5181,1.5181,1.5181,1.5181,1.5181,1.5181,1.5181,1.5181,1.5181,1.5181,1.512,1.4997,1.4841,1.4692,1.4536,1.4394,1.4319,1.4299,1.4299,1.4299,0.0,0.0,0.0,0.0,0.0,0.0,0.0,0.0,2.9913,0.0,0.0,0.0,0.0,0.0,0.0,0.0,2.986,3.002,2.9766,3.0194,3.0648,3.0942,3.0473,0.0,2.7384,2.5464,2.3971,2.312,2.2631,2.2032,2.1362,2.0097,1.9256,1.9256,1.9256,1.9256,1.9256,1.9256,1.9256,1.9256,1.9256,1.9256,1.9256,1.9256,1.9256,1.9256,1.9256,1.9256,1.9256,1.9256,1.9256,1.9256,1.9256,1.9256,1.9256,1.9256,1.9256,1.9256,1.9256,1.9256,1.9256,1.9256,1.9256,1.9256,1.9058,1.8465,1.7672,1.7466,1.6672,1.6083,1.6083,1.6083,1.6083,1.6083,1.6083,1.6083,1.6083,1.6083,1.6083,1.6083,1.6083,1.6083,1.6083,1.6083,1.6083,1.6083,1.5954,1.5805,1.5655,1.5506,1.535,1.5201,1.5181,1.5181,1.5181,1.5181,1.5181,1.5181,1.5181,1.5181,1.5181,1.5181,1.5113,1.4977,1.4821,1.4665,1.4509,1.4367,1.4299,1.4299,1.4299,1.4299,2.9913,0.0,0.0,0.0,0.0,0.0,0.0,0.0,0.0,0.0,0.0,0.0,0.0,0.0,0.0,2.97,0.0,2.986,2.97,2.9993,3.0341,3.0635,3.0359,2.9695,0.0,2.7099,2.6078,2.5983,2.4876,2.4102,2.373,2.1974,2.0896,2.0312,2.026,1.984,1.9256,1.9256,1.9256,1.9256,1.9256,1.9256,1.9256,1.9256,1.9256,1.9256,1.9256,1.9256,1.9256,1.9256,1.9256,1.9256,1.9256,1.9256,1.9256,1.9256,1.9256,1.9256,1.9256,1.9256,1.9256,1.9256,1.9256,1.9272,1.9115,1.8504,1.768,1.7525,1.6907,1.6083,1.6083,1.611,1.6144,1.6144,1.6171,1.6191,1.6151,1.6144,1.613,1.609,1.6083,1.6083,1.6083,1.6083,1.6083,1.6083,1.5988,1.5852,1.5662,1.554,1.5398,1.5201,1.5181,1.5181,1.5181,1.5181,1.5181,1.5181,1.5181,1.5181,1.5181,1.5147,1.5059,1.4909,1.4753,1.4604,1.4455,1.4346,1.4299,1.4299,1.4299,1.4299,0.0,0.0,0.0,2.9913,0.0,0.0,0.0,0.0,2.9913,0.0,0.0,0.0,0.0,0.0,0.0,0.0,2.9539,0.0,0.0,2.9566,3.0047,3.0341,2.8938,2.7884,0.0,2.7984,2.7436,0.0,2.7766,0.0,2.6341,2.5927,2.4825,2.2661,2.2472,2.1397,1.9256,1.9256,1.9256,1.9256,1.9256,1.9256,1.9256,1.9256,1.9256,1.9256,1.9256,1.9256,1.9256,1.9256,1.9256,1.9256,1.9256,1.9256,1.9256,1.9256,1.9256,1.9256,1.9256,1.9256,1.9256,1.9256,1.9256,1.9289,1.886,1.8191,1.7702,1.7257,1.6592,1.6083,1.6083,1.6191,1.63,1.63,1.6408,1.6469,1.6334,1.63,1.6259,1.611,1.6083,1.6083,1.6083,1.6083,1.6083,1.6083,1.6076,1.5967,1.5676,1.5635,1.5513,1.5215,1.5181,1.5181,1.5181,1.5181,1.5181,1.5181,1.5181,1.5181,1.5181,1.5052,1.4903,1.4753,1.4597,1.4448,1.4306,1.4299,1.4299,1.4299,1.4299,1.4299,0.0,0.0,3.0207,3.0207,0.0,0.0,0.0,0.0,0.0,0.0,0.0,0.0,0.0,0.0,2.9847,2.9659,2.978,2.9847,0.0,2.9967,3.0181,3.0074,2.9768,2.9676,2.9775,0.0,0.0,0.0,2.9347,0.0,0.0,2.7169,2.5189,2.2879,2.2802,2.1587,1.9427,1.9427,1.9492,1.9605,1.9484,1.9427,1.9427,1.9313,1.9256,1.9256,1.9256,1.9256,1.9256,1.9256,1.9256,1.9256,1.9256,1.9256,1.9256,1.9256,1.9256,1.9256,1.9256,1.9256,1.9281,1.9386,1.9427,1.9459,1.9444,1.8846,1.8,1.7857,1.7017,1.6374,1.6374,1.6408,1.6449,1.6449,1.6483,1.6483,1.6341,1.6307,1.6266,1.611,1.6083,1.6083,1.6083,1.6083,1.6083,1.6083,1.6083,1.5974,1.5676,1.5642,1.552,1.5215,1.5181,1.5181,1.5181,1.5181,1.5181,1.5181,1.5181,1.514,1.5045,1.4997,1.4848,1.459,1.4536,1.4441,1.4299,1.4299,1.4299,1.4299,1.4299,1.4299,3.0221,3.0368,0.0,3.0515,3.0662,0.0,3.0795,0.0,0.0,0.0,0.0,0.0,0.0,0.0,0.0,3.006,2.998,2.9953,0.0,3.0154,3.0167,3.0087,3.0247,3.0434,3.0621,3.0902,3.1316,3.1904,3.096,3.0474,0.0,0.0,2.7611,2.5472,2.4406,2.2983,2.0802,2.0008,1.967,1.9784,1.9605,1.9516,1.9508,1.9337,1.9256,1.9256,1.9256,1.9256,1.9256,1.9256,1.9256,1.9256,1.9256,1.9256,1.9256,1.9256,1.9256,1.9264,1.9329,1.9354,1.9378,1.9557,1.9613,1.9646,1.9621,1.9018,1.8157,1.7953,1.7137,1.651,1.6463,1.6524,1.6605,1.6605,1.6646,1.6632,1.6429,1.6388,1.6327,1.6123,1.6083,1.6083,1.6083,1.6083,1.6083,1.6083,1.6083,1.5974,1.5676,1.5642,1.552,1.5215,1.5181,1.5181,1.5181,1.5181,1.5181,1.5181,1.5181,1.512,1.4977,1.4916,1.4767,1.4516,1.4462,1.4394,1.4299,1.4299,1.4299,1.4299,1.4299,1.4299]}]]